[[{"header":{"parameterUnit":"m.s-1","parameterCategory":1,"la1":30.6,"la2":29.2853,"lo1":-89.7004,"lo2":-87.6739,"dx":0.0162,"dy":0.0183,"nx":112,"ny":82,"refTime":"2022-12-04T18:00:00:Z","depth":0,"parameterNumber":2,"parameterNumberName":"U-component_of_WINDS"},"data":[0.0,0.0,0.0,0.0,0.0,0.0,0.0,0.0,0.0,0.0,0.0,0.0,0.0,0.0,0.0,0.0,0.0,0.0,0.0,0.0,0.0,0.0,0.0,0.0,0.0,0.0,0.0,0.0,0.0,0.0,0.0,0.0,0.0,0.0,0.0,0.0,0.0,0.0,0.0,0.0,0.0,0.0,0.0,0.0,0.0,0.0,0.0,0.0,0.0,0.0,0.0,0.0,0.0,0.0,0.0,0.0,0.0,0.0,0.0,0.0,0.0,0.0,0.0,0.0,0.0,0.0,0.0,0.0,0.0,0.0,0.0,0.0,0.0,0.0,0.0,0.0,0.0,0.0,0.0,0.0,0.0,0.0,0.0,0.0,0.0,0.0,0.0,0.0,0.0,0.0,-2.2822,-2.5485,-2.71,-2.7989,-2.7989,-2.7126,-2.597,-2.4483,0.0,0.0,0.0,0.0,0.0,0.0,0.0,0.0,0.0,0.0,0.0,0.0,0.0,0.0,0.0,0.0,0.0,0.0,0.0,0.0,0.0,0.0,0.0,0.0,0.0,0.0,0.0,0.0,0.0,0.0,0.0,0.0,0.0,0.0,0.0,0.0,0.0,0.0,0.0,0.0,0.0,0.0,0.0,0.0,0.0,0.0,0.0,0.0,0.0,0.0,0.0,0.0,0.0,0.0,0.0,0.0,0.0,0.0,0.0,0.0,0.0,0.0,0.0,0.0,0.0,0.0,0.0,0.0,0.0,0.0,0.0,0.0,0.0,0.0,0.0,0.0,0.0,0.0,0.0,0.0,0.0,0.0,0.0,0.0,0.0,0.0,0.0,0.0,0.0,0.0,0.0,0.0,0.0,0.0,0.0,0.0,0.0,0.0,0.0,0.0,0.0,0.0,0.0,0.0,-2.3245,-2.7027,-2.8264,-2.8822,-2.8822,-2.7446,-2.6209,-2.5283,0.0,0.0,0.0,0.0,0.0,0.0,0.0,0.0,0.0,0.0,0.0,0.0,0.0,0.0,0.0,0.0,0.0,0.0,0.0,0.0,0.0,0.0,0.0,0.0,0.0,0.0,0.0,0.0,0.0,0.0,0.0,0.0,0.0,0.0,0.0,0.0,0.0,0.0,0.0,0.0,0.0,0.0,0.0,0.0,0.0,0.0,0.0,0.0,0.0,0.0,0.0,0.0,0.0,0.0,0.0,0.0,0.0,0.0,0.0,0.0,0.0,0.0,0.0,0.0,0.0,0.0,0.0,0.0,0.0,0.0,0.0,0.0,0.0,0.0,0.0,0.0,0.0,0.0,0.0,0.0,0.0,0.0,0.0,0.0,0.0,0.0,0.0,0.0,0.0,0.0,0.0,0.0,0.0,0.0,0.0,0.0,0.0,0.0,0.0,0.0,0.0,0.0,0.0,-2.3584,-2.5438,-2.8172,-2.8785,-2.9189,-2.961,-2.7776,-2.6264,-2.5448,-2.3134,0.0,0.0,0.0,0.0,0.0,0.0,0.0,0.0,0.0,0.0,0.0,0.0,0.0,0.0,0.0,0.0,0.0,0.0,0.0,0.0,0.0,0.0,0.0,0.0,0.0,0.0,0.0,0.0,0.0,0.0,0.0,0.0,0.0,0.0,0.0,0.0,0.0,0.0,0.0,0.0,0.0,0.0,0.0,0.0,0.0,0.0,0.0,0.0,0.0,0.0,0.0,0.0,0.0,0.0,0.0,0.0,0.0,0.0,0.0,0.0,0.0,0.0,0.0,0.0,0.0,0.0,0.0,0.0,0.0,0.0,0.0,0.0,0.0,0.0,0.0,0.0,0.0,0.0,0.0,0.0,0.0,0.0,0.0,0.0,0.0,0.0,0.0,0.0,0.0,0.0,0.0,0.0,0.0,0.0,0.0,0.0,0.0,0.0,0.0,0.0,0.0,0.0,-2.5401,-2.7501,-2.9115,-2.9445,-2.9824,-3.043,-2.8282,-2.6465,-2.5448,-2.2914,0.0,0.0,0.0,0.0,0.0,0.0,0.0,0.0,0.0,0.0,0.0,0.0,0.0,0.0,0.0,0.0,0.0,0.0,0.0,0.0,0.0,0.0,0.0,0.0,0.0,0.0,0.0,0.0,0.0,0.0,0.0,0.0,0.0,0.0,0.0,0.0,0.0,0.0,0.0,0.0,0.0,0.0,0.0,0.0,0.0,0.0,0.0,0.0,0.0,0.0,0.0,0.0,0.0,0.0,0.0,0.0,0.0,0.0,0.0,0.0,0.0,0.0,0.0,0.0,0.0,0.0,0.0,0.0,0.0,0.0,0.0,0.0,0.0,0.0,0.0,0.0,0.0,0.0,0.0,0.0,0.0,0.0,0.0,0.0,0.0,0.0,0.0,0.0,0.0,0.0,0.0,0.0,0.0,0.0,0.0,0.0,0.0,0.0,0.0,0.0,0.0,0.0,-2.6209,-2.8319,-2.9953,-3.0797,-3.125,-3.1323,-2.9102,-2.7045,-2.5503,-2.2264,0.0,0.0,0.0,0.0,0.0,0.0,0.0,0.0,0.0,0.0,0.0,0.0,0.0,0.0,0.0,0.0,0.0,0.0,0.0,0.0,0.0,0.0,0.0,0.0,0.0,0.0,0.0,0.0,0.0,0.0,0.0,0.0,0.0,0.0,0.0,0.0,0.0,0.0,0.0,0.0,0.0,0.0,0.0,0.0,0.0,0.0,0.0,0.0,0.0,0.0,0.0,0.0,0.0,0.0,0.0,0.0,0.0,0.0,0.0,0.0,0.0,0.0,0.0,0.0,0.0,0.0,0.0,0.0,0.0,0.0,0.0,0.0,0.0,0.0,0.0,0.0,0.0,0.0,0.0,0.0,0.0,0.0,0.0,0.0,0.0,0.0,0.0,0.0,0.0,0.0,0.0,0.0,0.0,0.0,0.0,0.0,0.0,0.0,0.0,0.0,0.0,0.0,-2.6623,-2.8411,-3.0026,-3.0907,-3.1397,-3.1397,-2.9193,-2.7328,-2.6227,0.0,0.0,0.0,0.0,0.0,0.0,0.0,0.0,0.0,0.0,0.0,0.0,0.0,0.0,0.0,0.0,0.0,0.0,0.0,0.0,0.0,0.0,0.0,0.0,0.0,0.0,0.0,0.0,0.0,0.0,0.0,0.0,0.0,0.0,0.0,0.0,0.0,0.0,0.0,0.0,0.0,0.0,0.0,0.0,0.0,0.0,0.0,0.0,0.0,0.0,0.0,0.0,0.0,0.0,0.0,0.0,0.0,0.0,0.0,0.0,0.0,0.0,0.0,0.0,0.0,0.0,0.0,0.0,0.0,0.0,0.0,0.0,0.0,0.0,0.0,0.0,0.0,0.0,0.0,0.0,0.0,0.0,0.0,0.0,0.0,0.0,0.0,0.0,0.0,0.0,0.0,0.0,0.0,0.0,0.0,0.0,0.0,0.0,0.0,0.0,0.0,0.0,-2.5448,-2.7181,-2.8796,-3.0411,-3.1531,-3.1966,-3.1452,-2.942,-2.7622,-2.63,0.0,0.0,0.0,0.0,0.0,0.0,0.0,0.0,0.0,0.0,0.0,0.0,0.0,0.0,0.0,0.0,0.0,0.0,0.0,0.0,0.0,0.0,0.0,0.0,0.0,0.0,0.0,0.0,0.0,0.0,0.0,0.0,0.0,0.0,0.0,0.0,0.0,0.0,0.0,0.0,0.0,0.0,0.0,0.0,0.0,0.0,0.0,0.0,0.0,0.0,0.0,0.0,0.0,0.0,0.0,0.0,0.0,0.0,0.0,0.0,0.0,0.0,0.0,0.0,0.0,0.0,0.0,0.0,0.0,0.0,0.0,0.0,0.0,0.0,0.0,0.0,0.0,0.0,0.0,0.0,0.0,0.0,0.0,0.0,0.0,0.0,0.0,0.0,0.0,0.0,0.0,0.0,0.0,0.0,0.0,0.0,0.0,0.0,0.0,0.0,0.0,0.0,-2.619,-2.7996,-2.961,-3.125,-3.2852,-3.3146,-3.1562,-2.9934,-2.7959,0.0,0.0,0.0,0.0,0.0,0.0,0.0,0.0,0.0,0.0,0.0,0.0,0.0,0.0,0.0,0.0,0.0,0.0,0.0,0.0,0.0,0.0,0.0,0.0,0.0,0.0,0.0,0.0,0.0,0.0,0.0,0.0,0.0,0.0,0.0,0.0,0.0,0.0,0.0,0.0,0.0,0.0,0.0,0.0,0.0,0.0,0.0,0.0,0.0,0.0,0.0,0.0,0.0,0.0,0.0,0.0,0.0,0.0,0.0,0.0,0.0,0.0,0.0,0.0,0.0,0.0,0.0,0.0,0.0,0.0,0.0,0.0,0.0,0.0,0.0,0.0,0.0,0.0,0.0,0.0,0.0,0.0,0.0,0.0,0.0,0.0,0.0,0.0,0.0,0.0,0.0,0.0,0.0,0.0,0.0,0.0,0.0,0.0,0.0,0.0,0.0,0.0,0.0,-2.619,-2.7996,-2.9831,-3.2008,-3.3183,-3.3385,-3.2339,-3.0253,-2.8216,-2.6355,0.0,0.0,0.0,0.0,0.0,0.0,0.0,0.0,0.0,0.0,0.0,0.0,0.0,0.0,0.0,0.0,0.0,0.0,0.0,0.0,0.0,0.0,0.0,0.0,0.0,0.0,0.0,0.0,0.0,0.0,0.0,0.0,0.0,0.0,0.0,0.0,0.0,0.0,0.0,0.0,0.0,0.0,0.0,0.0,0.0,0.0,0.0,0.0,0.0,0.0,0.0,0.0,0.0,0.0,0.0,0.0,0.0,0.0,0.0,0.0,0.0,0.0,0.0,0.0,0.0,0.0,0.0,0.0,0.0,0.0,0.0,0.0,0.0,0.0,0.0,0.0,0.0,0.0,0.0,0.0,0.0,0.0,0.0,0.0,0.0,0.0,0.0,0.0,0.0,0.0,0.0,0.0,0.0,0.0,0.0,0.0,0.0,0.0,0.0,0.0,0.0,0.0,-2.619,-2.7996,-2.9922,-3.2344,-3.333,-3.3605,-3.3128,-3.0858,-2.8785,-2.7181,0.0,0.0,0.0,0.0,0.0,0.0,0.0,0.0,0.0,0.0,0.0,0.0,0.0,0.0,0.0,0.0,0.0,0.0,0.0,0.0,0.0,0.0,0.0,0.0,0.0,0.0,0.0,0.0,0.0,0.0,0.0,0.0,0.0,0.0,0.0,0.0,0.0,0.0,0.0,0.0,0.0,0.0,0.0,0.0,0.0,0.0,0.0,0.0,0.0,0.0,0.0,0.0,0.0,0.0,0.0,0.0,0.0,0.0,0.0,0.0,0.0,0.0,0.0,0.0,0.0,0.0,0.0,0.0,0.0,0.0,0.0,0.0,0.0,0.0,0.0,0.0,0.0,0.0,0.0,0.0,0.0,0.0,0.0,0.0,0.0,0.0,0.0,0.0,0.0,0.0,0.0,0.0,0.0,0.0,0.0,0.0,0.0,0.0,0.0,0.0,0.0,0.0,-2.63,-2.8051,-2.9977,-3.2546,-3.3476,-3.3917,-3.3917,-3.1696,-2.9622,-2.8007,0.0,0.0,0.0,0.0,0.0,0.0,0.0,0.0,0.0,0.0,0.0,0.0,0.0,0.0,0.0,0.0,0.0,0.0,0.0,0.0,0.0,0.0,0.0,0.0,0.0,0.0,0.0,0.0,0.0,0.0,0.0,0.0,0.0,0.0,0.0,0.0,0.0,0.0,0.0,0.0,0.0,0.0,0.0,0.0,0.0,0.0,0.0,0.0,0.0,0.0,0.0,0.0,0.0,0.0,0.0,0.0,0.0,0.0,0.0,0.0,-2.34,-2.1427,0.0,0.0,0.0,0.0,0.0,0.0,0.0,0.0,0.0,0.0,0.0,0.0,0.0,0.0,0.0,0.0,0.0,0.0,0.0,0.0,0.0,0.0,0.0,0.0,0.0,0.0,0.0,0.0,0.0,0.0,0.0,0.0,0.0,0.0,0.0,0.0,0.0,0.0,0.0,0.0,-2.7126,-2.84,-3.0418,-3.4087,-3.4637,-3.4747,-3.4747,-3.254,-3.0467,-2.884,-2.5878,0.0,0.0,0.0,0.0,0.0,0.0,0.0,0.0,0.0,0.0,0.0,0.0,0.0,0.0,0.0,0.0,0.0,0.0,0.0,0.0,0.0,0.0,0.0,0.0,0.0,0.0,0.0,0.0,0.0,0.0,0.0,0.0,0.0,0.0,0.0,0.0,0.0,0.0,0.0,0.0,0.0,0.0,0.0,0.0,0.0,0.0,0.0,0.0,0.0,0.0,0.0,0.0,0.0,0.0,0.0,0.0,0.0,0.0,0.0,-2.5529,-2.3667,0.0,0.0,0.0,0.0,0.0,0.0,0.0,0.0,0.0,0.0,0.0,0.0,0.0,0.0,0.0,0.0,0.0,0.0,0.0,0.0,0.0,0.0,0.0,0.0,0.0,0.0,0.0,0.0,0.0,0.0,0.0,0.0,0.0,0.0,0.0,0.0,0.0,0.0,0.0,0.0,-2.7449,-2.9182,-3.139,-3.4656,-3.5371,-3.561,-3.561,-3.3733,-3.1696,-2.9702,-2.7629,0.0,0.0,0.0,0.0,0.0,0.0,0.0,0.0,0.0,0.0,0.0,0.0,0.0,0.0,0.0,0.0,0.0,0.0,0.0,0.0,0.0,0.0,0.0,0.0,0.0,0.0,0.0,0.0,0.0,0.0,0.0,0.0,0.0,0.0,0.0,0.0,0.0,0.0,0.0,0.0,0.0,0.0,0.0,0.0,0.0,0.0,0.0,0.0,0.0,0.0,0.0,0.0,0.0,-2.8379,-2.8787,-2.9629,-2.9669,-2.9669,-2.9555,-2.8216,-2.6576,-2.4814,-2.4685,0.0,0.0,0.0,0.0,0.0,0.0,0.0,0.0,0.0,0.0,0.0,0.0,0.0,0.0,0.0,0.0,0.0,0.0,0.0,0.0,0.0,0.0,-2.5075,-2.5844,-2.6539,-2.63,-2.363,0.0,0.0,0.0,0.0,0.0,0.0,0.0,0.0,0.0,0.0,0.0,-2.7934,-3.0191,-3.254,-3.4968,-3.6009,-3.6505,-3.6505,-3.511,-3.3256,-3.098,-2.9812,-2.7941,0.0,0.0,0.0,0.0,0.0,0.0,0.0,0.0,0.0,0.0,0.0,0.0,0.0,0.0,0.0,0.0,0.0,0.0,0.0,0.0,0.0,0.0,0.0,0.0,0.0,0.0,0.0,0.0,0.0,0.0,0.0,0.0,-2.2547,-2.2778,0.0,0.0,0.0,0.0,0.0,0.0,0.0,0.0,0.0,0.0,0.0,0.0,0.0,-2.816,-2.7778,-2.8846,-2.956,-2.9938,-3.0304,-3.1073,-3.2137,-3.2358,-3.2353,-3.2106,-3.1904,0.0,-2.7273,-2.6576,0.0,0.0,0.0,0.0,0.0,0.0,0.0,0.0,0.0,0.0,0.0,0.0,0.0,0.0,0.0,0.0,0.0,0.0,0.0,0.0,0.0,0.0,-2.7747,-2.8382,-2.8601,-2.8565,-2.8143,-2.5768,-2.3712,-2.3712,-2.251,-2.15,0.0,0.0,0.0,0.0,0.0,0.0,-2.9659,-3.1384,-3.3403,-3.5862,-3.6868,-3.7345,-3.7345,-3.6501,-3.5202,-3.344,-3.1256,-2.9537,-2.8418,-2.5585,0.0,0.0,0.0,0.0,0.0,0.0,0.0,0.0,0.0,0.0,0.0,0.0,0.0,0.0,0.0,0.0,0.0,0.0,0.0,0.0,0.0,0.0,0.0,0.0,0.0,0.0,0.0,0.0,0.0,-2.3067,-2.3875,-2.4812,-2.4947,-2.512,0.0,0.0,0.0,0.0,0.0,0.0,0.0,0.0,0.0,-2.9275,-3.049,-3.0985,-3.0755,-3.2074,-3.2977,-3.347,-3.3672,-3.4262,-3.5187,-3.5312,-3.53,-3.5156,-3.4719,-3.3702,-3.2206,-2.9677,-2.8099,-2.72,0.0,0.0,0.0,0.0,-2.457,-2.467,-2.473,-2.4925,-2.5139,-2.5071,0.0,0.0,0.0,0.0,0.0,0.0,0.0,-2.7023,-2.8356,-2.9577,-3.0528,-3.0777,-3.1561,-3.2264,-3.2264,-3.029,-2.8071,-2.6518,-2.5291,-2.4502,-2.4502,-2.5089,0.0,0.0,0.0,-2.9219,-3.128,-3.2949,-3.4729,-3.6758,-3.7679,-3.7988,-3.7547,-3.718,-3.6079,-3.3935,-3.2816,-3.1256,-2.9097,-2.7218,-2.5419,0.0,0.0,0.0,0.0,0.0,0.0,0.0,0.0,0.0,0.0,0.0,0.0,0.0,0.0,0.0,0.0,0.0,0.0,0.0,0.0,0.0,0.0,0.0,0.0,0.0,0.0,0.0,0.0,-2.4606,-2.5356,-2.7044,-2.7236,-2.7582,0.0,0.0,0.0,0.0,0.0,0.0,-3.0031,-3.0069,-3.0564,-3.1673,-3.3115,-3.3772,-3.3546,-3.5005,-3.593,-3.6305,-3.6385,-3.6792,-3.7503,-3.7577,-3.7566,-3.7465,-3.6871,-3.6503,-3.6019,-3.2441,-3.0233,-2.9108,-2.8603,-2.8044,-2.7512,-2.7281,-2.7352,-2.755,-2.7597,-2.79,-2.8215,-2.8065,-2.8155,-2.8288,-2.8146,0.0,0.0,0.0,0.0,-2.955,-3.0508,-3.2005,-3.3308,-3.3488,-3.451,-3.5408,-3.5408,-3.4124,-3.215,-2.938,-2.7963,-2.7207,-2.7207,-2.7372,0.0,-2.8319,-2.9457,-3.0876,-3.2674,-3.4509,-3.6119,-3.7364,-3.8212,-3.8469,-3.786,-3.7823,-3.6942,-3.4871,-3.4339,-3.2931,-3.0344,-2.887,-2.7163,-2.5162,0.0,0.0,0.0,0.0,0.0,0.0,0.0,0.0,0.0,0.0,0.0,0.0,0.0,0.0,0.0,0.0,0.0,0.0,0.0,0.0,0.0,0.0,0.0,0.0,0.0,0.0,0.0,0.0,0.0,-2.878,-2.8973,0.0,0.0,0.0,0.0,-3.0269,-3.0269,-3.0981,-3.2622,-3.2718,-3.3487,-3.5192,-3.6077,-3.6374,-3.6133,-3.7019,-3.7367,-3.7146,-3.7395,-3.7804,-3.835,-3.8611,-3.8591,-3.8339,-3.8301,-3.7851,-3.6925,-3.4105,-3.2907,-3.265,-3.0805,-3.0063,-2.9934,-2.9152,-2.9044,-2.9306,-2.9493,-2.9739,-2.9995,-3.017,-3.0251,-3.0257,-3.0251,-3.0226,0.0,0.0,-3.1741,-3.2692,-3.4084,-3.5113,-3.6003,-3.6768,-3.7022,-3.7079,-3.7079,-3.6398,-3.4986,-3.2235,-3.0169,-2.8877,-2.8877,0.0,-3.0026,-3.0063,-3.2063,-3.3605,-3.3715,-3.5877,-3.7419,-3.7492,-3.8212,-3.8689,-3.8652,-3.8634,-3.8267,-3.7364,-3.5811,-3.4527,-3.3605,-3.0583,-2.851,-2.7651,-2.5254,0.0,0.0,0.0,0.0,0.0,0.0,0.0,0.0,0.0,0.0,0.0,0.0,0.0,0.0,0.0,0.0,0.0,0.0,0.0,0.0,0.0,0.0,0.0,0.0,0.0,0.0,0.0,0.0,-3.0564,-3.0775,0.0,-3.2718,-3.2852,-3.3083,-3.3635,-3.3673,-3.4173,-3.5295,-3.5353,-3.6142,-3.7892,-3.8719,-3.9362,-3.9827,-4.0699,-4.1086,-4.0996,-4.1086,-4.1231,-4.1437,-4.151,-4.1213,-4.0586,-4.0586,-4.0117,-3.9199,-3.7509,-3.6099,-3.4896,-3.4207,-3.362,-3.3133,-3.2843,-3.2873,-3.3058,-3.2996,-3.3244,-3.3594,-3.366,-3.3673,-3.3673,-3.3673,-3.3561,-3.3574,-3.4318,-3.4767,-3.5283,-3.6301,-3.7343,-3.8202,-3.848,-3.8939,-3.9322,-3.9322,-3.8555,-3.7585,-3.6606,-3.4245,-3.2339,-3.212,-3.2339,-3.2687,-3.3206,-3.4014,-3.4949,-3.6042,-3.696,-3.7694,-3.8212,-3.8524,-3.8707,-3.8707,-3.8707,-3.8358,-3.7547,-3.6942,-3.5752,-3.388,-3.2197,-3.0454,-2.8601,-2.6722,-2.4942,0.0,0.0,0.0,0.0,0.0,0.0,0.0,0.0,0.0,0.0,0.0,0.0,0.0,0.0,0.0,0.0,0.0,0.0,0.0,0.0,0.0,0.0,0.0,0.0,0.0,-2.9198,-3.039,-3.2718,-3.2981,-3.3641,-3.5315,-3.5475,-3.5718,-3.6288,-3.6622,-3.7142,-3.795,-3.8257,-3.9084,-4.0527,-4.1112,-4.1643,-4.2239,-4.2816,-4.3104,-4.3104,-4.3104,-4.3104,-4.3104,-4.3104,-4.2777,-4.2239,-4.2239,-4.1912,-4.1308,-4.0607,-3.9383,-3.7861,-3.6812,-3.6079,-3.5616,-3.5616,-3.5742,-3.5931,-3.5898,-3.6088,-3.6346,-3.6346,-3.6346,-3.6346,-3.6346,-3.6216,-3.62,-3.672,-3.7119,-3.7491,-3.8038,-3.8941,-3.9785,-4.0065,-4.0546,-4.1008,-4.1304,-4.0822,-4.0279,-4.0177,-3.7424,-3.5051,-3.4818,-3.471,-3.4816,-3.5353,-3.5665,-3.6248,-3.7364,-3.7749,-3.8102,-3.8652,-3.8707,-3.8707,-3.8707,-3.8707,-3.8469,-3.7951,-3.7658,-3.6758,-3.5124,-3.3733,-3.2124,-3.0253,-2.8088,-2.6209,-2.4603,0.0,0.0,0.0,0.0,0.0,0.0,0.0,0.0,0.0,0.0,0.0,0.0,0.0,0.0,0.0,0.0,0.0,0.0,0.0,0.0,0.0,0.0,0.0,-3.0481,-3.0519,-3.1808,-3.5173,-3.5577,-3.6231,-3.7911,-3.8084,-3.8104,-3.8161,-3.8931,-3.9765,-4.0535,-4.1373,-4.2239,-4.3104,-4.3143,-4.3143,-4.3181,-4.3181,-4.3181,-4.3181,-4.3181,-4.3181,-4.3181,-4.3181,-4.3162,-4.3143,-4.3143,-4.3124,-4.3104,-4.3104,-4.2604,-4.1544,-3.8527,-3.7337,-3.7299,-3.7299,-3.747,-3.7731,-3.7986,-3.8084,-3.8084,-3.8084,-3.8084,-3.8084,-3.8104,-3.8123,-3.8123,-3.8142,-3.8777,-3.9419,-3.9419,-3.9996,-4.0785,-4.1643,-4.1846,-4.2058,-4.2912,-4.3104,-4.3007,-4.2689,-3.9501,-3.6876,-3.6864,-3.6652,-3.6475,-3.6479,-3.7121,0.0,-3.7584,-3.8248,-3.8726,-3.8707,-3.8707,-3.8707,-3.8707,-3.8707,-3.8707,-3.8707,-3.7955,-3.7529,-3.7492,-3.5183,-3.3513,-3.2656,-2.9494,-2.71,-2.5503,0.0,0.0,0.0,0.0,0.0,0.0,0.0,0.0,0.0,0.0,0.0,0.0,0.0,0.0,0.0,0.0,0.0,0.0,0.0,0.0,0.0,-3.0962,-3.2218,-3.2218,-3.3308,-3.4904,-3.7065,-3.7315,-3.7969,-3.965,-3.9804,-4.0335,-4.1604,-4.1912,-4.2143,-4.2374,-4.2604,-4.3124,-4.3932,-4.397,-4.4259,-4.4921,-4.4921,-4.4921,-4.4921,-4.4921,-4.4921,-4.4921,-4.4921,-4.4566,-4.397,-4.397,-4.3643,-4.3104,-4.3104,-4.297,-4.2596,-4.1104,-4.0159,-3.9585,-3.9585,-3.9638,-3.9714,-3.9781,-3.9804,-3.9804,-3.9804,-3.9804,-3.9938,-4.0566,-4.0758,-4.0893,-4.1527,-4.1873,-4.2066,-4.2066,-4.222,-4.245,-4.2681,-4.2739,-4.2816,-4.3047,-4.3104,-4.3069,-4.297,-4.1886,-4.0896,-4.0657,-4.0553,-4.0431,-4.0184,-4.0327,-4.0174,-3.9341,-3.9423,-3.935,-3.8762,-3.8707,-3.8707,-3.8707,-3.8707,-3.8707,-3.8707,-3.8487,-3.8102,-3.7529,-3.685,-3.5532,-3.3513,-3.0889,-2.9035,0.0,0.0,0.0,0.0,0.0,0.0,0.0,0.0,0.0,0.0,0.0,0.0,0.0,0.0,0.0,0.0,0.0,0.0,0.0,0.0,0.0,0.0,-3.2891,-3.4237,-3.4949,-3.5596,-3.675,-3.8796,-3.9046,-3.9719,-4.1412,-4.1593,-4.2008,-4.3028,-4.3412,-4.3605,-4.3605,-4.3951,-4.4355,-4.4816,-4.4836,-4.5094,-4.5594,-4.5594,-4.5594,-4.5594,-4.5594,-4.5594,-4.5594,-4.5594,-4.5325,-4.4836,-4.4836,-4.4586,-4.4143,-4.4143,-4.3932,-4.3528,0.0,0.0,0.0,0.0,-4.1593,-4.1593,-4.1593,-4.1593,-4.1593,-4.1593,-4.1593,-4.1681,-4.22,-4.2335,-4.245,-4.297,-4.3104,-4.3104,-4.3104,-4.3104,-4.3181,-4.3528,-4.3605,-4.3701,-4.4066,-4.4143,-4.4143,-4.4143,-4.3989,0.0,-4.3609,-4.275,-4.2027,-4.1841,-4.1698,-4.1254,-4.0226,-3.9989,-3.9588,-3.8799,-3.8707,-3.8707,-3.8707,-3.8707,0.0,0.0,0.0,-3.834,-3.7529,-3.718,0.0,0.0,0.0,-3.0815,-3.0008,-2.92,0.0,0.0,-2.4529,-2.4162,0.0,0.0,0.0,0.0,0.0,0.0,0.0,0.0,0.0,0.0,0.0,0.0,0.0,0.0,0.0,0.0,-3.4731,-3.6481,-3.8065,-3.77,-3.8104,-4.0381,-4.0727,-4.1439,-4.3085,-4.3239,-4.3278,-4.3374,-4.4047,-4.4451,-4.4451,-4.519,0.0,0.0,0.0,-4.5594,-4.5594,-4.5594,-4.5594,-4.5594,-4.5594,-4.5594,-4.5594,-4.5594,-4.5594,-4.5594,-4.5594,-4.5594,-4.5594,-4.5594,-4.5152,-4.4355,-4.3451,-4.3104,-4.3104,-4.3104,-4.3104,-4.3104,-4.3104,0.0,0.0,-4.3104,-4.3104,-4.3124,-4.3201,-4.3239,-4.3258,-4.3355,-4.3374,-4.3374,-4.3374,-4.3374,-4.3566,-4.4278,-4.4451,-4.4662,-4.5441,-4.5594,-4.5594,-4.5594,-4.5594,-4.5594,-4.5594,-4.388,-4.2479,-4.2444,-4.2188,-4.1693,-4.0848,-4.0363,-3.9792,-3.9028,-3.8805,0.0,-3.8732,-3.8719,-3.8707,-3.8707,-3.8707,-3.8377,-3.7658,-3.6868,-3.5734,-3.4247,-3.344,-3.2632,-3.1788,-3.1091,-3.0687,-3.0558,-2.8136,-2.7383,0.0,0.0,0.0,0.0,0.0,0.0,0.0,0.0,0.0,0.0,0.0,0.0,0.0,0.0,0.0,-3.4827,-3.7007,-3.8892,-3.9881,-4.0489,-4.1,-4.1489,-4.2162,-4.297,-4.397,-4.4066,-4.4355,-4.5056,-4.5267,-4.5344,-4.5344,-4.5518,-4.5594,-4.5594,-4.5594,-4.5594,-4.5594,-4.5594,-4.5594,-4.5594,-4.5594,0.0,-4.5594,-4.5594,-4.5594,-4.5594,-4.5594,-4.5594,-4.5594,-4.5594,-4.5498,-4.521,-4.3682,-4.3104,-4.3104,-4.3104,-4.3104,-4.3104,-4.3104,-4.3104,-4.3104,-4.3104,-4.3104,-4.322,-4.3874,-4.4066,0.0,-4.4921,-4.5114,-4.5114,-4.5114,-4.5114,-4.5171,-4.5306,-4.5344,-4.5402,-4.5556,-4.5594,-4.5594,-4.5594,-4.5594,-4.5594,-4.5594,-4.5216,-4.4834,-4.4568,-4.446,-4.4009,-4.2882,-4.188,-4.1078,-4.0528,-3.9402,-3.8788,-3.8994,-3.8815,-3.8707,-3.8707,-3.8707,-3.8634,-3.8469,-3.7713,-3.7125,-3.6795,-3.5991,-3.5165,-3.4307,-3.416,-3.3738,-3.3054,-3.0632,-2.9586,0.0,0.0,0.0,0.0,0.0,0.0,0.0,0.0,0.0,0.0,0.0,-3.1391,-3.2712,0.0,-3.5872,-3.7199,-3.8815,-4.0189,-4.1027,-4.2258,-4.3047,-4.3047,-4.3431,-4.4028,-4.4874,-4.496,-4.5133,-4.5575,-4.5594,-4.5594,-4.5594,-4.5594,-4.5594,-4.5594,-4.5594,-4.5594,-4.5594,-4.5594,-4.5594,-4.5594,-4.5594,-4.5594,-4.5594,-4.5594,-4.5594,-4.5594,-4.5594,-4.5594,-4.5594,-4.5594,-4.5594,-4.5518,-4.469,-4.4355,-4.4355,-4.4355,-4.4355,-4.4355,-4.4355,-4.4355,-4.4355,-4.4355,-4.4355,-4.4432,-4.4816,-4.496,-4.5037,-4.5479,-4.5594,-4.5594,-4.5594,-4.5594,-4.5594,-4.5594,-4.5594,-4.5594,-4.5594,-4.5594,-4.5594,-4.5594,-4.5594,-4.5594,-4.5594,-4.5594,-4.5531,-4.539,-4.5211,-4.4748,-4.373,-4.2586,-4.1606,-4.0981,-3.9858,-3.9197,-3.9346,-3.9082,-3.8894,-3.8894,-3.8777,-3.8707,-3.8707,-3.7933,-3.7492,-3.7492,-3.6707,-3.6083,-3.5646,-3.5646,-3.544,-3.5018,-3.3807,-3.3018,0.0,0.0,0.0,0.0,0.0,0.0,0.0,-2.9342,-3.0143,-3.0966,-3.2468,-3.4064,-3.5462,-3.6538,-3.7719,-3.9284,-4.0227,-4.1104,-4.2143,-4.3451,-4.4355,-4.4528,-4.4547,-4.4816,-4.5537,-4.5594,-4.5594,-4.5594,-4.5594,-4.5594,-4.5594,-4.5594,-4.5594,-4.5594,-4.5594,-4.5594,-4.5594,-4.5594,-4.5594,-4.5594,-4.5594,-4.5594,-4.5594,-4.5594,-4.5594,-4.5594,-4.5594,-4.5594,-4.5594,-4.5594,-4.5594,-4.5594,-4.5594,-4.5594,-4.5594,-4.5594,-4.5594,-4.5594,-4.5594,-4.5594,-4.5594,-4.5594,-4.5594,-4.5594,-4.5594,-4.5594,-4.5594,-4.5594,-4.5594,-4.5594,-4.5594,-4.5594,-4.5594,-4.5594,-4.5594,-4.5594,-4.5594,-4.5594,-4.5594,-4.5594,-4.5594,-4.5594,-4.5594,-4.5594,-4.5594,-4.5594,-4.5362,-4.4963,-4.4315,-4.3201,-4.2222,-4.162,-4.0541,-3.978,-3.9599,-3.9352,-3.916,-3.9093,-3.8894,-3.8747,-3.8707,-3.8065,-3.7731,-3.7731,-3.7107,-3.6762,-3.6762,-3.6762,-3.6762,-3.6762,-3.6762,-3.6229,-2.8047,-2.7963,-2.8091,-2.8854,-2.8983,-2.9345,0.0,-3.1909,-3.2737,-3.3609,-3.5103,-3.6327,-3.6519,-3.7892,-3.9304,-4.0227,-4.1085,-4.222,-4.3797,-4.4182,-4.4586,-4.5364,-4.546,-4.5498,-4.5594,-4.5594,-4.5594,-4.5594,-4.5594,-4.5594,-4.5594,-4.5594,-4.5594,-4.5594,-4.5594,-4.5594,-4.5594,-4.5594,-4.5594,-4.5594,-4.5594,-4.5594,-4.5594,-4.5594,-4.5594,-4.5594,-4.5594,-4.5594,-4.5594,-4.5594,-4.5594,-4.5594,-4.5594,-4.5594,-4.5594,-4.5594,-4.5594,-4.5594,-4.5594,-4.5594,-4.5594,-4.5594,-4.5594,-4.5594,-4.5594,-4.5594,-4.5594,-4.5594,-4.5594,-4.5594,-4.5594,-4.5594,-4.5594,-4.5594,-4.5594,-4.5594,-4.5594,-4.5594,-4.5594,-4.5594,-4.5594,-4.5594,-4.5594,-4.5594,-4.5594,-4.5594,-4.5568,-4.5512,-4.5425,-4.4412,-4.3768,-4.3902,-4.202,-4.0434,-3.9656,-3.9564,-3.9414,-3.9125,-3.9072,-3.8947,-3.8723,-3.8615,-3.8579,-3.8579,-3.8487,-3.8432,-3.8432,-3.8432,-3.8432,-3.8432,-3.8432,-3.7606,-2.8955,-2.9258,-2.9905,-3.1142,-3.1405,-3.1802,-3.3513,-3.4519,-3.5218,-3.5584,-3.7026,-3.8354,-3.8834,-3.9912,-4.1027,-4.1873,-4.2701,-4.3508,-4.4201,-4.4739,-4.519,-4.5556,-4.5594,-4.5594,-4.5594,-4.5594,-4.5594,-4.5594,-4.5594,-4.5594,-4.5594,-4.5594,-4.5594,-4.5594,-4.5594,-4.5594,-4.5594,-4.5594,-4.5594,-4.5594,-4.5594,-4.5594,-4.5594,-4.5594,-4.5594,-4.5594,-4.5594,-4.5594,-4.5594,-4.5594,-4.5594,-4.5594,-4.5594,-4.5594,-4.5594,-4.5594,-4.5594,-4.5594,-4.5594,-4.5594,-4.5594,-4.5594,-4.5594,-4.5594,-4.5594,-4.5594,-4.5594,-4.5594,-4.5594,-4.5594,-4.5594,-4.5594,-4.5594,-4.5594,-4.5594,-4.5594,-4.5594,-4.5594,-4.5594,-4.5594,-4.5594,-4.5594,-4.5594,-4.5594,-4.5594,-4.5594,-4.5594,-4.5594,-4.5594,-4.4746,-4.3797,-4.2942,-4.1539,-4.052,-4.0148,-3.9993,-3.9829,-3.9679,-3.9333,-3.9049,-3.8933,-3.8773,-3.8707,-3.8707,-3.8707,-3.8707,-3.8707,-3.8707,-3.8707,-3.8707,-3.8707,-3.834,-3.0791,-3.1249,-3.2055,-3.365,-3.4004,-3.4334,-3.5846,-3.6834,-3.743,-3.743,-3.8604,-3.9804,-4.04,-4.12,-4.2085,-4.297,-4.3778,-4.4374,-4.4624,-4.521,-4.5594,-4.5594,-4.5594,-4.5594,-4.5594,-4.5594,-4.5594,-4.5594,-4.5594,-4.5594,-4.5594,-4.5594,-4.5594,-4.5594,-4.5594,-4.5594,-4.5594,-4.5594,-4.5594,-4.5594,-4.5594,-4.5594,-4.5594,-4.5594,-4.5594,-4.5594,-4.5594,-4.5594,-4.5594,-4.5594,-4.5594,-4.5594,-4.5594,-4.5594,-4.5594,-4.5594,-4.5594,-4.5594,-4.5594,-4.5594,-4.5594,-4.5594,-4.5594,-4.5594,-4.5594,-4.5594,-4.5594,-4.5594,-4.5594,-4.5594,-4.5594,-4.5594,-4.5594,-4.5594,-4.5594,-4.5594,-4.5594,-4.5594,-4.5594,-4.5594,-4.5594,-4.5594,-4.5594,-4.5594,-4.5594,-4.5594,-4.5594,-4.5594,-4.5594,-4.4836,-4.3758,-4.2316,-4.1373,-4.0766,-4.0516,-4.033,-4.0177,-4.0101,-3.9564,-3.9205,-3.9093,-3.8844,-3.8707,-3.8707,-3.8707,-3.8707,-3.8707,-3.8707,-3.8707,-3.8707,-3.8707,-3.8707,-3.4227,-3.4405,-3.4754,-3.6294,-3.6633,-3.6808,-3.7719,-3.8604,-3.9227,-3.9227,-3.9881,-4.0477,-4.0496,-4.12,-4.2085,-4.297,-4.3778,-4.4605,-4.5441,-4.5575,-4.5594,-4.5594,-4.5594,-4.5594,-4.5594,-4.5594,-4.5594,-4.5594,-4.5594,-4.5594,-4.5594,-4.5594,-4.5594,-4.5594,-4.5594,-4.5594,-4.5594,-4.5594,-4.5594,-4.5594,-4.5594,-4.5594,-4.5594,-4.5594,-4.5594,-4.5594,-4.5594,-4.5594,-4.5594,-4.5594,-4.5594,-4.5594,-4.5594,-4.5594,-4.5594,-4.5594,-4.5594,-4.5594,-4.5594,-4.5594,-4.5594,-4.5594,-4.5594,-4.5594,-4.5594,-4.5594,-4.5594,-4.5594,-4.5594,-4.5594,-4.5594,-4.5594,-4.5594,-4.5594,-4.5594,-4.5594,-4.5594,-4.5594,-4.5594,-4.5594,-4.5594,-4.5594,-4.5594,-4.5594,-4.5594,-4.5594,-4.5594,-4.5594,-4.5594,-4.4836,-4.397,-4.3143,-4.2277,-4.1412,-4.0573,-4.0489,-4.0372,-4.011,-3.9775,-3.9426,-3.9107,-3.8844,-3.8707,-3.8707,-3.8707,-3.8707,-3.8707,-3.8707,-3.8707,-3.8707,-3.8707,-3.8707,-3.5139,-3.5733,-3.653,-3.808,-3.8436,-3.8642,-3.9477,-3.99,-4.0092,-4.0092,-4.0304,-4.0689,-4.1258,-4.1604,-4.2258,-4.3662,-4.4124,-4.4605,-4.5479,-4.5594,-4.5594,-4.5594,-4.5594,-4.5594,-4.5594,-4.5594,-4.5594,-4.5594,-4.5594,-4.5594,-4.5594,-4.5594,-4.5594,-4.5594,-4.5594,-4.5594,-4.5594,-4.5594,-4.5594,-4.5594,-4.5594,-4.5594,-4.5594,-4.5594,-4.5594,-4.5594,-4.5594,-4.5594,-4.5594,-4.5594,-4.5594,-4.5594,-4.5594,-4.5594,-4.5594,-4.5594,-4.5594,-4.5594,-4.5594,-4.5594,-4.5594,-4.5594,-4.5594,-4.5594,-4.5594,-4.5594,-4.5594,-4.5594,-4.5594,-4.5594,-4.5594,-4.5594,-4.5594,-4.5594,-4.5594,-4.5594,-4.5594,-4.5594,-4.5594,-4.5594,-4.5594,-4.5594,-4.5594,-4.5594,-4.5594,-4.5594,-4.5594,-4.5402,-4.4797,-4.4008,-4.3181,-4.2335,-4.145,-4.0823,-4.0516,-4.0339,-4.0195,-4.0101,-3.9576,-3.9212,-3.9093,-3.8844,-3.8707,-3.8707,-3.8707,-3.8707,-3.8707,-3.8707,-3.8707,-3.8707,-3.8707,-3.8707,-3.6427,-3.7238,-3.8152,-3.9415,-3.9727,-3.9861,-4.0381,-4.0496,-4.0496,-4.0496,-4.0496,-4.0669,-4.1239,-4.1585,-4.2258,-4.3643,-4.4105,-4.4605,-4.5479,-4.5594,-4.5594,-4.5594,-4.5594,-4.5594,-4.5594,-4.5594,-4.5594,-4.5594,-4.5594,-4.5594,-4.5594,-4.5594,-4.5594,-4.5594,-4.5594,-4.5594,-4.5594,-4.5594,-4.5594,-4.5594,-4.5594,-4.5594,-4.5594,-4.5594,-4.5594,-4.5594,-4.5594,-4.5594,-4.5594,-4.5594,-4.5594,-4.5594,-4.5594,-4.5594,-4.5594,-4.5594,-4.5594,-4.5594,-4.5594,-4.5594,-4.5594,-4.5594,-4.5594,-4.5594,-4.5594,-4.5594,-4.5594,-4.5594,-4.5594,-4.5594,-4.5594,-4.5594,-4.5594,-4.5594,-4.5594,-4.5594,-4.5594,-4.5594,-4.5594,-4.5594,-4.5594,-4.5594,-4.5594,-4.5594,-4.5594,-4.5594,-4.5325,-4.494,-4.4374,-4.3335,-4.2431,-4.1865,-4.1027,-4.0465,-4.0364,-4.0195,-4.0061,-3.9922,-3.9401,-3.9112,-3.9112,-3.8844,-3.8707,-3.8707,-3.8707,-3.8707,-3.8707,-3.8707,-3.8707,-3.8707,-3.8707,-3.8707,-3.8135,-3.8879,-3.9573,-4.033,-4.0496,-4.0496,-4.0458,-4.0439,-4.0439,-4.0381,-4.0362,-4.04,-4.0439,-4.1104,-4.197,-4.2893,-4.3701,-4.4528,-4.5421,-4.5575,-4.5594,-4.5594,-4.5594,-4.5594,-4.5594,-4.5594,-4.5594,-4.5594,-4.5594,-4.5594,-4.5594,-4.5594,-4.5594,-4.5594,-4.5594,-4.5594,-4.5594,-4.5594,-4.5594,-4.5594,-4.5594,-4.5594,-4.5594,-4.5594,-4.5594,-4.5594,-4.5594,-4.5594,-4.5594,-4.5594,-4.5594,-4.5594,-4.5594,-4.5594,-4.5594,-4.5594,-4.5594,-4.5594,-4.5594,-4.5594,-4.5594,-4.5594,-4.5594,-4.5594,-4.5594,-4.5594,-4.5594,-4.5594,-4.5594,-4.5594,-4.5594,-4.5594,-4.5594,-4.5594,-4.5594,-4.5594,-4.5594,-4.5594,-4.5594,-4.5594,-4.5594,-4.5594,-4.5594,-4.5594,-4.5575,-4.5537,-4.4778,-4.4239,-4.4239,-4.2816,-4.1769,-4.1731,-4.0989,-4.0389,-4.0139,-4.011,-3.9953,-3.9645,-3.9302,-3.9125,-3.9112,-3.8873,-3.8704,-3.8707,-3.8707,-3.8707,-3.8707,-3.8707,-3.8707,-3.8707,-3.8707,-3.8707,-3.8758,-3.9251,-3.9573,-4.033,-4.0496,-4.0342,-3.9746,-3.9611,-3.9419,-3.8777,-3.8642,-3.8834,-3.9496,-3.9785,-4.0412,-4.1893,-4.2854,-4.3682,-4.4509,-4.519,-4.5594,-4.5594,-4.5594,-4.5594,-4.5594,-4.5594,-4.5594,-4.5594,-4.5594,-4.5594,-4.5594,-4.5594,-4.5594,-4.5594,-4.5594,-4.5594,-4.5594,-4.5594,-4.5594,-4.5594,-4.5594,-4.5594,-4.5594,-4.5594,-4.5594,-4.5594,-4.5594,-4.5594,-4.5594,-4.5594,-4.5594,-4.5594,-4.5594,-4.5594,-4.5594,-4.5594,-4.5594,-4.5594,-4.5594,-4.5594,-4.5594,-4.5594,-4.5594,-4.5594,-4.5594,-4.5594,-4.5594,-4.5594,-4.5594,-4.5594,-4.5594,-4.5594,-4.5594,-4.5594,-4.5594,-4.5594,-4.5594,-4.5594,-4.5594,-4.5594,-4.5594,-4.5594,-4.5594,-4.5594,-4.5383,-4.472,-4.3932,-4.3412,-4.3412,-4.247,-4.1546,-4.0893,-4.0631,-4.0473,-4.0397,-4.0213,-4.0052,-3.9982,-3.9656,-3.9352,-3.9125,-3.9036,-3.8909,-3.8707,-3.8707,-3.8707,-3.8707,-3.8707,-3.8707,-3.8707,-3.8707,-3.8707,-3.9171,-3.9757,-4.0068,-4.0487,-4.0293,-3.9886,-3.9415,-3.8996,-3.8584,-3.8104,-3.8007,-3.8142,-3.8642,-3.8719,-3.9277,-4.095,-4.1643,-4.2508,-4.4085,-4.472,-4.5171,-4.5556,-4.5594,-4.5594,-4.5594,-4.5594,-4.5594,-4.5594,-4.5594,-4.5594,-4.5594,-4.5594,-4.5594,-4.5594,-4.5594,-4.5594,-4.5594,-4.5594,-4.5594,-4.5594,-4.5594,-4.5594,-4.5594,-4.5594,-4.5594,-4.5594,-4.5594,-4.5594,-4.5594,-4.5594,-4.5594,-4.5594,-4.5594,-4.5594,-4.5594,-4.5594,-4.5594,-4.5594,-4.5594,-4.5594,-4.5594,-4.5594,-4.5594,-4.5594,-4.5594,-4.5594,-4.5594,-4.5594,-4.5594,-4.5594,-4.5594,-4.5594,-4.5594,-4.5594,-4.5594,-4.5594,-4.5594,-4.5594,-4.5594,-4.5594,-4.5594,-4.5594,-4.5594,-4.5287,-4.4855,-4.4374,-4.3297,-4.2527,-4.2527,-4.1777,-4.1046,-4.0554,-4.0496,-4.0457,-4.0339,-4.0186,-4.0032,-3.9891,-3.969,-3.9529,-3.9327,-3.9314,-3.9184,-3.8884,-3.8884,-3.8833,-3.8707,-3.8707,-3.8707,-3.8707,-3.8707,-3.8707,-3.9602,-4.0272,-4.0707,-4.0707,-4.0043,-3.9364,-3.9191,-3.8375,-3.7642,-3.7526,-3.7392,-3.7353,-3.7469,-3.7584,-3.818,-3.9746,-4.0285,-4.1304,-4.3643,-4.4162,-4.4624,-4.5498,-4.5594,-4.5594,-4.5594,-4.5594,-4.5594,-4.5594,-4.5594,-4.5594,-4.5594,-4.5594,-4.5594,-4.5594,-4.5594,-4.5594,-4.5594,-4.5594,-4.5594,-4.5594,-4.5594,-4.5594,-4.5594,-4.5594,-4.5594,-4.5594,-4.5594,-4.5594,-4.5594,-4.5594,-4.5594,-4.5594,-4.5594,-4.5594,-4.5594,-4.5594,-4.5594,-4.5594,-4.5594,-4.5594,-4.5594,-4.5594,-4.5594,-4.5594,-4.5594,-4.5594,-4.5594,-4.5594,-4.5594,-4.5594,-4.5594,-4.5594,-4.5594,-4.5594,-4.5594,-4.5594,-4.5594,-4.5594,-4.5594,-4.5594,-4.5518,-4.5441,-4.5441,-4.4701,-4.4105,-4.3989,-4.2739,-4.175,-4.1643,-4.0969,-4.0496,-4.0496,-4.0496,-4.0417,-4.0167,-4.0148,-4.0032,-3.9735,-3.9724,-3.9701,-3.9668,-3.9668,-3.9517,-3.916,-3.9178,-3.9054,-3.8822,-3.8777,-3.8747,-3.8747,-3.8723,-3.8707,-4.039,-4.068,-4.0788,-4.0788,-4.0097,-3.9218,-3.8556,-3.7122,-3.5731,-3.5007,-3.4295,-3.4007,-3.4725,-3.5449,-3.625,-3.7199,-3.9123,-4.092,-4.2066,-4.3431,-4.4624,-4.5498,-4.5594,-4.5594,-4.5594,-4.5594,-4.5594,-4.5594,-4.5594,-4.5594,-4.5594,-4.5594,-4.5594,-4.5594,-4.5594,-4.5594,-4.5594,-4.5594,-4.5594,-4.5594,-4.5594,-4.5594,-4.5594,-4.5594,-4.5594,-4.5594,-4.5594,-4.5594,-4.5594,-4.5594,-4.5594,-4.5594,-4.5594,-4.5594,-4.5594,-4.5594,-4.5594,-4.5594,-4.5594,-4.5594,-4.5594,-4.5594,-4.5594,-4.5594,-4.5594,-4.5594,-4.5594,-4.5594,-4.5594,-4.5594,-4.5594,-4.5594,-4.5594,-4.5594,-4.5594,-4.5594,-4.5594,-4.5594,-4.5594,-4.5594,-4.5017,-4.4528,-4.4528,-4.3855,-4.3066,-4.2335,-4.1981,-4.1546,-4.0823,-4.0593,-4.0496,-4.0496,-4.0496,-4.0481,-4.0422,-4.0441,-4.0406,-4.0345,-4.0345,-4.0239,-4.0022,-4.0012,-3.9859,-3.9529,-3.9498,-3.9493,-3.9432,-3.9171,-3.9036,-3.904,-3.8803,-3.8707,-4.0764,-4.0957,-4.0791,-4.0343,-3.9556,-3.8521,-3.7193,-3.5907,-3.4583,-3.3239,-3.2624,-3.2447,-3.2833,-3.3237,-3.4077,-3.5808,-3.745,-3.9123,-4.0873,-4.2604,-4.3989,-4.4816,-4.5325,-4.5594,-4.5594,-4.5594,-4.5594,-4.5594,-4.5594,-4.5594,-4.5594,-4.5594,-4.5594,-4.5594,-4.5594,-4.5594,-4.5594,-4.5594,-4.5594,-4.5594,-4.5594,-4.5594,-4.5594,-4.5594,-4.5594,-4.5594,-4.5594,-4.5594,-4.5594,-4.5594,-4.5594,-4.5594,-4.5594,-4.5594,-4.5594,-4.5594,-4.5594,-4.5594,-4.5594,-4.5594,-4.5594,-4.5594,-4.5594,-4.5594,-4.5594,-4.5594,-4.5594,-4.5594,-4.5594,-4.5594,-4.5594,-4.5594,-4.5594,-4.5594,-4.5594,-4.5594,-4.5594,-4.5594,-4.5479,-4.5017,-4.4586,-4.4162,-4.3739,-4.2989,-4.2277,-4.1865,-4.1412,-4.0969,-4.0554,-4.0496,-4.0496,-4.0496,-4.0496,-4.0496,-4.0496,-4.0496,-4.0496,-4.0496,-4.0496,-4.0449,-4.0321,-4.0313,-4.0157,-3.987,-3.987,-3.9775,-3.9599,-3.9426,-3.9352,-3.9352,-3.9242,-3.9168,-4.0702,-4.0834,-4.06,-3.9917,-3.8798,-3.7494,-3.6069,-3.4656,-3.3261,-3.1844,-3.1261,-3.0993,-3.0921,-3.1201,-3.2152,-3.4334,-3.5673,-3.7334,-3.9881,-4.172,-4.3181,-4.4182,-4.5075,-4.5594,-4.5594,-4.5594,-4.5594,-4.5594,-4.5594,-4.5594,-4.5594,-4.5594,-4.5594,-4.5594,-4.5594,-4.5594,-4.5594,-4.5594,-4.5594,-4.5594,-4.5594,-4.5594,-4.5594,-4.5594,-4.5594,-4.5594,-4.5594,-4.5594,-4.5594,-4.5594,-4.5594,-4.5594,-4.5594,-4.5594,-4.5594,-4.5594,-4.5594,-4.5594,-4.5594,-4.5594,-4.5594,-4.5594,-4.5594,-4.5594,-4.5594,-4.5594,-4.5594,-4.5594,-4.5594,-4.5594,-4.5594,-4.5594,-4.5594,-4.5594,-4.5594,-4.5556,-4.5364,-4.5325,-4.5075,-4.4201,-4.3893,-4.3566,-4.2931,-4.2104,-4.1527,-4.1527,-4.0931,-4.0496,-4.0496,-4.0496,-4.0496,-4.0496,-4.0496,-4.0496,-4.0496,-4.0496,-4.0496,-4.0496,-4.0496,-4.0496,-4.0496,-4.0496,-4.0397,-4.0186,-4.0186,-4.0062,-3.98,-3.9735,-3.972,-3.972,-3.9634,-3.9599,-3.998,-4.0019,-3.998,-3.9902,-3.7998,-3.6097,-3.5916,-3.3334,-3.0915,-3.0733,-2.9502,-2.8427,-2.8356,-2.9573,-3.0926,-3.189,-3.4058,-3.65,-3.9053,-4.0854,-4.2508,-4.4105,-4.5075,-4.5594,-4.5594,-4.5594,-4.5594,-4.5594,-4.5594,-4.5594,-4.5594,-4.5594,-4.5594,-4.5594,-4.5594,-4.5594,-4.5594,-4.5594,-4.5594,-4.5594,-4.5594,-4.5594,-4.5594,-4.5594,-4.5594,-4.5594,-4.5594,-4.5594,-4.5594,-4.5594,-4.5594,-4.5594,-4.5594,-4.5594,-4.5594,-4.5594,-4.5594,-4.5594,-4.5594,-4.5594,-4.5594,-4.5594,-4.5594,-4.5594,-4.5594,-4.5594,-4.5594,-4.5594,-4.5594,-4.5594,-4.5594,-4.5594,-4.5594,-4.5594,-4.5594,-4.5383,-4.4586,-4.4412,-4.4182,-4.3374,-4.2566,-4.2,-4.1923,-4.12,-4.0631,-4.0631,-4.0554,-4.0496,-4.0496,-4.0496,-4.0496,-4.0496,-4.0496,-4.0496,-4.0496,-4.0496,-4.0496,-4.0496,-4.0496,-4.0496,-4.0496,-4.0496,-4.0489,-4.0465,-4.0465,-4.0457,-4.0414,-4.0157,-4.0042,-4.0061,-3.9742,-3.9599,-3.8965,-3.9121,-3.8867,-3.7812,-3.6756,-3.5424,-3.3353,-3.1804,-3.0324,-2.8718,-2.7835,-2.7368,-2.7291,-2.7791,-2.8818,-3.0684,-3.2632,-3.4814,-3.7373,-3.9623,-4.1643,-4.3374,-4.4316,-4.5017,-4.5556,-4.5594,-4.5594,-4.5594,-4.5594,-4.5594,-4.5594,-4.5594,-4.5594,-4.5594,-4.5594,-4.5594,-4.5594,-4.5594,-4.5594,-4.5594,-4.5594,-4.5594,-4.5594,-4.5594,-4.5594,-4.5594,-4.5594,-4.5594,-4.5594,-4.5594,-4.5594,-4.5594,-4.5594,-4.5594,-4.5594,-4.5594,-4.5594,-4.5594,-4.5594,-4.5594,-4.5594,-4.5594,-4.5648,-4.5708,-4.5618,-4.5594,-4.5594,-4.5594,-4.5594,-4.562,-4.57,-4.573,-4.573,-4.573,-4.5317,-4.4839,-4.4491,-4.4072,-4.3498,-4.2607,-4.2161,-4.1721,-4.1128,-4.0727,-4.0496,-4.0496,-4.0496,-4.0496,-4.0496,-4.0496,-4.0496,-4.0496,-4.0496,-4.0496,-4.0496,-4.0496,-4.0496,-4.0496,-4.0496,-4.0496,-4.0496,-4.0496,-4.0496,-4.0496,-4.0496,-4.0496,-4.0496,-4.0389,-4.0347,-4.0339,-4.0193,-4.0148,-3.7285,-3.7441,-3.7148,-3.5918,-3.5059,-3.3867,-3.1445,-3.0293,-2.9218,-2.7316,-2.6727,-2.6522,-2.6453,-2.6598,-2.7478,-2.9745,-3.1472,-3.343,-3.5981,-3.8546,-4.0785,-4.2508,-4.3643,-4.4643,-4.5518,-4.5594,-4.5594,-4.5594,-4.5594,-4.5594,-4.5594,-4.5594,-4.5594,-4.5594,-4.5594,-4.5594,-4.5594,-4.5594,-4.5594,-4.5594,-4.5594,-4.5594,-4.5594,-4.5594,-4.5594,-4.5594,-4.5594,-4.5594,-4.5594,-4.5594,-4.5594,-4.5594,-4.5594,-4.5594,-4.5594,-4.5594,-4.5594,-4.5594,-4.5594,-4.5594,-4.5603,-4.5651,-4.5711,-4.579,-4.5713,-4.5684,-4.5684,-4.5684,-4.5684,-4.572,-4.5802,-4.5832,-4.5774,-4.5541,-4.5006,-4.4418,-4.3895,-4.3389,-4.2738,-4.1811,-4.1627,-4.1384,-4.0623,-4.0496,-4.0496,-4.0496,-4.0496,-4.0496,-4.0496,-4.0496,-4.0496,-4.0496,-4.0496,-4.0496,-4.0496,-4.0496,-4.0496,-4.0496,-4.0496,-4.0496,-4.0496,-4.0496,-4.0496,-4.0496,-4.0496,-4.0496,-4.0496,-4.0496,-4.0496,-4.0496,-4.0496,-4.0496,-3.4746,-3.4746,-3.4746,-3.4726,-3.2812,-3.0937,-3.0918,-2.8906,-2.7031,-2.6992,-2.6309,-2.5683,-2.5626,-2.626,-2.7333,-2.8945,-3.0623,-3.2602,-3.5154,-3.7719,-3.9931,-4.1615,-4.3297,-4.4643,-4.5518,-4.5594,-4.5594,-4.5594,-4.5594,-4.5594,-4.5594,-4.5594,-4.5594,-4.5594,-4.5594,-4.5594,-4.5594,-4.5594,-4.5594,-4.5594,-4.5594,-4.5594,-4.5594,-4.5594,-4.5594,-4.5594,-4.5594,-4.5594,-4.5594,-4.5594,-4.5594,-4.5594,-4.5594,-4.5594,-4.5594,-4.5594,-4.5594,-4.5594,-4.5594,-4.5594,-4.561,-4.5761,-4.5796,-4.5809,-4.5881,-4.5894,-4.5894,-4.5894,-4.5894,-4.5899,-4.5899,-4.5899,-4.5704,-4.4898,-4.4703,-4.4236,-4.2501,-4.2112,-4.1848,-4.0901,-4.0717,-4.0668,-4.0527,-4.0496,-4.0496,-4.0496,-4.0496,-4.0496,-4.0496,-4.0496,-4.0496,-4.0496,-4.0496,-4.0496,-4.0496,-4.0496,-4.0496,-4.0496,-4.0496,-4.0496,-4.0496,-4.0496,-4.0496,-4.0496,-4.0496,-4.0496,-4.0496,-4.0496,-4.0496,-4.0496,-4.0496,-4.0496,-3.2832,-3.3398,-3.3535,-3.2383,-3.1504,-3.043,-2.8633,-2.7598,-2.6836,-2.623,-2.5898,-2.5683,-2.5662,-2.5839,-2.6515,-2.8188,-2.9816,-3.1739,-3.425,-3.6796,-3.9258,-4.1519,-4.3816,-4.5306,-4.5575,-4.5594,-4.5594,-4.5594,-4.5594,-4.5594,-4.5594,-4.5594,-4.5594,-4.5594,-4.5594,-4.5594,-4.5594,-4.5594,-4.5594,-4.5594,-4.5594,-4.5594,-4.5594,-4.5594,-4.5594,-4.5594,-4.5594,-4.5594,-4.5594,-4.5594,-4.5594,-4.5594,-4.5594,-4.5594,-4.5612,-4.57,-4.5733,-4.5735,-4.5795,-4.5811,-4.5817,-4.5846,-4.5938,-4.6004,-4.603,-4.5978,-4.5899,-4.5899,-4.5974,-4.59,-4.5295,-4.5159,-4.4941,-4.4139,-4.3496,-4.2908,-4.2362,-4.1833,-4.1378,-4.0983,-4.0909,-4.0859,-4.0674,-4.0643,-4.0603,-4.0519,-4.0496,-4.0496,-4.0496,-4.0496,-4.0496,-4.0496,-4.0496,-4.0496,-4.0496,-4.0496,-4.0496,-4.0496,-4.0496,-4.0496,-4.0496,-4.0496,-4.0496,-4.0496,-4.0496,-4.0496,-4.0496,-4.0496,-4.0496,-4.0496,-4.0496,-4.0496,-3.0488,-3.1094,-3.123,-3.0176,-2.9668,-2.9004,-2.7363,-2.6758,-2.6367,-2.5801,-2.5703,-2.5703,-2.5703,-2.5657,-2.6157,-2.7855,-2.9461,-3.126,-3.3444,-3.6195,-3.9065,-4.195,-4.3951,-4.5248,-4.5575,-4.5594,-4.5594,-4.5594,-4.5594,-4.5594,-4.5594,-4.5594,-4.5594,-4.5594,-4.5594,-4.5594,-4.5594,-4.5594,-4.5594,-4.5594,-4.5594,-4.5594,-4.5594,-4.5594,-4.5594,-4.5594,-4.5594,-4.5618,0.0,-4.5629,-4.5637,-4.5708,-4.5692,-4.5688,-4.5729,-4.5814,-4.5836,-4.5847,-4.5896,-4.5899,-4.5907,-4.5967,-4.6075,-4.6174,-4.6174,-4.6117,-4.6045,-4.6045,-4.5878,-4.5569,-4.5022,-4.463,-4.4181,-4.3342,-4.2735,-4.2247,-4.1954,-4.1519,-4.1151,-4.1025,-4.0996,-4.0944,-4.0762,-4.0718,-4.0667,-4.0602,-4.0523,-4.0496,-4.0496,-4.0496,-4.0496,-4.0496,-4.0227,-4.0054,-4.0054,-4.0323,-4.0362,-4.0073,-4.0054,-3.99,-3.9573,-3.9554,-3.9554,-3.9554,-3.9554,-3.9554,-3.9554,-3.9554,-3.9554,-3.9554,-3.9554,-3.9554,0.0,-2.8203,-2.8281,-2.8223,-2.7598,-2.6973,-2.6914,-2.6289,0.0,-2.5703,-2.5703,-2.5703,-2.5703,-2.5697,-2.6247,-2.792,-2.9554,-3.1191,-3.2861,-3.608,-3.9469,-4.272,-4.3855,-4.4701,-4.5518,-4.5594,-4.5594,-4.5594,-4.5594,-4.5594,-4.5594,-4.5594,-4.5594,-4.5594,-4.5594,-4.5594,-4.5594,-4.5594,-4.5594,-4.5594,-4.5594,-4.5594,-4.5594,-4.5594,-4.5594,-4.5594,-4.5612,-4.5677,-4.579,-4.568,-4.5731,-4.589,-4.5838,-4.5853,-4.5903,-4.5907,-4.5912,-4.5912,-4.592,-4.5924,-4.594,-4.6077,-4.62,-4.6289,-4.623,-4.625,-4.6289,-4.6211,-4.5625,-4.4961,-4.4844,-4.4219,-4.3398,-4.2519,-4.2305,-4.2109,-4.1367,-4.1191,-4.1151,-4.1049,-4.1002,-4.0964,-4.0847,-4.0757,-4.0726,-4.0715,-4.0596,-4.0519,-4.0519,-4.0466,-4.0419,-4.0419,-3.9688,-3.9207,-3.9207,-3.99,-3.9996,-3.9246,-3.9207,-3.8834,-3.8027,-3.8007,-3.8007,-3.8007,-3.8007,-3.8007,-3.8007,-3.8007,-3.8007,-3.8007,-3.8007,-3.8007,-2.6269,0.0,-2.8144,-2.7461,-2.7148,-2.6836,0.0,-2.5859,-2.5703,-2.5703,-2.5703,-2.5703,-2.5703,-2.623,-2.7007,-2.8021,-3.0141,-3.2204,-3.3776,-3.7983,-4.145,-4.2931,-4.4393,-4.5364,-4.5575,-4.5594,-4.5594,-4.5594,-4.5594,-4.5594,-4.5594,-4.5594,-4.5594,-4.5594,-4.5594,-4.5594,-4.5594,-4.5594,-4.5594,-4.5594,-4.5594,-4.5594,-4.5594,-4.5594,-4.5594,-4.5603,-4.5708,-4.5763,-4.5809,-4.5817,-4.5867,-4.5899,-4.5886,-4.5896,-4.5912,-4.6024,-4.6047,-4.6075,-4.6173,-4.6201,-4.6202,-4.6247,-4.6269,-4.6172,-4.5508,-4.5762,-4.6152,-4.5488,-4.5156,-4.4687,-4.3359,-4.2851,-4.25,-4.168,-4.1484,-4.1426,-4.123,-4.1191,-4.1191,-4.1151,-4.115,-4.1105,-4.0986,-4.0942,-4.089,-4.0792,-4.0704,-4.0642,-4.0642,-4.0027,-3.9573,-3.9573,-3.8815,-3.8315,-3.8315,-3.8469,-3.8507,-3.8315,-3.8315,-3.82,-3.8007,-3.8007,-3.8007,-3.8007,-3.8007,-3.8007,-3.8007,-3.8007,-3.8007,-3.8007,-3.8007,-3.8007,-2.5703,-2.6387,-2.6992,-2.6523,-2.6406,-2.6289,-2.5801,-2.5703,-2.5703,-2.5703,-2.5703,-2.582,-2.6211,-2.668,-2.7539,-2.9173,-3.1227,-3.3548,-3.6256,-3.9269,-4.1681,-4.2951,-4.422,-4.5171,-4.5556,-4.5594,-4.5594,-4.5594,-4.5594,-4.5594,-4.5594,-4.5594,-4.5594,-4.5594,-4.5594,-4.5594,-4.5594,-4.5594,-4.5594,-4.5594,-4.5657,-4.5685,-4.5685,-4.5722,-4.5737,-4.5744,-4.5813,-4.589,-4.5944,-4.5914,-4.5978,-4.608,-4.6024,-4.6033,-4.6087,-4.6171,-4.6199,-4.6201,-4.6269,-4.6308,-4.623,-4.582,-4.5703,-4.5547,-4.4668,-4.4726,-4.5019,-4.4531,-4.4121,-4.3594,-4.2637,-4.2129,-4.1738,-4.1308,-4.1191,-4.1191,-4.1191,-4.1191,-4.1191,-4.1191,-4.1191,-4.1171,-4.1104,-4.1049,-4.0986,-4.0908,-4.082,-4.0581,-4.0153,-3.9663,-3.9173,-3.8753,-3.7911,-3.7411,-3.7411,-3.7065,-3.7007,-3.7373,-3.7411,-3.7238,-3.6873,-3.6853,-3.6853,-3.6853,-3.6853,-3.6853,-3.6853,-3.6853,-3.6853,-3.6853,-3.6853,-3.6853,-2.5664,-2.5703,-2.5703,-2.5703,-2.5703,-2.5703,-2.5703,-2.5703,-2.5703,-2.5703,-2.5801,-2.6113,-2.6855,-2.7324,-2.832,-3.0547,-3.2584,-3.5173,-3.8913,-4.0295,-4.1451,-4.294,-4.3932,-4.4778,-4.5537,-4.5594,-4.5594,-4.5594,-4.5594,-4.5612,-4.5627,-4.5627,-4.5643,-4.5657,-4.5657,-4.5657,-4.5657,-4.5643,-4.5627,-4.5627,-4.5756,-4.5821,-4.5821,-4.5872,-4.5899,-4.5903,-4.592,-4.5992,-4.6087,-4.5995,-4.6087,-4.6289,-4.6174,-4.62,-4.6308,-4.6308,-4.6308,-4.6289,-4.6152,-4.6016,-4.5781,-4.5039,-4.4805,-4.4648,-4.3769,-4.3496,-4.3476,-4.3359,-4.2871,-4.2363,-4.2246,-4.1719,-4.1191,-4.1191,-4.1191,-4.1191,-4.1191,-4.1191,-4.1191,-4.1191,-4.1191,-4.1191,-4.1191,-4.1104,-4.1026,-4.1026,-4.08,-4.0346,-3.9549,-3.9208,-3.8736,-3.7932,-3.7064,-3.6543,-3.6543,-3.5926,-3.5811,-3.6505,-3.6535,-3.6212,-3.5538,-3.55,-3.55,-3.55,-3.55,-3.55,-3.55,-3.55,-3.55,-3.55,-3.55,-3.55,-2.5508,-2.5703,-2.5703,-2.5703,-2.5703,-2.5703,-2.5703,-2.5703,-2.5703,-2.5703,-2.6289,-2.6836,-2.6973,-2.8809,-3.043,-3.082,-3.4067,-3.7237,-3.9284,-4.1427,-4.2864,-4.3071,-4.4451,-4.546,-4.5594,-4.5594,-4.5594,-4.5594,-4.5594,-4.566,-4.5749,-4.5775,-4.5809,-4.5857,-4.5842,-4.5842,-4.5842,-4.5796,-4.5775,-4.5763,-4.5845,-4.5872,-4.5891,-4.589,-4.5899,-4.5907,-4.6027,-4.608,-4.6113,-4.62,-4.6268,-4.6308,-4.6289,-4.6289,-4.6308,-4.6308,-4.6308,-4.6191,-4.5469,-4.4726,-4.4082,-4.3945,-4.3906,-4.373,-4.2851,-4.2598,-4.2461,-4.1777,-4.1973,-4.2246,-4.1562,-4.1289,-4.1191,-4.1191,-4.1191,-4.1191,-4.1191,-4.1191,-4.1191,-4.1191,-4.1191,-4.1191,-4.1191,-4.1172,-4.1171,-4.1171,-4.0427,-3.9826,-3.966,-3.8316,-3.7304,-3.7171,-3.6374,-3.5854,-3.5854,-3.5737,-3.5718,-3.5854,-3.5755,-3.5635,-3.5519,-3.55,-3.55,-3.55,-3.55,-3.55,-3.55,-3.55,-3.55,-3.55,-3.55,-3.55,-2.5469,-2.5703,-2.5703,-2.5703,-2.5703,-2.582,-2.6309,-2.6406,-2.6543,-2.7012,-2.7422,-2.7988,-2.8926,-3.0098,-3.166,-3.3984,-3.6685,-3.9109,-4.0819,-4.2287,-4.3389,-4.3904,-4.4924,-4.5648,-4.5745,-4.5735,-4.5708,-4.5708,-4.575,-4.5777,-4.5803,-4.5825,-4.5881,-4.5899,-4.5899,-4.5899,-4.5899,-4.5951,-4.592,-4.585,-4.5955,-4.6001,-4.6001,-4.6082,-4.6115,-4.6117,-4.6175,-4.6202,-4.6203,-4.6269,-4.6308,-4.625,-4.5781,-4.5605,-4.5547,-4.5078,-4.4902,-4.4844,-4.4433,-4.4043,-4.3613,-4.3144,-4.3008,-4.2832,-4.1992,-4.1758,-4.168,-4.1308,-4.1465,-4.168,-4.1308,-4.1191,-4.1191,-4.1191,-4.1191,-4.1191,-4.1191,-4.1191,-4.1191,-4.1191,-4.1191,-4.1191,-4.1191,-4.1191,-4.1035,-4.0566,-4.0095,-3.9459,-3.8461,-3.7617,-3.6902,-3.6368,-3.5937,-3.5707,-3.5707,-3.5707,-3.5707,-3.5707,-3.5633,-3.5606,-3.5606,-3.5606,-3.5606,-3.5606,-3.5606,-3.5606,-3.5606,-3.5606,-3.5606,-3.5606,-3.5606,-3.5606,-2.541,-2.5703,-2.5742,-2.5957,-2.5996,-2.6172,-2.6855,-2.7168,-2.7559,-2.8418,-2.8769,-2.9375,-3.0918,-3.1699,-3.3379,-3.7285,-3.8938,-4.0343,-4.2054,-4.2876,-4.3641,-4.4595,-4.5266,-4.5724,-4.5881,-4.585,-4.582,-4.582,-4.5867,-4.5891,-4.5878,-4.5914,-4.5971,-4.5992,-4.5992,-4.5992,-4.5992,-4.6106,-4.608,-4.5959,-4.6082,-4.6147,-4.6147,-4.6248,-4.6308,-4.6308,-4.6308,-4.6172,-4.5996,-4.5996,-4.5879,-4.5625,-4.4961,-4.4707,-4.4609,-4.3945,-4.3574,-4.3398,-4.3398,-4.3262,-4.3008,-4.2344,-4.2129,-4.1992,-4.1387,-4.1191,-4.1191,-4.1191,-4.1191,-4.1191,-4.1191,-4.1191,-4.1191,-4.1191,-4.1191,-4.1191,-4.1191,-4.1191,-4.1191,-4.1191,-4.1191,-4.1191,-4.1191,-4.1035,-4.0664,-4.0,-3.9551,-3.8788,-3.7406,-3.705,-3.6629,-3.5844,-3.576,-3.576,-3.576,-3.576,-3.576,-3.576,-3.5729,-3.5707,-3.5707,-3.5707,-3.5707,-3.5707,-3.5707,-3.5707,-3.5707,-3.5707,-3.5707,-3.5707,-3.5707,-3.5707,-2.5234,-2.5703,-2.5898,-2.6699,-2.6914,-2.6914,-2.6992,-2.7637,-2.8457,-2.9336,-3.0156,-3.0996,-3.1934,-3.4043,-3.6523,-3.9277,-3.9804,-4.0446,-4.2077,-4.3036,-4.3847,-4.4616,-4.5404,-4.5881,-4.5899,-4.5894,-4.5885,-4.5885,-4.5894,-4.594,-4.6072,-4.608,-4.6145,-4.6268,-4.6268,-4.6268,-4.6268,-4.6289,-4.6223,-4.6084,-4.6223,-4.6289,-4.6289,-4.6308,-4.6308,-4.6308,-4.6308,-4.584,-4.5098,-4.5098,-4.4629,-4.3887,-4.3828,-4.3789,-4.3789,-4.3711,-4.3183,-4.248,-4.248,-4.1992,-4.1367,-4.1308,-4.1289,-4.1289,-4.1211,-4.1191,-4.1191,-4.1191,-4.1191,-4.1191,-4.1191,-4.1191,-4.1191,-4.1191,-4.1191,-4.1191,-4.1191,-4.1191,-4.1191,-4.1191,-4.1191,-4.1191,-4.1191,-4.0527,-3.9961,-3.9902,-3.8516,-3.7441,-3.7304,-3.6582,-3.6054,-3.5995,-3.5976,-3.5976,-3.5976,-3.5976,-3.5976,-3.5976,-3.5802,-3.5707,-3.5707,-3.5707,-3.5707,-3.5707,-3.5707,-3.5707,-3.5707,-3.5707,-3.5707,-3.5707,-3.5707,-3.5707,-2.5234,-2.6094,-2.6582,-2.6914,-2.8223,-2.9434,-2.9434,-2.9687,-3.0312,-3.168,-3.2656,-3.3691,-3.5117,-3.7031,-3.875,-3.9746,-4.0351,-4.1289,-4.2945,-4.3414,-4.412,-4.5522,-4.5823,-4.5971,-4.6122,-4.6077,-4.6011,-4.6011,-4.611,-4.6122,-4.611,-4.6175,-4.6247,-4.6308,-4.6308,-4.6308,-4.6308,-4.6308,-4.6269,-4.6224,-4.6288,-4.6308,-4.6308,-4.6308,-4.5996,-4.5488,-4.5488,-4.5,-4.4199,-4.4199,-4.4004,-4.3652,-4.3105,-4.2598,-4.2148,-4.2148,-4.1933,-4.1641,-4.1641,-4.1445,-4.1191,-4.1191,-4.1191,-4.1191,-4.1191,-4.1191,-4.1191,-4.1191,-4.1191,-4.1191,-4.1191,-4.1191,-4.1191,-4.1191,-4.1191,-4.1191,-4.1191,-4.1191,-4.1191,-4.1191,-4.1191,-4.1035,-4.0488,-4.0117,-3.9531,-3.8457,-3.7715,-3.7109,-3.6562,-3.6191,-3.5996,-3.5996,-3.5996,-3.5996,-3.5996,-3.5996,-3.5996,-3.5996,-3.593,-3.5899,-3.5899,-3.5899,-3.5899,-3.5899,-3.5899,-3.5899,-3.5899,-3.5899,-3.5899,-3.5899,-3.5899,-3.5899,-2.5234,-2.6348,-2.707,-2.7344,-2.918,-3.1035,-3.1562,-3.1894,-3.25,-3.3926,-3.5137,-3.6387,-3.7851,-3.9101,-3.998,-4.0273,-4.0801,-4.1797,-4.3457,-4.3664,-4.4305,-4.6094,-4.6144,-4.6108,-4.6289,-4.6223,-4.6152,-4.6152,-4.6247,-4.6268,-4.6173,-4.6247,-4.6308,-4.6308,-4.6308,-4.6308,-4.6308,-4.6308,-4.6152,-4.5898,-4.5898,-4.5898,-4.5898,-4.5898,-4.541,-4.459,-4.459,-4.4101,-4.3281,-4.3281,-4.3144,-4.2851,-4.2246,-4.168,-4.1191,-4.1191,-4.1191,-4.1191,-4.1191,-4.1191,-4.1191,-4.1191,-4.1191,-4.1191,-4.1191,-4.1191,-4.1191,-4.1191,-4.1191,-4.1191,-4.1191,-4.1191,-4.1191,-4.1191,-4.1191,-4.1191,-4.1191,-4.1191,-4.1191,-4.1191,-4.0976,-4.0605,-4.0,-3.9434,-3.8672,-3.748,-3.707,-3.668,-3.6074,-3.5996,-3.5996,-3.5996,-3.5996,-3.5996,-3.5996,-3.5996,-3.5996,-3.5996,-3.5996,-3.5996,-3.5996,-3.5996,-3.5996,-3.5996,-3.5996,-3.5996,-3.5996,-3.5996,-3.5996,-3.5996,-3.5996,-3.5996,-2.5234,-2.6348,-2.7226,-2.8086,-2.9629,-3.1367,-3.3047,-3.4082,-3.4961,-3.5859,-3.7402,-3.8887,-3.9746,-3.9902,-4.0195,-4.1055,-4.1191,-4.1777,-4.3457,-4.3691,-4.4336,-4.6074,-4.6289,-4.6308,-4.6308,-4.6308,-4.6308,-4.6308,-4.6308,-4.6308,-4.6308,-4.6308,-4.6308,-4.6308,-4.6308,-4.6308,-4.6289,-4.6289,-4.5859,-4.498,-4.498,-4.498,-4.498,-4.498,-4.4512,-4.3691,-4.3691,-4.3183,-4.2383,-4.2383,-4.1914,-4.1191,-4.1191,-4.1191,-4.1191,-4.1191,-4.1191,-4.1191,-4.1191,-4.1191,-4.1191,-4.1191,-4.1191,-4.1191,-4.1191,-4.1191,-4.1191,-4.1191,-4.1191,-4.1191,-4.1191,-4.1191,-4.1191,-4.1191,-4.1191,-4.1191,-4.1191,-4.1191,-4.1191,-4.1191,-4.0488,-3.9883,-3.9883,-3.8437,-3.7305,-3.7285,-3.6543,-3.5996,-3.5996,-3.5996,-3.5996,-3.5996,-3.5996,-3.5996,-3.5996,-3.5996,-3.5996,-3.5996,-3.5996,-3.5996,-3.5996,-3.5996,-3.5996,-3.5996,-3.5996,-3.5996,-3.5996,-3.5996,-3.5996,-3.5996,-3.5996,-3.5996,-2.5234,-2.6777,-2.8125,-2.9004,-3.0957,-3.3105,-3.4844,-3.543,-3.6211,-3.8301,-3.9141,-3.9785,-4.0644,-4.0801,-4.0898,-4.1152,-4.1191,-4.1562,-4.2637,-4.3301,-4.4121,-4.5254,-4.5937,-4.6308,-4.6308,-4.6308,-4.6308,-4.6308,-4.6308,-4.6308,-4.6308,-4.6308,-4.6308,-4.6308,-4.6308,-4.6016,-4.5391,-4.5391,-4.4941,-4.4082,-4.4082,-4.4082,-4.4082,-4.4082,-4.3613,-4.2793,-4.2793,-4.2324,-4.1562,-4.1562,-4.1426,-4.1191,-4.1191,-4.1191,-4.1191,-4.1191,-4.1191,-4.1191,-4.1191,-4.1191,-4.1191,-4.1191,-4.1191,-4.1191,-4.1191,-4.1191,-4.1191,-4.1191,-4.1191,-4.1191,-4.1191,-4.1191,-4.1191,-4.1191,-4.1191,-4.1191,-4.1191,-4.0723,-4.0293,-4.0293,-3.957,-3.8789,-3.8184,-3.7637,-3.709,-3.6484,-3.6172,-3.5996,-3.5996,-3.5996,-3.5996,-3.5996,-3.5996,-3.5996,-3.5996,-3.5996,-3.5996,-3.5996,-3.5996,-3.5996,-3.5996,-3.5996,-3.5996,-3.5996,-3.5996,-3.5996,-3.5996,-3.5996,-3.5996,-3.5996,-3.5996,-3.5996,-2.5234,-2.6973,-2.8516,-2.9375,-3.1523,-3.4043,-3.6484,-3.7305,-3.8086,-4.0019,-4.043,-4.0586,-4.1094,-4.1191,-4.1191,-4.1191,-4.1191,-4.1484,-4.2285,-4.2851,-4.3516,-4.4375,-4.5254,-4.5781,-4.5781,-4.6094,-4.6308,-4.6308,-4.6308,-4.6308,-4.6308,-4.6308,-4.6133,-4.5781,-4.5781,-4.5371,-4.4492,-4.4473,-4.4043,-4.3183,-4.3183,-4.3027,-4.2715,-4.3047,-4.2715,-4.1914,-4.1914,-4.1641,-4.1191,-4.1191,-4.1191,-4.1191,-4.1191,-4.1191,-4.1191,-4.1191,-4.1191,-4.1191,-4.1191,-4.1191,-4.1191,-4.1191,-4.1191,-4.1191,-4.1191,-4.1191,-4.1191,-4.1191,-4.1191,-4.1191,-4.1191,-4.1191,-4.1191,-4.1191,-4.1191,-4.1113,-4.0762,-4.0273,-3.9805,-3.9453,-3.8672,-3.793,-3.7383,-3.7012,-3.6601,-3.6074,-3.5996,-3.5996,-3.5996,-3.5996,-3.5996,-3.5996,-3.5996,-3.5996,-3.5996,-3.5996,-3.5996,-3.5996,-3.5996,-3.5996,-3.5996,-3.5996,-3.5996,-3.5996,-3.5996,-3.5996,-3.5996,-3.5996,-3.5996,-3.5996,-3.5996,-3.5996,-2.5234,-2.6973,-2.8535,-2.9473,-3.1816,-3.4707,-3.7871,-3.9336,-4.0234,-4.1035,-4.1191,-4.1191,-4.1191,-4.1191,-4.1191,-4.1191,-4.1191,-4.1465,-4.2187,-4.2344,-4.2695,-4.3496,-4.4355,-4.4883,-4.4883,-4.5605,-4.6055,-4.6055,-4.6055,-4.6055,-4.6055,-4.6055,-4.5703,-4.4902,-4.4883,-4.4453,-4.3594,-4.3574,-4.3144,-4.2285,-4.2285,-4.1914,-4.1211,-4.1953,-4.1894,-4.1191,-4.1191,-4.1191,-4.1191,-4.1191,-4.1191,-4.1191,-4.1191,-4.1191,-4.1191,-4.1191,-4.1191,-4.1191,-4.1191,-4.1191,-4.1191,-4.1191,-4.1191,-4.1191,-4.1191,-4.1191,-4.1191,-4.1191,-4.1191,-4.1172,-4.1094,-4.1074,-4.1055,-4.0976,-4.1016,-4.084,-3.9961,-3.9726,-3.9434,-3.8633,-3.7773,-3.7187,-3.7187,-3.6523,-3.5996,-3.5996,-3.5996,-3.5996,-3.5996,-3.5996,-3.5996,-3.5996,-3.5996,-3.5996,-3.5996,-3.5996,-3.5996,-3.5996,-3.5996,-3.5996,-3.5996,-3.5996,-3.5996,-3.5996,-3.5996,-3.5996,-3.5996,-3.5996,-3.5996,-3.5996,-3.5996,-3.5996,-2.5234,-2.6973,-2.8672,-3.0234,-3.4082,-3.7676,-3.8437,-3.9805,-4.0976,-4.1152,-4.1191,-4.1191,-4.1191,-4.1191,-4.1191,-4.1191,-4.1191,-4.1269,-4.1426,-4.1992,-4.2461,-4.2656,-4.3457,-4.3984,-4.3984,-4.4141,-4.4258,-4.4258,-4.4258,-4.4258,-4.4258,-4.4258,-4.418,-4.3984,-4.3984,-4.3555,-4.2695,-4.2676,-4.2266,-4.1465,-4.1465,-4.1367,-4.1211,-4.1387,-4.1367,-4.1191,-4.1191,-4.1191,-4.1191,-4.1191,-4.1191,-4.1191,-4.1191,-4.1191,-4.1191,-4.1191,-4.1191,-4.1191,-4.1191,-4.1191,-4.1191,-4.1191,-4.1191,-4.1191,-4.1191,-4.1191,-4.1191,-4.1191,-4.1191,-4.1035,-4.0351,-4.0176,-4.0019,-3.9316,-3.9687,-3.9941,-3.9062,-3.834,-3.7793,-3.7617,-3.6875,-3.6289,-3.6289,-3.6113,-3.5996,-3.5996,-3.5996,-3.5996,-3.5996,-3.5996,-3.5996,-3.5996,-3.5996,-3.5996,-3.5996,-3.5996,-3.5996,-3.5996,-3.5996,-3.5996,-3.5996,-3.5996,-3.5996,-3.5996,-3.5996,-3.5996,-3.5996,-3.5996,-3.5996,-3.5996,-3.5996,-3.5996,-2.4609,-2.6641,-2.8906,-3.1465,-3.5059,-3.8086,-3.8496,-3.9941,-4.1191,-4.1191,-4.1191,-4.1191,-4.1191,-4.1191,-4.1191,-4.1191,-4.1191,-4.1191,-4.1191,-4.1562,-4.1836,-4.1836,-4.2578,-4.3086,-4.3086,-4.3457,-4.3691,-4.3691,-4.3691,-4.3691,-4.3691,-4.3691,-4.3516,-4.3086,-4.3086,-4.2676,-4.1836,-4.1836,-4.1601,-4.1191,-4.1191,-4.1191,-4.1191,-4.1191,-4.1191,-4.1191,-4.1191,-4.1191,-4.1191,-4.1191,-4.1191,-4.1191,-4.1191,-4.1191,-4.1191,-4.1191,-4.1191,-4.1191,-4.1191,-4.1191,-4.1191,-4.1191,-4.1191,-4.1191,-4.1191,-4.1191,-4.1113,-4.0703,-4.0586,-4.0371,-3.9492,-3.9236,-3.8977,-3.8137,-3.8611,-3.9043,-3.8164,-3.7617,-3.7187,-3.6758,-3.6309,-3.5996,-3.5996,-3.5996,-3.5996,-3.5996,-3.5996,-3.5996,-3.5996,-3.5996,-3.5996,-3.5996,-3.5996,-3.5996,-3.5996,-3.5996,-3.5996,-3.5996,-3.5996,-3.5996,-3.5996,-3.5996,-3.5996,-3.5996,-3.5996,-3.5996,-3.5996,-3.5996,-3.5996,-3.5996,-3.5996,-3.5996,-2.3906,-2.6426,-2.9277,-3.2402,-3.5156,-3.7305,-3.8184,-3.9726,-4.0976,-4.0976,-4.1094,-4.1191,-4.1191,-4.1191,-4.1191,-4.1191,-4.1191,-4.1191,-4.1191,-4.1191,-4.1191,-4.1191,-4.1797,-4.2187,-4.2187,-4.2851,-4.3262,-4.3262,-4.3262,-4.3262,-4.3262,-4.3262,-4.2949,-4.2226,-4.2187,-4.1875,-4.1211,-4.1191,-4.1191,-4.1191,-4.1191,-4.1191,-4.1191,-4.1191,-4.1191,-4.1191,-4.1191,-4.1191,-4.1191,-4.1191,-4.1191,-4.1191,-4.1191,-4.1191,-4.1191,-4.1191,-4.1191,-4.1191,-4.1191,-4.1191,-4.1191,-4.1191,-4.1191,-4.1172,-4.1016,-4.0976,-4.0781,-3.9922,-3.9668,-3.9433,-3.8573,-3.8267,-3.7942,-3.7141,-3.752,-3.7907,-3.7206,-3.7069,-3.6855,-3.6133,-3.5996,-3.5996,-3.5996,-3.5996,-3.5996,-3.5996,-3.5996,-3.5996,-3.5996,-3.5996,-3.5996,-3.5996,-3.5996,-3.5996,-3.5996,-3.5996,-3.5996,-3.5996,-3.5996,-3.5996,-3.5996,-3.5995,-3.5995,-3.5996,-3.5996,-3.5996,-3.5996,-3.5996,-3.5996,-3.5996,-3.5995,-3.5995,-2.373,-2.6855,-2.9902,-3.1875,-3.4277,-3.6406,-3.7266,-3.8828,-4.0078,-4.0078,-4.0664,-4.1191,-4.1191,-4.1191,-4.1191,-4.1191,-4.1191,-4.1191,-4.1191,-4.1191,-4.1191,-4.1191,-4.1289,-4.1367,-4.1367,-4.1465,-4.1523,-4.1523,-4.1523,-4.1523,-4.1523,-4.1523,-4.1484,-4.1367,-4.1367,-4.1308,-4.1191,-4.1191,-4.1191,-4.1191,-4.1191,-4.1191,-4.1191,-4.1191,-4.1191,-4.1191,-4.1191,-4.1191,-4.1191,-4.1191,-4.1191,-4.1191,-4.1191,-4.1191,-4.1191,-4.1191,-4.1191,-4.1191,-4.1191,-4.1191,-4.1191,-4.1191,-4.1191,-4.1055,-4.0293,-4.0078,-3.9883,-3.9023,-3.8685,-3.8413,-3.7591,-3.7281,-3.6975,-3.6116,-3.6005,-3.6089,-3.6098,-3.6087,-3.6077,-3.6015,-3.5996,-3.5996,-3.5996,-3.5996,-3.5996,-3.5996,-3.5996,-3.5996,-3.5996,-3.5996,-3.5996,-3.5996,-3.5996,-3.5996,-3.5996,-3.5996,-3.5996,-3.5996,-3.5996,-3.5996,-3.5996,-3.5946,-3.5945,-3.5996,-3.5996,-3.5996,-3.5996,-3.5996,-3.5996,-3.5996,-3.5945,-3.5946,-2.3437,-2.5879,-2.8066,-3.0781,-3.3027,-3.4902,-3.6269,-3.793,-3.9316,-3.9805,-4.0195,-4.0625,-4.1113,-4.1191,-4.1191,-4.1191,-4.1191,-4.1191,-4.1191,-4.1191,-4.1191,-4.1191,-4.1191,-4.1191,-4.1191,-4.1191,-4.1191,-4.1191,-4.1191,-4.1191,-4.1191,-4.1191,-4.1191,-4.1191,-4.1191,-4.1191,-4.1191,-4.1191,-4.1191,-4.1191,-4.1191,-4.1151,-4.1081,-4.1081,-4.1128,-4.1191,-4.1191,-4.1191,-4.1191,-4.1191,-4.1191,-4.1191,-4.1191,-4.1191,-4.1191,-4.1191,-4.1191,-4.1191,-4.1191,-4.1191,-4.1113,-4.0625,-4.0469,-4.0312,-3.9434,-3.918,-3.8984,-3.8079,-3.7773,-3.7519,-3.6609,-3.6284,-3.6127,-3.5735,-3.5621,-3.5601,-3.5702,-3.5765,-3.5814,-3.5921,-3.5946,-3.597,-3.5996,-3.5996,-3.5996,-3.5996,-3.5996,-3.5996,-3.5996,-3.5996,-3.5996,-3.5996,-3.5996,-3.5996,-3.5996,-3.5996,-3.5996,-3.5996,-3.5953,-3.5946,-3.5946,-3.5849,-3.579,-3.5836,-3.5918,-3.5952,-3.5996,-3.5952,-3.5946,-3.5946,-3.5845,-3.5792,-2.2441,-2.4375,-2.6094,-2.9141,-3.1348,-3.3164,-3.4687,-3.6543,-3.8125,-3.8769,-3.9434,-4.0098,-4.0742,-4.1055,-4.1191,-4.1191,-4.1191,-4.1191,-4.1191,-4.1191,-4.1191,-4.1191,-4.1191,-4.1191,-4.1191,-4.1191,-4.1191,-4.1191,-4.1191,-4.1191,-4.1191,-4.1191,-4.1191,-4.1191,-4.1191,-4.1191,-4.1191,-4.1171,-4.115,-4.115,-4.1106,-4.1051,-4.0955,-4.0955,-4.0998,-4.1103,-4.1103,-4.1103,-4.1103,-4.1103,-4.1126,-4.115,-4.115,-4.1171,-4.1191,-4.1191,-4.1191,-4.1152,-4.0917,-4.0818,-4.0662,-3.9779,-3.9484,-3.9328,-3.8468,-3.8195,-3.7996,-3.7088,-3.6811,-3.6629,-3.5864,-3.5621,-3.5571,-3.5571,-3.554,-3.5509,-3.5599,-3.565,-3.5723,-3.5836,-3.5843,-3.5877,-3.5925,-3.5929,-3.5929,-3.5929,-3.5929,-3.593,-3.5974,-3.5932,-3.5933,-3.5996,-3.5954,-3.5933,-3.5996,-3.5954,-3.5931,-3.5974,-3.589,-3.5843,-3.5843,-3.5736,-3.5678,-3.5703,-3.5783,-3.5869,-3.5929,-3.5862,-3.5843,-3.5843,-3.573,-3.5565,-2.0293,-2.2598,-2.4902,-2.6738,-2.9121,-3.1269,-3.2187,-3.4336,-3.6152,-3.6191,-3.8164,-3.9902,-3.9961,-4.0644,-4.1191,-4.1191,-4.1191,-4.1191,-4.1191,-4.1191,-4.1191,-4.1191,-4.1191,-4.1191,-4.1191,-4.1191,-4.1191,-4.1191,-4.1191,-4.1191,-4.1191,-4.1191,-4.1191,-4.1191,-4.1191,-4.1191,-4.1191,-4.1078,-4.1019,-4.1019,-4.0877,-4.0813,-4.0805,-4.0805,-4.0809,-4.0816,-4.0816,-4.0816,-4.0816,-4.0816,-4.0905,-4.1019,-4.1019,-4.1082,-4.1191,-4.1191,-4.1191,-4.1054,-4.01,-3.9776,-3.9612,-3.8681,-3.8384,-3.8228,-3.7345,-3.707,-3.6894,-3.6028,-3.5721,-3.5669,-3.5621,-3.557,-3.5514,-3.5514,-3.5507,-3.5509,-3.5599,-3.565,-3.5707,-3.571,-3.5713,-3.5713,-3.572,-3.572,-3.572,-3.572,-3.572,-3.5766,-3.588,-3.5783,-3.5792,-3.5976,-3.5836,-3.5795,-3.5976,-3.5834,-3.5769,-3.5903,-3.5775,-3.5713,-3.5713,-3.5648,-3.5639,-3.5703,-3.5629,-3.5653,-3.572,-3.5713,-3.5713,-3.571,-3.5644,-3.5221,-1.7773,-1.998,-2.25,-2.4766,-2.6875,-2.8926,-3.0918,-3.25,-3.4023,-3.5664,-3.6738,-3.791,-3.959,-4.0605,-4.1191,-4.1191,-4.1191,-4.1191,-4.1191,-4.1191,-4.1191,-4.1191,-4.1191,-4.1191,-4.1191,-4.1191,-4.1191,-4.1191,-4.1191,-4.1151,-4.1078,-4.115,-4.1126,-4.0952,-4.1025,-4.1026,-4.093,-4.0905,-4.087,-4.087,-4.0816,-4.0779,-4.0736,-4.0736,-4.0688,-4.0617,-4.0617,-4.0671,-4.0797,-4.0797,-4.082,-4.087,-4.087,-4.0908,-4.0874,-4.0352,-4.0179,-4.004,-3.9121,-3.8803,-3.8642,-3.7754,-3.7468,-3.7293,-3.643,-3.6177,-3.6086,-3.5743,-3.5626,-3.559,-3.5546,-3.5509,-3.55,-3.55,-3.55,-3.552,-3.5522,-3.5544,-3.5574,-3.5626,-3.5639,-3.5646,-3.5696,-3.5707,-3.5707,-3.5707,-3.5707,-3.5717,-3.5764,-3.5723,-3.5729,-3.5799,-3.5741,-3.5729,-3.5799,-3.5741,-3.572,-3.5766,-3.5683,-3.5639,-3.5639,-3.5566,-3.5546,-3.5566,-3.5552,-3.559,-3.5707,-3.5659,-3.5353,-3.4805,-3.4729,-3.4264,-1.6035,-1.8164,-2.0644,-2.2637,-2.4863,-2.7012,-2.8769,-3.0273,-3.1894,-3.3887,-3.4746,-3.584,-3.8164,-3.9297,-4.0176,-4.1055,-4.1191,-4.1191,-4.1191,-4.1191,-4.1191,-4.1191,-4.1191,-4.1191,-4.1191,-4.1151,-4.115,-4.1191,-4.1126,-4.1051,-4.0996,-4.1049,-4.099,-4.0801,-4.0899,-4.0883,-4.0797,-4.0779,-4.0761,-4.0781,-4.0718,-4.0688,-4.0636,-4.0636,-4.0575,-4.0496,-4.0496,-4.0584,-4.0698,-4.0698,-4.0723,-4.0742,-4.0435,-4.0364,-4.0299,-3.9473,-3.9162,-3.9041,-3.8136,-3.7833,-3.7669,-3.6787,-3.6502,-3.6381,-3.5814,-3.5635,-3.5616,-3.5582,-3.5574,-3.557,-3.5515,-3.55,-3.55,-3.55,-3.55,-3.55,-3.55,-3.55,-3.5515,-3.555,-3.5574,-3.5588,-3.5621,-3.5635,-3.5635,-3.5635,-3.5635,-3.5629,-3.5671,-3.5642,-3.5646,-3.57,-3.5663,-3.565,-3.57,-3.5663,-3.5633,-3.5671,-3.5596,-3.5574,-3.5574,-3.5528,-3.5365,-3.5064,-3.5064,-3.4967,-3.4771,-3.5009,-3.4671,-3.384,-3.3775,-3.3314,0.0,0.0,0.0,-2.0332,-2.3066,-2.5566,-2.5664,-2.7656,-2.9746,-3.0664,-3.2148,-3.3828,-3.5605,-3.6601,-3.8027,-4.0625,-4.1094,-4.1113,-4.1113,-4.1133,-4.1152,-4.1152,-4.1172,-4.1191,-4.1191,-4.1077,-4.1051,-4.1171,-4.0952,-4.0857,-4.0988,-4.0864,-4.0789,-4.0793,-4.0789,-4.0789,-4.0789,-4.0726,-4.0692,-4.0692,-4.0566,-4.0496,-4.0496,-4.0496,-4.0496,-4.0458,-4.0458,-4.0458,-4.0439,-4.0458,-4.0549,-4.0575,-3.9696,-3.9437,-3.9447,-3.8574,-3.8244,-3.8116,-3.7182,-3.6866,-3.6704,-3.5798,-3.55,-3.55,-3.55,-3.55,-3.55,-3.55,-3.55,-3.55,-3.55,-3.55,-3.55,-3.55,-3.55,-3.55,-3.55,-3.55,-3.55,-3.55,-3.55,-3.55,-3.55,-3.55,-3.55,-3.55,-3.55,-3.5528,-3.5585,-3.5547,-3.5552,-3.5675,-3.5582,-3.5538,-3.5682,-3.5571,-3.5534,-3.5595,-3.554,-3.55,-3.55,-3.5481,-3.5064,-3.4225,-3.4167,-3.3725,-3.2872,-3.3744,-3.3705,-3.2852,-3.2833,-3.241,-1.3453,0.0,0.0,0.0,0.0,0.0,-2.5,-2.6112,-2.7254,-2.9439,-3.0263,-3.1302,-3.3672,-3.4316,-3.5117,-3.7041,-3.8384,-3.9208,-3.9316,-3.9741,-4.0062,-4.0112,-4.0591,-4.0914,-4.0914,-4.0874,-4.087,-4.0911,-4.085,-4.0796,-4.0781,-4.0666,-4.0629,-4.0721,-4.0636,-4.0578,-4.0578,-4.0561,-4.0552,-4.0552,-4.0519,-4.0496,-4.0496,-4.0496,-4.0189,-3.9631,-3.9631,-3.9265,-3.8738,-3.9381,-3.9641,-3.9595,-3.8728,-3.8414,-3.8344,-3.7455,-3.7146,-3.7024,-3.6183,-3.5894,-3.5843,-3.5578,-3.55,-3.55,-3.55,-3.55,-3.55,-3.55,-3.55,-3.55,-3.55,-3.55,-3.55,-3.55,-3.55,-3.55,-3.55,-3.55,-3.55,-3.55,-3.55,-3.55,-3.55,-3.55,-3.55,-3.55,-3.55,-3.552,-3.5528,-3.5515,-3.5521,-3.5558,-3.5522,-3.5521,-3.5558,-3.5522,-3.5501,-3.5534,-3.5508,-3.55,-3.55,-3.4891,-3.4449,-3.4205,-3.3583,-3.2852,-3.2025,-3.2852,-3.2833,-3.2025,-3.1385,-3.0962,-1.3405,-1.4542,-1.6204,-1.7735,0.0,0.0,-2.2917,-2.393,-2.5109,-2.736,-2.7831,-2.8639,-3.1254,-3.1724,-3.2169,-3.3516,-3.4813,-3.6177,-3.771,-3.858,-3.9065,-3.9107,-3.9497,-3.9758,-3.9758,-3.9738,-3.973,-3.9754,-3.9685,-3.96,-3.958,-3.9844,-4.0048,-4.0114,-4.0364,-4.0496,-4.0496,-4.0496,-4.0496,-4.0496,-4.0169,-3.9996,-3.9996,-3.9631,-3.92,-3.8757,-3.8757,-3.8469,-3.8007,-3.8161,-3.843,-3.8661,-3.7796,-3.7469,-3.7353,-3.65,-3.6192,-3.6135,-3.5654,-3.55,-3.55,-3.55,-3.55,-3.55,-3.55,-3.55,-3.55,-3.55,-3.55,-3.55,-3.55,-3.55,-3.55,-3.55,-3.55,-3.55,-3.55,-3.55,-3.55,-3.55,-3.55,-3.55,-3.55,-3.55,-3.55,-3.55,-3.55,-3.55,-3.55,-3.55,-3.55,-3.55,-3.55,-3.55,-3.55,-3.55,-3.55,-3.55,-3.5154,-3.4968,-3.4968,-3.4122,-3.3506,-3.316,-3.266,-3.1987,-3.1154,-3.1987,-3.1968,-3.1154,-3.0635,-3.0349,-1.4225,-1.5127,-1.6342,-1.6537,-1.8288,0.0,-2.0194,-2.1441,-2.3039,-2.4719,-2.507,-2.5872,-2.8471,-2.8961,-2.9272,-3.0241,-3.104,-3.266,-3.5973,-3.7247,-3.7875,-3.7983,-3.7996,-3.8066,-3.8257,-3.8137,-3.8098,-3.8249,-3.8104,-3.8007,-3.8007,-3.8834,-3.9265,-3.9169,-3.9938,-4.0323,-4.0227,-4.0227,-4.0227,-4.0208,-3.9496,-3.9169,-3.913,-3.8354,-3.795,-3.7853,-3.7853,-3.7796,-3.7661,-3.6885,-3.7084,-3.7777,-3.6904,-3.6577,-3.6481,-3.5769,-3.55,-3.55,-3.55,-3.55,-3.55,-3.55,-3.55,-3.55,-3.55,-3.55,-3.55,-3.55,-3.55,-3.55,-3.55,-3.55,-3.55,-3.55,-3.55,-3.55,-3.55,-3.55,-3.55,-3.55,-3.55,-3.55,-3.55,-3.55,-3.55,-3.55,-3.55,-3.55,-3.55,-3.55,-3.55,-3.55,-3.55,-3.55,-3.55,-3.55,-3.5462,-3.5365,-3.4622,-3.4167,-3.4071,-3.3237,-3.2429,-3.1718,-3.1602,-3.1173,-3.0404,-3.1173,-3.1148,-3.0355,-3.0355,-3.0228,-1.4152,-1.4176,-1.476,-1.6168,-1.6888,0.0,-1.8966,-1.9532,-2.0279,-2.1992,-2.2353,-2.3151,-2.5773,-2.6269,-2.6756,-2.8278,-2.9191,-3.0459,-3.2583,-3.4114,-3.5289,-3.6033,-3.6079,-3.6582,-3.7932,-3.7417,-3.7295,-3.8003,-3.8012,-3.8007,-3.8007,-3.8834,-3.8977,-3.8277,-3.9092,-3.9207,-3.8488,-3.8488,-3.8488,-3.8488,-3.8334,-3.8257,-3.8257,-3.8084,-3.7623,-3.6942,-3.6942,-3.6596,-3.5962,-3.5808,-3.6212,-3.6865,-3.6058,-3.5731,-3.5712,-3.5558,-3.55,-3.55,-3.55,-3.55,-3.55,-3.55,-3.55,-3.55,-3.55,-3.55,-3.55,-3.55,-3.55,-3.55,-3.55,-3.55,-3.55,-3.55,-3.55,-3.55,-3.55,-3.55,-3.55,-3.55,-3.55,-3.55,-3.55,-3.55,-3.55,-3.55,-3.55,-3.55,-3.55,-3.55,-3.55,-3.55,-3.55,-3.55,-3.55,-3.55,-3.5192,-3.4507,-3.4302,-3.3898,-3.3179,-3.2372,-3.1852,-3.1698,-3.1,-3.0577,-3.0404,-3.0577,-3.0452,-3.0075,-3.0075,-2.9954,-1.5538,-1.5192,-1.5308,-1.5734,-1.6176,0.0,0.0,-1.8061,-1.8717,-2.0041,-2.0302,-2.0963,-2.3118,-2.3515,-2.3921,-2.5197,-2.6116,-2.7108,-2.8412,-3.0746,-3.2479,-3.2946,-3.2979,-3.3462,-3.4737,-3.4468,-3.4737,-3.6007,-3.6103,-3.6295,-3.6738,-3.7546,-3.7796,-3.7373,-3.82,-3.843,-3.8007,-3.8007,-3.8007,-3.7988,-3.7565,-3.7353,-3.7334,-3.6949,-3.65,-3.6096,-3.6096,-3.5865,-3.55,-3.55,-3.5731,-3.6058,-3.5654,-3.55,-3.55,-3.55,-3.55,-3.55,-3.55,-3.55,-3.55,-3.55,-3.55,-3.55,-3.55,-3.55,-3.55,-3.55,-3.55,-3.55,-3.55,-3.55,-3.55,-3.55,-3.55,-3.55,-3.55,-3.55,-3.55,-3.55,-3.55,-3.55,-3.55,-3.55,-3.55,-3.55,-3.55,-3.55,-3.55,-3.55,-3.55,-3.55,-3.55,-3.55,-3.55,-3.5103,-3.4661,-3.4225,-3.3417,-3.2756,-3.2314,-3.1506,-3.0983,-3.086,-3.0413,-3.0155,-3.0044,-3.0044,-3.0025,-2.9999,-2.9901,-2.9729,-1.7449,-1.6853,-1.6522,-1.5654,-1.5849,-1.6253,0.0,0.0,0.0,-1.8343,-1.8523,-1.9027,-2.0716,-2.1023,-2.1254,-2.1947,-2.2797,-2.3548,-2.4019,-2.675,-2.9058,-3.0019,-3.0,-3.0327,-3.1352,-3.1602,-3.2256,-3.3628,-3.4013,-3.4507,-3.5212,-3.6173,-3.6635,-3.6462,-3.7296,-3.768,-3.7526,-3.7526,-3.7526,-3.7507,-3.6808,-3.6462,-3.6442,-3.5808,-3.55,-3.55,-3.55,-3.55,-3.55,-3.55,-3.55,-3.55,-3.55,-3.55,-3.55,-3.55,-3.55,-3.55,-3.55,-3.55,-3.55,-3.55,-3.55,-3.55,-3.55,-3.55,-3.55,-3.55,-3.55,-3.55,-3.55,-3.55,-3.55,-3.55,-3.55,-3.55,-3.55,-3.55,-3.55,-3.55,-3.55,-3.55,-3.55,-3.55,-3.55,-3.55,-3.55,-3.55,-3.55,-3.55,-3.55,-3.55,-3.5346,-3.525,-3.525,-3.4449,-3.3878,-3.3725,-3.2449,-3.1621,-3.1468,-3.072,-3.0215,-3.0006,-2.9969,-2.9861,-2.9705,-2.9661,-2.9731,-2.9885,-2.9722,-2.9523,-1.9165,-1.8145,-1.7372,-1.6561,-1.5849,-1.5346,-1.5346,0.0,-1.5731,-1.6599,0.0,-1.7292,-1.8977,0.0,0.0,-1.9423,-2.0154,-2.0481,-1.9804,-2.1327,-2.4197,-2.8703,-2.8626,-2.8813,-3.0385,-3.125,-3.1775,-3.1968,-3.3353,-3.4244,-3.434,-3.5834,-3.6365,-3.5654,-3.6423,-3.65,-3.5788,-3.5788,-3.5788,-3.5788,-3.5673,-3.5635,-3.5635,-3.5538,-3.55,-3.55,-3.55,-3.55,-3.55,-3.55,-3.55,-3.55,-3.55,-3.55,-3.55,-3.55,-3.55,-3.55,-3.55,-3.55,-3.55,-3.55,-3.55,-3.55,-3.55,-3.55,-3.55,-3.55,-3.55,-3.55,-3.55,-3.55,-3.55,-3.55,-3.55,-3.55,-3.55,-3.55,-3.55,-3.55,-3.55,-3.55,-3.55,-3.55,-3.55,-3.55,-3.55,-3.55,-3.55,-3.55,-3.55,-3.55,-3.4814,-3.4359,-3.4359,-3.3545,-3.2737,-3.2025,-3.1814,-3.1346,-3.0577,-3.0221,-3.0028,-3.0006,-2.9821,-2.9731,-2.9705,-2.9523,-2.9444,-2.9474,-2.9444,-2.928,-2.0912,-1.9831,-1.9004,-1.8161,-1.6949,-1.5945,-1.5945,-1.5173,-1.4555,-1.492,0.0,0.0,0.0,0.0,0.0,0.0,-1.7096,-1.7385,-1.7538,-1.8561,-2.0639,-2.4255,-2.4836,-2.5601,-2.7288,-2.8698,-2.991,-3.0865,-3.1602,-3.2641,-3.4129,-3.4872,-3.5334,-3.5481,-3.5827,-3.5846,-3.55,-3.55,-3.55,-3.55,-3.55,-3.55,-3.55,-3.55,-3.55,-3.55,-3.55,-3.55,-3.55,-3.55,-3.55,-3.55,-3.55,-3.55,-3.55,-3.55,-3.55,-3.55,-3.55,-3.55,-3.55,-3.55,-3.55,-3.55,-3.55,-3.55,-3.55,-3.55,-3.55,-3.55,-3.55,-3.5115,-3.4757,-3.4757,-3.4353,-3.3987,-3.3987,-3.3987,-3.3987,-3.3987,-3.3987,-3.3987,-3.3987,-3.4827,-3.55,-3.55,-3.55,-3.55,-3.55,-3.5064,-3.4757,-3.4757,-3.3968,-3.3449,-3.3449,-3.2679,-3.2064,-3.1718,-3.1231,-3.0707,-3.0182,-3.0068,-2.9893,-2.9652,-2.9561,-2.9455,-2.9293,-2.9214,-2.9178,-2.9178,-2.9178,-2.9112,-2.2947,-2.1769,-2.0716,-1.9623,-1.8257,-1.7122,-1.6872,-1.5673,-1.4613,-1.4613,-1.3929,0.0,0.0,0.0,0.0,0.0,0.0,-1.4592,-1.5024,-1.5952,0.0,0.0,-2.1773,-2.3024,-2.4462,-2.6178,-2.7794,-2.925,-3.0019,-3.1212,-3.3064,-3.3821,-3.4487,-3.5115,-3.5385,-3.55,-3.55,-3.55,-3.55,-3.55,-3.55,-3.55,-3.55,-3.55,-3.55,-3.55,-3.55,-3.55,-3.55,-3.55,-3.55,-3.55,-3.55,-3.55,-3.55,-3.55,-3.55,-3.55,-3.55,-3.55,-3.55,-3.55,-3.55,-3.55,-3.55,-3.5327,-3.5135,-3.5135,-3.4962,-3.4788,-3.4788,-3.4314,-3.384,-3.384,-3.3353,-3.2891,-3.2891,-3.2891,-3.2891,-3.2891,-3.2891,-3.2891,-3.2891,-3.3949,-3.4788,-3.4788,-3.4788,-3.4788,-3.4788,-3.4237,-3.384,-3.384,-3.3083,-3.2564,-3.2564,-3.1814,-3.1346,-3.1346,-3.0669,-3.0202,-3.0006,-2.9893,-2.9705,-2.9412,-2.933,-2.9181,-2.9005,-2.9005,-2.9005,-2.9005,-2.9005,-2.9005,-2.5423,-2.3966,-2.2316,-2.0673,-1.9584,-1.8703,-1.7853,-1.7026,-1.6426,-1.6426,-1.5615,-1.4941,-1.496,0.0,0.0,0.0,0.0,0.0,0.0,0.0,0.0,0.0,0.0,0.0,-2.2797,-2.4404,-2.5769,-2.6659,-2.9,-3.0442,-3.0519,-3.2852,-3.4205,-3.4244,-3.5064,-3.55,-3.55,-3.55,-3.55,-3.55,-3.55,-3.55,-3.55,-3.55,-3.55,-3.55,-3.55,-3.55,-3.55,-3.55,-3.55,-3.55,-3.55,-3.55,-3.55,-3.55,-3.55,-3.55,-3.55,-3.55,-3.55,-3.55,-3.55,-3.55,-3.55,-3.4911,-3.4244,-3.4244,-3.3622,-3.2987,-3.2987,-3.2968,-3.2949,-3.2949,-3.291,-3.2891,-3.2891,-3.2891,-3.2891,-3.2891,-3.2891,-3.2891,-3.2891,-3.2949,-3.2987,-3.2987,-3.2987,-3.2987,-3.2987,-3.2968,-3.2949,-3.2949,-3.2218,-3.1737,-3.1737,-3.0942,-3.0442,-3.0442,-3.0169,-3.0006,-3.0006,-2.9635,-2.9404,-2.9402,-2.9145,-2.9017,-2.9005,-2.9005,-2.9005,-2.9005,-2.9005,-2.9005,-2.6232,-2.5138,-2.3984,-2.2889,-2.1536,-2.038,-2.0074,-1.855,-1.7132,-1.6994,-1.5398,-1.4013,-1.4013,0.0,0.0,0.0,0.0,0.0,0.0,0.0,0.0,0.0,0.0,0.0,0.0,0.0,-2.4103,-2.5497,-2.702,-2.8615,-3.0308,-3.1212,-3.2468,-3.4148,-3.4487,-3.493,-3.5481,-3.55,-3.55,-3.55,-3.55,-3.55,-3.55,-3.55,-3.55,-3.55,-3.55,-3.55,-3.55,-3.55,-3.55,-3.55,-3.55,-3.55,-3.55,-3.55,-3.55,-3.55,-3.55,-3.55,-3.5404,-3.4834,-3.4641,-3.4526,-3.3949,-3.3564,-3.3333,-3.3333,-3.3122,-3.2891,-3.2891,-3.2506,-3.2102,-3.2102,-3.1679,-3.125,-3.125,-3.125,-3.125,-3.125,-3.125,-3.125,-3.125,-3.125,-3.1615,-3.2737,-3.2891,-3.2891,-3.2891,-3.2449,-3.2102,-3.2102,-3.1346,-3.0765,-3.059,-3.0175,-2.9946,-2.9946,-2.9856,-2.9729,-2.9616,-2.9465,-2.932,-2.9145,-2.9051,-2.9005,-2.9005,-2.9005,-2.9005,-2.8994,-2.8737,-2.8749,-2.7695,-2.6484,-2.5253,-2.4341,-2.305,-2.1956,-2.1727,-2.0197,-1.8702,-1.8275,-1.6653,-1.5207,-1.4859,0.0,0.0,0.0,0.0,0.0,0.0,-1.0323,0.0,0.0,0.0,0.0,0.0,0.0,0.0,-2.4131,-2.5395,0.0,-2.8942,-2.9904,-3.1154,-3.2795,-3.3725,-3.4468,-3.5026,-3.5346,-3.55,-3.55,-3.55,-3.55,-3.55,-3.55,-3.55,-3.55,-3.55,-3.55,-3.55,-3.55,-3.55,-3.55,-3.55,-3.5308,-3.5084,-3.5385,-3.5308,-3.5045,-3.5045,-3.4827,-3.4481,-3.391,-3.3744,-3.3622,-3.3064,-3.2699,-3.2468,-3.2468,-3.2256,-3.2006,-3.2006,-3.1641,-3.1231,-3.1231,-3.0808,-3.0404,-3.0404,-3.0404,-3.0404,-3.0404,-3.0404,-3.0404,-3.0404,-3.0404,-3.0769,-3.1852,-3.2006,-3.2006,-3.2006,-3.1564,-3.1193,-3.1117,-3.0586,-3.0169,-2.9916,-2.9771,-2.9705,-2.9705,-2.9625,-2.9542,-2.9412,-2.931,-2.9318,-2.9409,-2.9152,-2.9133,-2.9427,-2.9133,-2.8929,-2.8773,-2.8527,-2.8476]},{"header":{"parameterUnit":"m.s-1","parameterCategory":1,"la1":30.6,"la2":29.2853,"lo1":-89.7004,"lo2":-87.6739,"dx":0.0162,"dy":0.0183,"nx":112,"ny":82,"refTime":"2022-12-04T18:00:00:Z","depth":0,"parameterNumber":3,"parameterNumberName":"V-component_of_WINDS"},"data":[0.0,0.0,0.0,0.0,0.0,0.0,0.0,0.0,0.0,0.0,0.0,0.0,0.0,0.0,0.0,0.0,0.0,0.0,0.0,0.0,0.0,0.0,0.0,0.0,0.0,0.0,0.0,0.0,0.0,0.0,0.0,0.0,0.0,0.0,0.0,0.0,0.0,0.0,0.0,0.0,0.0,0.0,0.0,0.0,0.0,0.0,0.0,0.0,0.0,0.0,0.0,0.0,0.0,0.0,0.0,0.0,0.0,0.0,0.0,0.0,0.0,0.0,0.0,0.0,0.0,0.0,0.0,0.0,0.0,0.0,0.0,0.0,0.0,0.0,0.0,0.0,0.0,0.0,0.0,0.0,0.0,0.0,0.0,0.0,0.0,0.0,0.0,0.0,0.0,0.0,-0.8278,-0.9244,-0.983,-1.0187,-1.0187,-0.9873,-0.9452,-0.8911,0.0,0.0,0.0,0.0,0.0,0.0,0.0,0.0,0.0,0.0,0.0,0.0,0.0,0.0,0.0,0.0,0.0,0.0,0.0,0.0,0.0,0.0,0.0,0.0,0.0,0.0,0.0,0.0,0.0,0.0,0.0,0.0,0.0,0.0,0.0,0.0,0.0,0.0,0.0,0.0,0.0,0.0,0.0,0.0,0.0,0.0,0.0,0.0,0.0,0.0,0.0,0.0,0.0,0.0,0.0,0.0,0.0,0.0,0.0,0.0,0.0,0.0,0.0,0.0,0.0,0.0,0.0,0.0,0.0,0.0,0.0,0.0,0.0,0.0,0.0,0.0,0.0,0.0,0.0,0.0,0.0,0.0,0.0,0.0,0.0,0.0,0.0,0.0,0.0,0.0,0.0,0.0,0.0,0.0,0.0,0.0,0.0,0.0,0.0,0.0,0.0,0.0,0.0,0.0,-0.8432,-0.9804,-1.0287,-1.0526,-1.0526,-1.0023,-0.9539,-0.9171,0.0,0.0,0.0,0.0,0.0,0.0,0.0,0.0,0.0,0.0,0.0,0.0,0.0,0.0,0.0,0.0,0.0,0.0,0.0,0.0,0.0,0.0,0.0,0.0,0.0,0.0,0.0,0.0,0.0,0.0,0.0,0.0,0.0,0.0,0.0,0.0,0.0,0.0,0.0,0.0,0.0,0.0,0.0,0.0,0.0,0.0,0.0,0.0,0.0,0.0,0.0,0.0,0.0,0.0,0.0,0.0,0.0,0.0,0.0,0.0,0.0,0.0,0.0,0.0,0.0,0.0,0.0,0.0,0.0,0.0,0.0,0.0,0.0,0.0,0.0,0.0,0.0,0.0,0.0,0.0,0.0,0.0,0.0,0.0,0.0,0.0,0.0,0.0,0.0,0.0,0.0,0.0,0.0,0.0,0.0,0.0,0.0,0.0,0.0,0.0,0.0,0.0,0.0,-0.8584,-0.9259,-1.0254,-1.0512,-1.066,-1.0814,-1.0144,-0.9559,-0.9231,-0.8392,0.0,0.0,0.0,0.0,0.0,0.0,0.0,0.0,0.0,0.0,0.0,0.0,0.0,0.0,0.0,0.0,0.0,0.0,0.0,0.0,0.0,0.0,0.0,0.0,0.0,0.0,0.0,0.0,0.0,0.0,0.0,0.0,0.0,0.0,0.0,0.0,0.0,0.0,0.0,0.0,0.0,0.0,0.0,0.0,0.0,0.0,0.0,0.0,0.0,0.0,0.0,0.0,0.0,0.0,0.0,0.0,0.0,0.0,0.0,0.0,0.0,0.0,0.0,0.0,0.0,0.0,0.0,0.0,0.0,0.0,0.0,0.0,0.0,0.0,0.0,0.0,0.0,0.0,0.0,0.0,0.0,0.0,0.0,0.0,0.0,0.0,0.0,0.0,0.0,0.0,0.0,0.0,0.0,0.0,0.0,0.0,0.0,0.0,0.0,0.0,0.0,0.0,-0.9245,-1.0043,-1.0633,-1.0754,-1.0855,-1.1076,-1.0294,-0.9633,-0.9231,-0.8425,0.0,0.0,0.0,0.0,0.0,0.0,0.0,0.0,0.0,0.0,0.0,0.0,0.0,0.0,0.0,0.0,0.0,0.0,0.0,0.0,0.0,0.0,0.0,0.0,0.0,0.0,0.0,0.0,0.0,0.0,0.0,0.0,0.0,0.0,0.0,0.0,0.0,0.0,0.0,0.0,0.0,0.0,0.0,0.0,0.0,0.0,0.0,0.0,0.0,0.0,0.0,0.0,0.0,0.0,0.0,0.0,0.0,0.0,0.0,0.0,0.0,0.0,0.0,0.0,0.0,0.0,0.0,0.0,0.0,0.0,0.0,0.0,0.0,0.0,0.0,0.0,0.0,0.0,0.0,0.0,0.0,0.0,0.0,0.0,0.0,0.0,0.0,0.0,0.0,0.0,0.0,0.0,0.0,0.0,0.0,0.0,0.0,0.0,0.0,0.0,0.0,0.0,-0.9539,-1.0307,-1.0902,-1.1209,-1.1335,-1.1362,-1.0556,-0.981,-0.9251,-0.8491,0.0,0.0,0.0,0.0,0.0,0.0,0.0,0.0,0.0,0.0,0.0,0.0,0.0,0.0,0.0,0.0,0.0,0.0,0.0,0.0,0.0,0.0,0.0,0.0,0.0,0.0,0.0,0.0,0.0,0.0,0.0,0.0,0.0,0.0,0.0,0.0,0.0,0.0,0.0,0.0,0.0,0.0,0.0,0.0,0.0,0.0,0.0,0.0,0.0,0.0,0.0,0.0,0.0,0.0,0.0,0.0,0.0,0.0,0.0,0.0,0.0,0.0,0.0,0.0,0.0,0.0,0.0,0.0,0.0,0.0,0.0,0.0,0.0,0.0,0.0,0.0,0.0,0.0,0.0,0.0,0.0,0.0,0.0,0.0,0.0,0.0,0.0,0.0,0.0,0.0,0.0,0.0,0.0,0.0,0.0,0.0,0.0,0.0,0.0,0.0,0.0,0.0,-0.9657,-1.0341,-1.0929,-1.1249,-1.1389,-1.1389,-1.0589,-0.9947,-0.9546,0.0,0.0,0.0,0.0,0.0,0.0,0.0,0.0,0.0,0.0,0.0,0.0,0.0,0.0,0.0,0.0,0.0,0.0,0.0,0.0,0.0,0.0,0.0,0.0,0.0,0.0,0.0,0.0,0.0,0.0,0.0,0.0,0.0,0.0,0.0,0.0,0.0,0.0,0.0,0.0,0.0,0.0,0.0,0.0,0.0,0.0,0.0,0.0,0.0,0.0,0.0,0.0,0.0,0.0,0.0,0.0,0.0,0.0,0.0,0.0,0.0,0.0,0.0,0.0,0.0,0.0,0.0,0.0,0.0,0.0,0.0,0.0,0.0,0.0,0.0,0.0,0.0,0.0,0.0,0.0,0.0,0.0,0.0,0.0,0.0,0.0,0.0,0.0,0.0,0.0,0.0,0.0,0.0,0.0,0.0,0.0,0.0,0.0,0.0,0.0,0.0,0.0,-0.9231,-0.9893,-1.0481,-1.1069,-1.1476,-1.1595,-1.1409,-1.0708,-1.0053,-0.9573,0.0,0.0,0.0,0.0,0.0,0.0,0.0,0.0,0.0,0.0,0.0,0.0,0.0,0.0,0.0,0.0,0.0,0.0,0.0,0.0,0.0,0.0,0.0,0.0,0.0,0.0,0.0,0.0,0.0,0.0,0.0,0.0,0.0,0.0,0.0,0.0,0.0,0.0,0.0,0.0,0.0,0.0,0.0,0.0,0.0,0.0,0.0,0.0,0.0,0.0,0.0,0.0,0.0,0.0,0.0,0.0,0.0,0.0,0.0,0.0,0.0,0.0,0.0,0.0,0.0,0.0,0.0,0.0,0.0,0.0,0.0,0.0,0.0,0.0,0.0,0.0,0.0,0.0,0.0,0.0,0.0,0.0,0.0,0.0,0.0,0.0,0.0,0.0,0.0,0.0,0.0,0.0,0.0,0.0,0.0,0.0,0.0,0.0,0.0,0.0,0.0,0.0,-0.9532,-1.0224,-1.0814,-1.1335,-1.1957,-1.2064,-1.1449,-1.0895,-1.0211,0.0,0.0,0.0,0.0,0.0,0.0,0.0,0.0,0.0,0.0,0.0,0.0,0.0,0.0,0.0,0.0,0.0,0.0,0.0,0.0,0.0,0.0,0.0,0.0,0.0,0.0,0.0,0.0,0.0,0.0,0.0,0.0,0.0,0.0,0.0,0.0,0.0,0.0,0.0,0.0,0.0,0.0,0.0,0.0,0.0,0.0,0.0,0.0,0.0,0.0,0.0,0.0,0.0,0.0,0.0,0.0,0.0,0.0,0.0,0.0,0.0,0.0,0.0,0.0,0.0,0.0,0.0,0.0,0.0,0.0,0.0,0.0,0.0,0.0,0.0,0.0,0.0,0.0,0.0,0.0,0.0,0.0,0.0,0.0,0.0,0.0,0.0,0.0,0.0,0.0,0.0,0.0,0.0,0.0,0.0,0.0,0.0,0.0,0.0,0.0,0.0,0.0,0.0,-0.9532,-1.0224,-1.0894,-1.165,-1.2078,-1.2151,-1.177,-1.1048,-1.0305,-0.9593,0.0,0.0,0.0,0.0,0.0,0.0,0.0,0.0,0.0,0.0,0.0,0.0,0.0,0.0,0.0,0.0,0.0,0.0,0.0,0.0,0.0,0.0,0.0,0.0,0.0,0.0,0.0,0.0,0.0,0.0,0.0,0.0,0.0,0.0,0.0,0.0,0.0,0.0,0.0,0.0,0.0,0.0,0.0,0.0,0.0,0.0,0.0,0.0,0.0,0.0,0.0,0.0,0.0,0.0,0.0,0.0,0.0,0.0,0.0,0.0,0.0,0.0,0.0,0.0,0.0,0.0,0.0,0.0,0.0,0.0,0.0,0.0,0.0,0.0,0.0,0.0,0.0,0.0,0.0,0.0,0.0,0.0,0.0,0.0,0.0,0.0,0.0,0.0,0.0,0.0,0.0,0.0,0.0,0.0,0.0,0.0,0.0,0.0,0.0,0.0,0.0,0.0,-0.9532,-1.0224,-1.0928,-1.1812,-1.2131,-1.2231,-1.2058,-1.127,-1.0512,-0.9893,0.0,0.0,0.0,0.0,0.0,0.0,0.0,0.0,0.0,0.0,0.0,0.0,0.0,0.0,0.0,0.0,0.0,0.0,0.0,0.0,0.0,0.0,0.0,0.0,0.0,0.0,0.0,0.0,0.0,0.0,0.0,0.0,0.0,0.0,0.0,0.0,0.0,0.0,0.0,0.0,0.0,0.0,0.0,0.0,0.0,0.0,0.0,0.0,0.0,0.0,0.0,0.0,0.0,0.0,0.0,0.0,0.0,0.0,0.0,0.0,0.0,0.0,0.0,0.0,0.0,0.0,0.0,0.0,0.0,0.0,0.0,0.0,0.0,0.0,0.0,0.0,0.0,0.0,0.0,0.0,0.0,0.0,0.0,0.0,0.0,0.0,0.0,0.0,0.0,0.0,0.0,0.0,0.0,0.0,0.0,0.0,0.0,0.0,0.0,0.0,0.0,0.0,-0.9573,-1.0244,-1.0948,-1.1886,-1.2184,-1.2345,-1.2345,-1.1536,-1.0782,-1.0194,0.0,0.0,0.0,0.0,0.0,0.0,0.0,0.0,0.0,0.0,0.0,0.0,0.0,0.0,0.0,0.0,0.0,0.0,0.0,0.0,0.0,0.0,0.0,0.0,0.0,0.0,0.0,0.0,0.0,0.0,0.0,0.0,0.0,0.0,0.0,0.0,0.0,0.0,0.0,0.0,0.0,0.0,0.0,0.0,0.0,0.0,0.0,0.0,0.0,0.0,0.0,0.0,0.0,0.0,0.0,0.0,0.0,0.0,0.0,0.0,-0.8517,-0.7772,0.0,0.0,0.0,0.0,0.0,0.0,0.0,0.0,0.0,0.0,0.0,0.0,0.0,0.0,0.0,0.0,0.0,0.0,0.0,0.0,0.0,0.0,0.0,0.0,0.0,0.0,0.0,0.0,0.0,0.0,0.0,0.0,0.0,0.0,0.0,0.0,0.0,0.0,0.0,0.0,-0.9873,-1.0372,-1.1109,-1.2449,-1.265,-1.269,-1.269,-1.1844,-1.1089,-1.0533,-0.9419,0.0,0.0,0.0,0.0,0.0,0.0,0.0,0.0,0.0,0.0,0.0,0.0,0.0,0.0,0.0,0.0,0.0,0.0,0.0,0.0,0.0,0.0,0.0,0.0,0.0,0.0,0.0,0.0,0.0,0.0,0.0,0.0,0.0,0.0,0.0,0.0,0.0,0.0,0.0,0.0,0.0,0.0,0.0,0.0,0.0,0.0,0.0,0.0,0.0,0.0,0.0,0.0,0.0,0.0,0.0,0.0,0.0,0.0,0.0,-0.9292,-0.8585,0.0,0.0,0.0,0.0,0.0,0.0,0.0,0.0,0.0,0.0,0.0,0.0,0.0,0.0,0.0,0.0,0.0,0.0,0.0,0.0,0.0,0.0,0.0,0.0,0.0,0.0,0.0,0.0,0.0,0.0,0.0,0.0,0.0,0.0,0.0,0.0,0.0,0.0,0.0,0.0,-0.9957,-1.0621,-1.1464,-1.2656,-1.2918,-1.3005,-1.3005,-1.2278,-1.1536,-1.0847,-1.009,0.0,0.0,0.0,0.0,0.0,0.0,0.0,0.0,0.0,0.0,0.0,0.0,0.0,0.0,0.0,0.0,0.0,0.0,0.0,0.0,0.0,0.0,0.0,0.0,0.0,0.0,0.0,0.0,0.0,0.0,0.0,0.0,0.0,0.0,0.0,0.0,0.0,0.0,0.0,0.0,0.0,0.0,0.0,0.0,0.0,0.0,0.0,0.0,0.0,0.0,0.0,0.0,0.0,-0.9668,-1.0159,-1.0821,-1.0652,-1.0652,-1.0794,-1.0305,-0.9673,-0.9031,-0.8985,0.0,0.0,0.0,0.0,0.0,0.0,0.0,0.0,0.0,0.0,0.0,0.0,0.0,0.0,0.0,0.0,0.0,0.0,0.0,0.0,0.0,0.0,-0.8941,-0.9342,-0.9659,-0.9573,-0.8571,0.0,0.0,0.0,0.0,0.0,0.0,0.0,0.0,0.0,0.0,0.0,-1.0167,-1.0989,-1.1844,-1.277,-1.3106,-1.3287,-1.3287,-1.2779,-1.2104,-1.1276,-1.0888,-1.0204,0.0,0.0,0.0,0.0,0.0,0.0,0.0,0.0,0.0,0.0,0.0,0.0,0.0,0.0,0.0,0.0,0.0,0.0,0.0,0.0,0.0,0.0,0.0,0.0,0.0,0.0,0.0,0.0,0.0,0.0,0.0,0.0,-0.395,-0.3991,0.0,0.0,0.0,0.0,0.0,0.0,0.0,0.0,0.0,0.0,0.0,0.0,0.0,-0.6437,-0.7411,-0.7729,-0.8861,-1.0712,-0.9301,-0.9723,-1.1697,-1.0827,-1.0904,-1.1725,-1.1651,0.0,-0.9927,-0.9673,0.0,0.0,0.0,0.0,0.0,0.0,0.0,0.0,0.0,0.0,0.0,0.0,0.0,0.0,0.0,0.0,0.0,0.0,0.0,0.0,0.0,0.0,-0.9217,-1.019,-1.0445,-1.0432,-1.0278,-0.9379,-0.8631,-0.8631,-0.8165,-0.7799,0.0,0.0,0.0,0.0,0.0,0.0,-1.0795,-1.1423,-1.2158,-1.3053,-1.3373,-1.3547,-1.3547,-1.324,-1.2812,-1.2171,-1.1376,-1.0787,-1.0378,-0.9312,0.0,0.0,0.0,0.0,0.0,0.0,0.0,0.0,0.0,0.0,0.0,0.0,0.0,0.0,0.0,0.0,0.0,0.0,0.0,0.0,0.0,0.0,0.0,0.0,0.0,0.0,0.0,0.0,0.0,-0.4041,-0.4183,-0.4375,-0.4399,-0.4429,0.0,0.0,0.0,0.0,0.0,0.0,0.0,0.0,0.0,-0.5162,-0.5685,-0.641,-0.7348,-0.7626,-0.8529,-1.0033,-0.9259,-0.9542,-1.0632,-1.0209,-1.0247,-1.0665,-1.0491,-1.0143,-0.9693,-1.0218,-1.0227,-0.99,0.0,0.0,0.0,0.0,-0.861,-0.8135,-0.7886,-0.7177,-0.6385,-0.6571,0.0,0.0,0.0,0.0,0.0,0.0,0.0,-0.8005,-0.9179,-0.9007,-0.8682,-0.9153,-0.9461,-0.9634,-0.9634,-0.9478,-0.9358,-0.9488,-0.9205,-0.8918,-0.8918,-0.9132,0.0,0.0,0.0,-1.0635,-1.1424,-1.2033,-1.2683,-1.3333,-1.3714,-1.378,-1.362,-1.3487,-1.3087,-1.2351,-1.1944,-1.1376,-1.0626,-0.9907,-0.9252,0.0,0.0,0.0,0.0,0.0,0.0,0.0,0.0,0.0,0.0,0.0,0.0,0.0,0.0,0.0,0.0,0.0,0.0,0.0,0.0,0.0,0.0,0.0,0.0,0.0,0.0,0.0,0.0,-0.4311,-0.4442,-0.4769,-0.4802,-0.4863,0.0,0.0,0.0,0.0,0.0,0.0,-0.5261,-0.5268,-0.5389,-0.562,-0.5876,-0.6412,-0.7322,-0.76,-0.8295,-0.9389,-0.9156,-0.9301,-0.983,-0.9543,-0.9584,-0.982,-0.9621,-0.9483,-0.9483,-1.0384,-1.0521,-1.0129,-1.0269,-1.0207,-1.0013,-0.9963,-0.9351,-0.8555,-0.847,-0.7411,-0.6191,-0.6673,-0.6371,-0.5948,-0.6498,0.0,0.0,0.0,0.0,-0.8334,-0.8892,-0.8763,-0.8498,-0.8583,-0.8844,-0.9116,-0.9116,-0.9383,-0.9676,-0.9938,-0.9971,-0.9936,-0.9936,-0.9997,0.0,-1.0307,-1.0722,-1.1276,-1.1933,-1.2603,-1.3146,-1.3553,-1.3908,-1.4001,-1.3733,-1.372,-1.34,-1.2692,-1.2498,-1.2027,-1.1082,-1.0508,-0.9886,-0.9158,0.0,0.0,0.0,0.0,0.0,0.0,0.0,0.0,0.0,0.0,0.0,0.0,0.0,0.0,0.0,0.0,0.0,0.0,0.0,0.0,0.0,0.0,0.0,0.0,0.0,0.0,0.0,0.0,0.0,-0.5042,-0.5076,0.0,0.0,0.0,0.0,-0.5371,-0.5371,-0.5498,-0.5752,-0.5769,-0.5905,-0.6245,-0.6402,-0.6947,-0.7928,-0.808,-0.867,-0.965,-0.8719,-0.8945,-1.0141,-0.9181,-0.9265,-1.0183,-1.0173,-0.9965,-0.9722,-1.0021,-1.0139,-1.0177,-1.072,-1.0942,-1.0895,-1.0646,-0.9895,-0.889,-0.8249,-0.7312,-0.6273,-0.5694,-0.547,-0.5437,-0.547,-0.55,0.0,0.0,-0.7073,-0.7472,-0.8775,-0.9163,-0.9311,-0.9552,-0.9661,-0.9676,-0.9676,-0.9498,-0.9415,-0.9663,-1.0168,-1.0546,-1.0546,0.0,-1.0929,-1.0942,-1.167,-1.2231,-1.2271,-1.3014,-1.3573,-1.36,-1.3908,-1.4082,-1.4068,-1.4062,-1.3928,-1.3553,-1.3079,-1.261,-1.2231,-1.1169,-1.0412,-1.003,-0.9192,0.0,0.0,0.0,0.0,0.0,0.0,0.0,0.0,0.0,0.0,0.0,0.0,0.0,0.0,0.0,0.0,0.0,0.0,0.0,0.0,0.0,0.0,0.0,0.0,0.0,0.0,0.0,0.0,-0.5389,-0.5426,0.0,-0.5769,-0.5793,-0.5833,-0.5969,-0.5975,-0.6064,-0.6224,-0.6234,-0.6373,-0.6681,-0.6827,-0.7118,-0.7606,-0.7727,-0.7986,-0.8341,-0.7986,-0.8061,-0.8525,-0.8163,-0.8151,-0.8396,-0.8396,-0.8253,-0.8064,-0.8746,-0.9252,-0.9596,-0.9809,-0.9799,-0.9657,-0.9534,-0.8924,-0.8128,-0.8457,-0.7599,-0.6302,-0.6049,-0.5975,-0.5975,-0.5975,-0.6372,-0.6907,-0.7451,-0.7588,-0.7701,-0.8339,-0.8151,-0.7772,-0.7873,-0.7967,-0.8045,-0.8045,-0.8371,-0.8764,-0.8831,-0.982,-1.0821,-1.1572,-1.177,-1.1897,-1.2127,-1.2422,-1.2764,-1.3074,-1.3407,-1.3673,-1.3908,-1.4021,-1.4088,-1.4088,-1.4088,-1.3961,-1.362,-1.34,-1.3013,-1.2331,-1.1759,-1.1122,-1.0445,-0.9726,-0.9078,0.0,0.0,0.0,0.0,0.0,0.0,0.0,0.0,0.0,0.0,0.0,0.0,0.0,0.0,0.0,0.0,0.0,0.0,0.0,0.0,0.0,0.0,0.0,0.0,0.0,-0.5148,-0.5359,-0.5769,-0.5853,-0.5932,-0.6227,-0.6215,-0.6298,-0.6439,-0.6458,-0.6549,-0.6692,-0.6746,-0.6892,-0.7146,-0.7203,-0.7343,-0.7448,-0.755,-0.76,-0.76,-0.76,-0.76,-0.76,-0.76,-0.7543,-0.7448,-0.7448,-0.739,-0.733,-0.7893,-0.8326,-0.8698,-0.9221,-0.9331,-0.9169,-0.9169,-0.8581,-0.7843,-0.8082,-0.7383,-0.645,-0.645,-0.645,-0.645,-0.645,-0.6835,-0.7324,-0.7512,-0.751,-0.7542,-0.7696,-0.7349,-0.697,-0.7065,-0.7149,-0.7231,-0.7237,-0.7704,-0.8241,-0.8632,-0.9897,-1.1136,-1.1904,-1.2334,-1.2672,-1.2911,-1.3025,-1.3193,-1.3553,-1.3693,-1.3868,-1.4068,-1.4088,-1.4088,-1.4088,-1.4088,-1.4001,-1.3766,-1.366,-1.3333,-1.2741,-1.2278,-1.1732,-1.1048,-1.0258,-0.9539,-0.8924,0.0,0.0,0.0,0.0,0.0,0.0,0.0,0.0,0.0,0.0,0.0,0.0,0.0,0.0,0.0,0.0,0.0,0.0,0.0,0.0,0.0,0.0,0.0,-0.5409,-0.5416,-0.5644,-0.6242,-0.6313,-0.6429,-0.6685,-0.6715,-0.6719,-0.6729,-0.6865,-0.6967,-0.7102,-0.7295,-0.7448,-0.76,-0.7607,-0.7607,-0.7614,-0.7614,-0.7614,-0.7614,-0.7614,-0.7614,-0.7614,-0.7614,-0.7611,-0.7607,-0.7607,-0.7604,-0.76,-0.76,-0.7512,-0.7559,-0.9027,-0.9613,-0.9603,-0.9603,-0.8996,-0.802,-0.704,-0.6715,-0.6715,-0.6715,-0.6715,-0.6715,-0.6719,-0.6722,-0.6722,-0.6725,-0.6837,-0.6906,-0.6906,-0.7007,-0.7146,-0.7343,-0.7426,-0.7463,-0.7567,-0.76,-0.7922,-0.9025,-1.0446,-1.145,-1.1491,-1.2397,-1.3141,-1.3187,-1.3419,0.0,-1.3633,-1.3921,-1.4095,-1.4088,-1.4088,-1.4088,-1.4088,-1.4088,-1.4088,-1.4088,-1.3814,-1.3613,-1.36,-1.2806,-1.2198,-1.1926,-1.0735,-0.983,-0.9251,0.0,0.0,0.0,0.0,0.0,0.0,0.0,0.0,0.0,0.0,0.0,0.0,0.0,0.0,0.0,0.0,0.0,0.0,0.0,0.0,0.0,-0.5494,-0.5681,-0.5681,-0.5911,-0.6194,-0.6536,-0.658,-0.6695,-0.6947,-0.6974,-0.7112,-0.7336,-0.739,-0.7431,-0.7472,-0.7512,-0.7604,-0.7746,-0.7753,-0.7804,-0.787,-0.787,-0.787,-0.787,-0.787,-0.787,-0.787,-0.787,-0.7858,-0.7753,-0.7753,-0.7695,-0.76,-0.76,-0.7577,-0.7559,-0.7897,-0.7943,-0.7829,-0.7829,-0.766,-0.7361,-0.7104,-0.6974,-0.6974,-0.6974,-0.6974,-0.6997,-0.7153,-0.7187,-0.721,-0.7322,-0.7383,-0.7417,-0.7417,-0.7444,-0.7485,-0.7526,-0.7536,-0.755,-0.759,-0.76,-0.7691,-0.8013,-0.9046,-1.0197,-1.1037,-1.1485,-1.1976,-1.2911,-1.3103,-1.3442,-1.4173,-1.4349,-1.4322,-1.4108,-1.4088,-1.4088,-1.4088,-1.4088,-1.4088,-1.4088,-1.4008,-1.3868,-1.3613,-1.3367,-1.2933,-1.2198,-1.1243,-1.0568,0.0,0.0,0.0,0.0,0.0,0.0,0.0,0.0,0.0,0.0,0.0,0.0,0.0,0.0,0.0,0.0,0.0,0.0,0.0,0.0,0.0,0.0,-0.58,-0.6037,-0.6162,-0.6317,-0.6521,-0.6841,-0.6885,-0.7004,-0.7302,-0.7287,-0.7407,-0.7587,-0.7655,-0.7689,-0.7689,-0.775,-0.7821,-0.7902,-0.7906,-0.7901,-0.7988,-0.7988,-0.7988,-0.7988,-0.7988,-0.7988,-0.7988,-0.7988,-0.7941,-0.7906,-0.7906,-0.7862,-0.7784,-0.7784,-0.7746,-0.7675,0.0,0.0,0.0,0.0,-0.7287,-0.7287,-0.7287,-0.7287,-0.7287,-0.7287,-0.7287,-0.735,-0.7441,-0.7465,-0.7485,-0.7577,-0.76,-0.76,-0.76,-0.76,-0.7614,-0.7675,-0.7689,-0.7706,-0.777,-0.7784,-0.7784,-0.7784,-0.8302,0.0,-0.9668,-1.051,-1.1359,-1.2097,-1.2649,-1.3156,-1.3655,-1.4161,-1.4409,-1.4122,-1.4088,-1.4088,-1.4088,-1.4088,0.0,0.0,0.0,-1.3955,-1.3613,-1.3487,0.0,0.0,0.0,-1.1216,-1.0922,-1.0628,0.0,0.0,-0.8958,-0.8824,0.0,0.0,0.0,0.0,0.0,0.0,0.0,0.0,0.0,0.0,0.0,0.0,0.0,0.0,0.0,0.0,-0.6163,-0.6474,-0.6712,-0.6647,-0.6719,-0.7075,-0.7136,-0.726,-0.7597,-0.7624,-0.7631,-0.7648,-0.7767,-0.7838,-0.7838,-0.7917,0.0,0.0,0.0,-0.7988,-0.7988,-0.7988,-0.7988,-0.7988,-0.7988,-0.7988,-0.7988,-0.7988,-0.7988,-0.7988,-0.7988,-0.7988,-0.7988,-0.7988,-0.7911,-0.7821,-0.7662,-0.76,-0.76,-0.76,-0.76,-0.76,-0.76,0.0,0.0,-0.76,-0.76,-0.7604,-0.7617,-0.7624,-0.7628,-0.7645,-0.7648,-0.7648,-0.7648,-0.7648,-0.7682,-0.7807,-0.7838,-0.7875,-0.7961,-0.7988,-0.7988,-0.7988,-0.7988,-0.7988,-0.7988,-0.9527,-1.0788,-1.0927,-1.1948,-1.2598,-1.2489,-1.3554,-1.4189,-1.3773,-1.3932,0.0,-1.3906,-1.3997,-1.4088,-1.4088,-1.4088,-1.3968,-1.366,-1.3373,-1.3006,-1.2465,-1.2171,-1.1877,-1.157,-1.1316,-1.1169,-1.1122,-1.0241,-0.9967,0.0,0.0,0.0,0.0,0.0,0.0,0.0,0.0,0.0,0.0,0.0,0.0,0.0,0.0,0.0,-0.618,-0.6525,-0.6858,-0.6987,-0.7139,-0.7276,-0.7316,-0.7434,-0.7577,-0.7753,-0.777,-0.7821,-0.7894,-0.7931,-0.7944,-0.7944,-0.7975,-0.7988,-0.7988,-0.7988,-0.7988,-0.7988,-0.7988,-0.7988,-0.7988,-0.7988,0.0,-0.7988,-0.7988,-0.7988,-0.7988,-0.7988,-0.7988,-0.7988,-0.7988,-0.7971,-0.7921,-0.7702,-0.76,-0.76,-0.76,-0.76,-0.76,-0.76,-0.76,-0.76,-0.76,-0.76,-0.7621,-0.7736,-0.777,0.0,-0.787,-0.7904,-0.7904,-0.7904,-0.7904,-0.7914,-0.7938,-0.7944,-0.7955,-0.7982,-0.7988,-0.7988,-0.7988,-0.7988,-0.7988,-0.7988,-0.8329,-0.8969,-1.0034,-1.0418,-1.0871,-1.1641,-1.2654,-1.2804,-1.1573,-1.304,-1.3688,-1.2717,-1.3555,-1.4088,-1.4088,-1.4088,-1.4062,-1.4001,-1.368,-1.3467,-1.3347,-1.31,-1.2799,-1.2529,-1.2476,-1.2321,-1.2031,-1.1149,-1.0768,0.0,0.0,0.0,0.0,0.0,0.0,0.0,0.0,0.0,0.0,0.0,-0.5535,-0.5805,0.0,-0.6325,-0.6559,-0.6844,-0.7041,-0.7234,-0.7451,-0.759,-0.759,-0.7658,-0.7763,-0.7913,-0.7877,-0.7907,-0.7985,-0.7988,-0.7988,-0.7988,-0.7988,-0.7988,-0.7988,-0.7988,-0.7988,-0.7988,-0.7988,-0.7988,-0.7988,-0.7988,-0.7988,-0.7988,-0.7988,-0.7988,-0.7988,-0.7988,-0.7988,-0.7988,-0.7988,-0.7988,-0.7975,-0.783,-0.7821,-0.7821,-0.7821,-0.7821,-0.7821,-0.7821,-0.7821,-0.7821,-0.7821,-0.7821,-0.7834,-0.7902,-0.7877,-0.7891,-0.7968,-0.7988,-0.7988,-0.7988,-0.7988,-0.7988,-0.7988,-0.7988,-0.7988,-0.7988,-0.7988,-0.7988,-0.7988,-0.7988,-0.7988,-0.7988,-0.7988,-0.8233,-0.8874,-0.9558,-1.0125,-1.0448,-1.1461,-1.1783,-1.0885,-1.1712,-1.2077,-1.1515,-1.251,-1.3203,-1.3203,-1.3779,-1.4088,-1.4088,-1.376,-1.36,-1.36,-1.336,-1.3133,-1.3018,-1.3018,-1.2899,-1.2746,-1.2305,-1.2017,0.0,0.0,0.0,0.0,0.0,0.0,0.0,-0.4254,-0.4572,-0.5356,-0.5725,-0.6006,-0.6293,-0.6484,-0.6651,-0.6883,-0.7048,-0.7248,-0.7431,-0.7662,-0.7821,-0.7851,-0.7855,-0.7902,-0.7978,-0.7988,-0.7988,-0.7988,-0.7988,-0.7988,-0.7988,-0.7988,-0.7988,-0.7988,-0.7988,-0.7988,-0.7988,-0.7988,-0.7988,-0.7988,-0.7988,-0.7988,-0.7988,-0.7988,-0.7988,-0.7988,-0.7988,-0.7988,-0.7988,-0.7988,-0.7988,-0.7988,-0.7988,-0.7988,-0.7988,-0.7988,-0.7988,-0.7988,-0.7988,-0.7988,-0.7988,-0.7988,-0.7988,-0.7988,-0.7988,-0.7988,-0.7988,-0.7988,-0.7988,-0.7988,-0.7988,-0.7988,-0.7988,-0.7988,-0.7988,-0.7988,-0.7988,-0.7988,-0.7988,-0.7988,-0.7988,-0.7988,-0.7988,-0.7988,-0.7988,-0.7988,-0.892,-0.9506,-0.9268,-1.0222,-1.0772,-1.0281,-1.0485,-1.0613,-1.0611,-1.1423,-1.2066,-1.2279,-1.3203,-1.3864,-1.4088,-1.3854,-1.3686,-1.3686,-1.346,-1.338,-1.338,-1.338,-1.338,-1.338,-1.338,-1.3186,0.0,-0.058,-0.138,-0.2302,-0.3206,-0.4092,0.0,-0.5519,-0.5662,-0.5888,-0.619,-0.6446,-0.648,-0.6681,-0.6886,-0.7048,-0.7244,-0.7444,-0.7723,-0.779,-0.7862,-0.7948,-0.7965,-0.7971,-0.7988,-0.7988,-0.7988,-0.7988,-0.7988,-0.7988,-0.7988,-0.7988,-0.7988,-0.7988,-0.7988,-0.7988,-0.7988,-0.7988,-0.7988,-0.7988,-0.7988,-0.7988,-0.7988,-0.7988,-0.7988,-0.7988,-0.7988,-0.7988,-0.7988,-0.7988,-0.7988,-0.7988,-0.7988,-0.7988,-0.7988,-0.7988,-0.7988,-0.7988,-0.7988,-0.7988,-0.7988,-0.7988,-0.7988,-0.7988,-0.7988,-0.7988,-0.7988,-0.7988,-0.7988,-0.7988,-0.7988,-0.7988,-0.7988,-0.7988,-0.7988,-0.7988,-0.7988,-0.7988,-0.7988,-0.7988,-0.7988,-0.7988,-0.7988,-0.7988,-0.7988,-0.7988,-0.8137,-0.823,-0.8163,-0.9086,-0.9303,-0.8236,-0.9701,-1.074,-1.0626,-1.074,-1.1209,-1.2242,-1.2413,-1.2984,-1.4046,-1.4055,-1.4041,-1.4041,-1.4008,-1.3988,-1.3988,-1.3988,-1.3988,-1.3988,-1.3988,-1.3687,-0.0758,-0.1501,-0.2386,-0.3583,-0.4449,-0.5215,-0.5872,-0.6126,-0.621,-0.6274,-0.6529,-0.6763,-0.6848,-0.7037,-0.7234,-0.7383,-0.7529,-0.7672,-0.7794,-0.7889,-0.7917,-0.7982,-0.7988,-0.7988,-0.7988,-0.7988,-0.7988,-0.7988,-0.7988,-0.7988,-0.7988,-0.7988,-0.7988,-0.7988,-0.7988,-0.7988,-0.7988,-0.7988,-0.7988,-0.7988,-0.7988,-0.7988,-0.7988,-0.7988,-0.7988,-0.7988,-0.7988,-0.7988,-0.7988,-0.7988,-0.7988,-0.7988,-0.7988,-0.7988,-0.7988,-0.7988,-0.7988,-0.7988,-0.7988,-0.7988,-0.7988,-0.7988,-0.7988,-0.7988,-0.7988,-0.7988,-0.7988,-0.7988,-0.7988,-0.7988,-0.7988,-0.7988,-0.7988,-0.7988,-0.7988,-0.7988,-0.7988,-0.7988,-0.7988,-0.7988,-0.7988,-0.7988,-0.7988,-0.7988,-0.7988,-0.7988,-0.7988,-0.7988,-0.7988,-0.8293,-0.8266,-0.762,-0.8216,-0.8613,-0.858,-0.9187,-0.9792,-1.0308,-1.1558,-1.2547,-1.3027,-1.373,-1.4088,-1.4088,-1.4088,-1.4088,-1.4088,-1.4088,-1.4088,-1.4088,-1.4088,-1.3955,-0.1344,-0.2219,-0.3122,-0.4467,-0.5424,-0.6054,-0.6361,-0.6495,-0.66,-0.66,-0.6807,-0.6974,-0.7078,-0.7265,-0.7421,-0.7577,-0.7719,-0.7824,-0.7868,-0.7921,-0.7988,-0.7988,-0.7988,-0.7988,-0.7988,-0.7988,-0.7988,-0.7988,-0.7988,-0.7988,-0.7988,-0.7988,-0.7988,-0.7988,-0.7988,-0.7988,-0.7988,-0.7988,-0.7988,-0.7988,-0.7988,-0.7988,-0.7988,-0.7988,-0.7988,-0.7988,-0.7988,-0.7988,-0.7988,-0.7988,-0.7988,-0.7988,-0.7988,-0.7988,-0.7988,-0.7988,-0.7988,-0.7988,-0.7988,-0.7988,-0.7988,-0.7988,-0.7988,-0.7988,-0.7988,-0.7988,-0.7988,-0.7988,-0.7988,-0.7988,-0.7988,-0.7988,-0.7988,-0.7988,-0.7988,-0.7988,-0.7988,-0.7988,-0.7988,-0.7988,-0.7988,-0.7988,-0.7988,-0.7988,-0.7988,-0.7988,-0.7988,-0.7988,-0.7988,-0.7906,-0.7716,-0.7461,-0.7295,-0.7142,-0.7098,-0.7885,-0.854,-0.889,-1.074,-1.1986,-1.2279,-1.347,-1.4088,-1.4088,-1.4088,-1.4088,-1.4088,-1.4088,-1.4088,-1.4088,-1.4088,-1.4088,-0.1457,-0.2444,-0.3423,-0.4738,-0.5802,-0.6532,-0.6651,-0.6807,-0.6873,-0.6873,-0.6987,-0.7092,-0.7095,-0.7265,-0.7421,-0.7577,-0.7719,-0.7865,-0.7961,-0.7985,-0.7988,-0.7988,-0.7988,-0.7988,-0.7988,-0.7988,-0.7988,-0.7988,-0.7988,-0.7988,-0.7988,-0.7988,-0.7988,-0.7988,-0.7988,-0.7988,-0.7988,-0.7988,-0.7988,-0.7988,-0.7988,-0.7988,-0.7988,-0.7988,-0.7988,-0.7988,-0.7988,-0.7988,-0.7988,-0.7988,-0.7988,-0.7988,-0.7988,-0.7988,-0.7988,-0.7988,-0.7988,-0.7988,-0.7988,-0.7988,-0.7988,-0.7988,-0.7988,-0.7988,-0.7988,-0.7988,-0.7988,-0.7988,-0.7988,-0.7988,-0.7988,-0.7988,-0.7988,-0.7988,-0.7988,-0.7988,-0.7988,-0.7988,-0.7988,-0.7988,-0.7988,-0.7988,-0.7988,-0.7988,-0.7988,-0.7988,-0.7988,-0.7988,-0.7988,-0.7906,-0.7753,-0.7607,-0.7455,-0.7302,-0.7109,-0.7139,-0.7665,-0.8846,-1.0009,-1.1166,-1.2237,-1.347,-1.4088,-1.4088,-1.4088,-1.4088,-1.4088,-1.4088,-1.4088,-1.4088,-1.4088,-1.4088,-0.2303,-0.3008,-0.3719,-0.5776,-0.6518,-0.6814,-0.6916,-0.6991,-0.7024,-0.7024,-0.7061,-0.7129,-0.7275,-0.7336,-0.7451,-0.7699,-0.778,-0.7865,-0.7968,-0.7988,-0.7988,-0.7988,-0.7988,-0.7988,-0.7988,-0.7988,-0.7988,-0.7988,-0.7988,-0.7988,-0.7988,-0.7988,-0.7988,-0.7988,-0.7988,-0.7988,-0.7988,-0.7988,-0.7988,-0.7988,-0.7988,-0.7988,-0.7988,-0.7988,-0.7988,-0.7988,-0.7988,-0.7988,-0.7988,-0.7988,-0.7988,-0.7988,-0.7988,-0.7988,-0.7988,-0.7988,-0.7988,-0.7988,-0.7988,-0.7988,-0.7988,-0.7988,-0.7988,-0.7988,-0.7988,-0.7988,-0.7988,-0.7988,-0.7988,-0.7988,-0.7988,-0.7988,-0.7988,-0.7988,-0.7988,-0.7988,-0.7988,-0.7988,-0.7988,-0.7988,-0.7988,-0.7988,-0.7988,-0.7988,-0.7988,-0.7988,-0.7988,-0.7955,-0.7899,-0.776,-0.7614,-0.7465,-0.7309,-0.7152,-0.7098,-0.7841,-0.8452,-0.889,-1.0697,-1.1895,-1.2279,-1.347,-1.4088,-1.4088,-1.4088,-1.4088,-1.4088,-1.4088,-1.4088,-1.4088,-1.4088,-1.4088,-0.2907,-0.3709,-0.4516,-0.6463,-0.696,-0.6984,-0.7075,-0.7095,-0.7095,-0.7095,-0.7095,-0.7125,-0.7272,-0.7333,-0.7451,-0.7695,-0.7777,-0.7865,-0.7968,-0.7988,-0.7988,-0.7988,-0.7988,-0.7988,-0.7988,-0.7988,-0.7988,-0.7988,-0.7988,-0.7988,-0.7988,-0.7988,-0.7988,-0.7988,-0.7988,-0.7988,-0.7988,-0.7988,-0.7988,-0.7988,-0.7988,-0.7988,-0.7988,-0.7988,-0.7988,-0.7988,-0.7988,-0.7988,-0.7988,-0.7988,-0.7988,-0.7988,-0.7988,-0.7988,-0.7988,-0.7988,-0.7988,-0.7988,-0.7988,-0.7988,-0.7988,-0.7988,-0.7988,-0.7988,-0.7988,-0.7988,-0.7988,-0.7988,-0.7988,-0.7988,-0.7988,-0.7988,-0.7988,-0.7988,-0.7988,-0.7988,-0.7988,-0.7988,-0.7988,-0.7988,-0.7988,-0.7988,-0.7988,-0.7988,-0.7988,-0.7988,-0.7941,-0.7874,-0.7824,-0.7641,-0.7482,-0.7429,-0.7234,-0.7272,-0.7709,-0.8452,-0.9065,-0.9492,-1.1252,-1.2285,-1.2285,-1.347,-1.4088,-1.4088,-1.4088,-1.4088,-1.4088,-1.4088,-1.4088,-1.4088,-1.4088,-1.4088,-0.3336,-0.4516,-0.5694,-0.6794,-0.7095,-0.7095,-0.7088,-0.7085,-0.7085,-0.7075,-0.7071,-0.7078,-0.7085,-0.7248,-0.74,-0.7563,-0.7706,-0.7851,-0.7958,-0.7985,-0.7988,-0.7988,-0.7988,-0.7988,-0.7988,-0.7988,-0.7988,-0.7988,-0.7988,-0.7988,-0.7988,-0.7988,-0.7988,-0.7988,-0.7988,-0.7988,-0.7988,-0.7988,-0.7988,-0.7988,-0.7988,-0.7988,-0.7988,-0.7988,-0.7988,-0.7988,-0.7988,-0.7988,-0.7988,-0.7988,-0.7988,-0.7988,-0.7988,-0.7988,-0.7988,-0.7988,-0.7988,-0.7988,-0.7988,-0.7988,-0.7988,-0.7988,-0.7988,-0.7988,-0.7988,-0.7988,-0.7988,-0.7988,-0.7988,-0.7988,-0.7988,-0.7988,-0.7988,-0.7988,-0.7988,-0.7988,-0.7988,-0.7988,-0.7988,-0.7988,-0.7988,-0.7988,-0.7988,-0.7988,-0.7985,-0.7978,-0.7896,-0.7801,-0.7801,-0.755,-0.7412,-0.7405,-0.7227,-0.7577,-0.8715,-0.8846,-0.9362,-1.0438,-1.1595,-1.2242,-1.2285,-1.3385,-1.4039,-1.4088,-1.4088,-1.4088,-1.4088,-1.4088,-1.4088,-1.4088,-1.4088,-1.4088,-0.4373,-0.5167,-0.5694,-0.6794,-0.7095,-0.7068,-0.6964,-0.694,-0.6906,-0.6837,-0.6814,-0.6848,-0.692,-0.697,-0.7126,-0.7387,-0.7556,-0.7702,-0.7848,-0.7917,-0.7988,-0.7988,-0.7988,-0.7988,-0.7988,-0.7988,-0.7988,-0.7988,-0.7988,-0.7988,-0.7988,-0.7988,-0.7988,-0.7988,-0.7988,-0.7988,-0.7988,-0.7988,-0.7988,-0.7988,-0.7988,-0.7988,-0.7988,-0.7988,-0.7988,-0.7988,-0.7988,-0.7988,-0.7988,-0.7988,-0.7988,-0.7988,-0.7988,-0.7988,-0.7988,-0.7988,-0.7988,-0.7988,-0.7988,-0.7988,-0.7988,-0.7988,-0.7988,-0.7988,-0.7988,-0.7988,-0.7988,-0.7988,-0.7988,-0.7988,-0.7988,-0.7988,-0.7988,-0.7988,-0.7988,-0.7988,-0.7988,-0.7988,-0.7988,-0.7988,-0.7988,-0.7988,-0.7988,-0.7988,-0.7951,-0.7885,-0.7746,-0.7655,-0.7655,-0.7489,-0.7326,-0.721,-0.7119,-0.7228,-0.7533,-0.8364,-0.9017,-0.9323,-1.0394,-1.1423,-1.2242,-1.2589,-1.316,-1.4088,-1.4088,-1.4088,-1.4088,-1.4088,-1.4088,-1.4088,-1.4088,-1.4088,-0.3599,-0.4574,-0.5542,-0.6186,-0.6292,-0.6362,-0.6817,-0.6832,-0.6803,-0.6719,-0.6702,-0.6725,-0.6814,-0.6827,-0.6926,-0.7221,-0.7343,-0.7495,-0.7773,-0.7885,-0.7914,-0.7982,-0.7988,-0.7988,-0.7988,-0.7988,-0.7988,-0.7988,-0.7988,-0.7988,-0.7988,-0.7988,-0.7988,-0.7988,-0.7988,-0.7988,-0.7988,-0.7988,-0.7988,-0.7988,-0.7988,-0.7988,-0.7988,-0.7988,-0.7988,-0.7988,-0.7988,-0.7988,-0.7988,-0.7988,-0.7988,-0.7988,-0.7988,-0.7988,-0.7988,-0.7988,-0.7988,-0.7988,-0.7988,-0.7988,-0.7988,-0.7988,-0.7988,-0.7988,-0.7988,-0.7988,-0.7988,-0.7988,-0.7988,-0.7988,-0.7988,-0.7988,-0.7988,-0.7988,-0.7988,-0.7988,-0.7988,-0.7988,-0.7988,-0.7988,-0.7988,-0.7988,-0.7988,-0.7934,-0.7909,-0.7824,-0.7634,-0.7499,-0.7499,-0.7366,-0.7238,-0.7105,-0.7095,-0.7316,-0.7841,-0.8496,-0.9104,-0.9623,-1.0265,-1.0869,-1.1509,-1.1552,-1.212,-1.3294,-1.3294,-1.3561,-1.4088,-1.4088,-1.4088,-1.4088,-1.4088,-1.4088,-0.2292,-0.3568,-0.5179,-0.5179,-0.5138,-0.5357,-0.6383,-0.6637,-0.6637,-0.6617,-0.6593,-0.6586,-0.6607,-0.6627,-0.6732,-0.6964,-0.7058,-0.7237,-0.7695,-0.7787,-0.7868,-0.7971,-0.7988,-0.7988,-0.7988,-0.7988,-0.7988,-0.7988,-0.7988,-0.7988,-0.7988,-0.7988,-0.7988,-0.7988,-0.7988,-0.7988,-0.7988,-0.7988,-0.7988,-0.7988,-0.7988,-0.7988,-0.7988,-0.7988,-0.7988,-0.7988,-0.7988,-0.7988,-0.7988,-0.7988,-0.7988,-0.7988,-0.7988,-0.7988,-0.7988,-0.7988,-0.7988,-0.7988,-0.7988,-0.7988,-0.7988,-0.7988,-0.7988,-0.7988,-0.7988,-0.7988,-0.7988,-0.7988,-0.7988,-0.7988,-0.7988,-0.7988,-0.7988,-0.7988,-0.7988,-0.7988,-0.7988,-0.7988,-0.7988,-0.7988,-0.7975,-0.7961,-0.7961,-0.7882,-0.7777,-0.7756,-0.7536,-0.7409,-0.7343,-0.7224,-0.7095,-0.7095,-0.7095,-0.7536,-0.8584,-0.8671,-0.9104,-1.0091,-1.0135,-1.0221,-1.0351,-1.0351,-1.0913,-1.2066,-1.2072,-1.2595,-1.3652,-1.3779,-1.3864,-1.3864,-1.4046,-1.4088,-0.309,-0.3604,-0.3927,-0.3927,-0.4524,-0.512,-0.5204,-0.5838,-0.634,-0.6173,-0.6047,-0.5996,-0.6084,-0.6251,-0.6433,-0.6559,-0.6898,-0.7169,-0.7417,-0.7658,-0.7868,-0.7971,-0.7988,-0.7988,-0.7988,-0.7988,-0.7988,-0.7988,-0.7988,-0.7988,-0.7988,-0.7988,-0.7988,-0.7988,-0.7988,-0.7988,-0.7988,-0.7988,-0.7988,-0.7988,-0.7988,-0.7988,-0.7988,-0.7988,-0.7988,-0.7988,-0.7988,-0.7988,-0.7988,-0.7988,-0.7988,-0.7988,-0.7988,-0.7988,-0.7988,-0.7988,-0.7988,-0.7988,-0.7988,-0.7988,-0.7988,-0.7988,-0.7988,-0.7988,-0.7988,-0.7988,-0.7988,-0.7988,-0.7988,-0.7988,-0.7988,-0.7988,-0.7988,-0.7988,-0.7988,-0.7988,-0.7988,-0.7988,-0.7988,-0.7988,-0.7887,-0.7851,-0.7851,-0.7733,-0.7594,-0.7465,-0.745,-0.7326,-0.7152,-0.7112,-0.7095,-0.7095,-0.7095,-0.7183,-0.7401,-0.7404,-0.7489,-0.7705,-0.7705,-0.8141,-0.9148,-0.9192,-0.9753,-1.0869,-1.0907,-1.0999,-1.1214,-1.2163,-1.2589,-1.2638,-1.3646,-1.4088,-0.1735,-0.2191,-0.2674,-0.2644,-0.2983,-0.3412,-0.395,-0.4369,-0.4707,-0.5005,-0.5021,-0.5139,-0.5679,-0.5861,-0.6047,-0.6354,-0.6603,-0.6898,-0.7207,-0.7512,-0.7756,-0.7902,-0.7941,-0.7988,-0.7988,-0.7988,-0.7988,-0.7988,-0.7988,-0.7988,-0.7988,-0.7988,-0.7988,-0.7988,-0.7988,-0.7988,-0.7988,-0.7988,-0.7988,-0.7988,-0.7988,-0.7988,-0.7988,-0.7988,-0.7988,-0.7988,-0.7988,-0.7988,-0.7988,-0.7988,-0.7988,-0.7988,-0.7988,-0.7988,-0.7988,-0.7988,-0.7988,-0.7988,-0.7988,-0.7988,-0.7988,-0.7988,-0.7988,-0.7988,-0.7988,-0.7988,-0.7988,-0.7988,-0.7988,-0.7988,-0.7988,-0.7988,-0.7988,-0.7988,-0.7988,-0.7988,-0.7988,-0.7988,-0.7968,-0.7887,-0.7862,-0.7787,-0.7712,-0.758,-0.7455,-0.7429,-0.7302,-0.7224,-0.7105,-0.7095,-0.7095,-0.7095,-0.7095,-0.7095,-0.7095,-0.7095,-0.7095,-0.7095,-0.7095,-0.736,-0.7929,-0.7973,-0.8536,-0.971,-0.971,-1.0009,-1.0611,-1.1166,-1.1423,-1.1423,-1.1997,-1.2303,-0.0266,-0.0713,-0.1418,-0.1394,-0.1524,-0.1842,-0.272,-0.2994,-0.3239,-0.3804,-0.3908,-0.4149,-0.5036,-0.5256,-0.5489,-0.6054,-0.633,-0.6583,-0.6987,-0.7356,-0.7614,-0.779,-0.7897,-0.7988,-0.7988,-0.7988,-0.7988,-0.7988,-0.7988,-0.7988,-0.7988,-0.7988,-0.7988,-0.7988,-0.7988,-0.7988,-0.7988,-0.7988,-0.7988,-0.7988,-0.7988,-0.7988,-0.7988,-0.7988,-0.7988,-0.7988,-0.7988,-0.7988,-0.7988,-0.7988,-0.7988,-0.7988,-0.7988,-0.7988,-0.7988,-0.7988,-0.7988,-0.7988,-0.7988,-0.7988,-0.7988,-0.7988,-0.7988,-0.7988,-0.7988,-0.7988,-0.7988,-0.7988,-0.7988,-0.7988,-0.7988,-0.7988,-0.7988,-0.7988,-0.7988,-0.7982,-0.7948,-0.7941,-0.7897,-0.7794,-0.774,-0.7682,-0.757,-0.7424,-0.7322,-0.7322,-0.7217,-0.7095,-0.7095,-0.7095,-0.7095,-0.7095,-0.7095,-0.7095,-0.7095,-0.7095,-0.7095,-0.7095,-0.7095,-0.7095,-0.7095,-0.7095,-0.7533,-0.8496,-0.8496,-0.8973,-0.9831,-1.0091,-1.0226,-1.0226,-1.0481,-1.0611,-0.0044,-0.0087,-0.0174,-0.0174,-0.0871,-0.1615,-0.1725,-0.2367,-0.2943,-0.2993,-0.2938,-0.3082,-0.3828,-0.4156,-0.4622,-0.5515,-0.6044,-0.6477,-0.6842,-0.7204,-0.7495,-0.7777,-0.7897,-0.7988,-0.7988,-0.7988,-0.7988,-0.7988,-0.7988,-0.7988,-0.7988,-0.7988,-0.7988,-0.7988,-0.7988,-0.7988,-0.7988,-0.7988,-0.7988,-0.7988,-0.7988,-0.7988,-0.7988,-0.7988,-0.7988,-0.7988,-0.7988,-0.7988,-0.7988,-0.7988,-0.7988,-0.7988,-0.7988,-0.7988,-0.7988,-0.7988,-0.7988,-0.7988,-0.7988,-0.7988,-0.7988,-0.7988,-0.7988,-0.7988,-0.7988,-0.7988,-0.7988,-0.7988,-0.7988,-0.7988,-0.7988,-0.7988,-0.7988,-0.7988,-0.7988,-0.7951,-0.7862,-0.7831,-0.779,-0.7648,-0.7506,-0.7453,-0.7439,-0.7265,-0.7119,-0.7119,-0.7105,-0.7095,-0.7095,-0.7095,-0.7095,-0.7095,-0.7095,-0.7095,-0.7095,-0.7095,-0.7095,-0.7095,-0.7095,-0.7095,-0.7095,-0.7095,-0.7139,-0.7272,-0.7272,-0.7316,-0.7445,-0.8536,-0.9061,-0.9065,-1.0139,-1.0611,0.0,0.0,0.0,0.0,-0.0321,-0.0618,-0.0655,-0.0902,-0.1291,-0.1725,-0.1763,-0.2004,-0.2868,-0.3474,-0.405,-0.4654,-0.5461,-0.6139,-0.659,-0.6987,-0.7343,-0.7648,-0.7814,-0.7887,-0.7982,-0.7988,-0.7988,-0.7988,-0.7988,-0.7988,-0.7988,-0.7988,-0.7988,-0.7988,-0.7988,-0.7988,-0.7988,-0.7988,-0.7988,-0.7988,-0.7988,-0.7988,-0.7988,-0.7988,-0.7988,-0.7988,-0.7988,-0.7988,-0.7988,-0.7988,-0.7988,-0.7988,-0.7988,-0.7988,-0.7988,-0.7988,-0.7988,-0.7988,-0.7988,-0.7988,-0.7988,-0.7988,-0.7434,-0.6933,-0.7736,-0.7988,-0.7988,-0.7988,-0.7988,-0.7839,-0.6983,-0.6783,-0.6783,-0.6783,-0.6773,-0.6801,-0.6748,-0.6096,-0.5678,-0.6273,-0.6348,-0.6515,-0.7113,-0.7136,-0.7095,-0.7095,-0.7095,-0.7095,-0.7095,-0.7095,-0.7095,-0.7095,-0.7095,-0.7095,-0.7095,-0.7095,-0.7095,-0.7095,-0.7095,-0.7095,-0.7095,-0.7095,-0.7095,-0.7095,-0.7095,-0.7095,-0.7095,-0.7577,-0.7797,-0.7841,-0.8269,-0.8488,0.0,0.0,0.0,0.0,0.0,0.0,0.0,0.0,-0.0159,-0.0656,-0.0787,-0.1042,-0.1937,-0.2737,-0.3465,-0.4048,-0.5055,-0.5895,-0.6385,-0.6797,-0.7146,-0.7495,-0.7695,-0.7872,-0.7975,-0.7988,-0.7988,-0.7988,-0.7988,-0.7988,-0.7988,-0.7988,-0.7988,-0.7988,-0.7988,-0.7988,-0.7988,-0.7988,-0.7988,-0.7988,-0.7988,-0.7988,-0.7988,-0.7988,-0.7988,-0.7988,-0.7988,-0.7988,-0.7988,-0.7988,-0.7988,-0.7988,-0.7988,-0.7988,-0.7988,-0.7988,-0.7988,-0.7988,-0.7988,-0.7988,-0.7939,-0.7537,-0.6781,-0.6079,-0.6628,-0.6828,-0.6828,-0.6828,-0.6828,-0.6578,-0.5675,-0.5425,-0.5418,-0.539,-0.5426,-0.5405,-0.5341,-0.4608,-0.4256,-0.5319,-0.5526,-0.5862,-0.6935,-0.7095,-0.7095,-0.7095,-0.7095,-0.7095,-0.7095,-0.7095,-0.7095,-0.7095,-0.7095,-0.7095,-0.7095,-0.7095,-0.7095,-0.7095,-0.7095,-0.7095,-0.7095,-0.7095,-0.7095,-0.7095,-0.7095,-0.7095,-0.7095,-0.7095,-0.7095,-0.7095,-0.7095,-0.7095,0.0,0.0,0.0,0.0,0.0,0.0,0.0,0.0,0.0,0.0,0.0,-0.0224,-0.0979,-0.1894,-0.2843,-0.3843,-0.4919,-0.5749,-0.6238,-0.6651,-0.7041,-0.7385,-0.7634,-0.7872,-0.7975,-0.7988,-0.7988,-0.7988,-0.7988,-0.7988,-0.7988,-0.7988,-0.7988,-0.7988,-0.7988,-0.7988,-0.7988,-0.7988,-0.7988,-0.7988,-0.7988,-0.7988,-0.7988,-0.7988,-0.7988,-0.7988,-0.7988,-0.7988,-0.7988,-0.7988,-0.7988,-0.7988,-0.7988,-0.7988,-0.7988,-0.7988,-0.7988,-0.7988,-0.7988,-0.7988,-0.7786,-0.6431,-0.6029,-0.5777,-0.4418,-0.4066,-0.4066,-0.4066,-0.4066,-0.4016,-0.4016,-0.4016,-0.3999,-0.4027,-0.4009,-0.3967,-0.3859,-0.3823,-0.4122,-0.5203,-0.5406,-0.5761,-0.6918,-0.7095,-0.7095,-0.7095,-0.7095,-0.7095,-0.7095,-0.7095,-0.7095,-0.7095,-0.7095,-0.7095,-0.7095,-0.7095,-0.7095,-0.7095,-0.7095,-0.7095,-0.7095,-0.7095,-0.7095,-0.7095,-0.7095,-0.7095,-0.7095,-0.7095,-0.7095,-0.7095,-0.7095,-0.7095,0.0,0.0,0.0,0.0,0.0,0.0,0.0,0.0,0.0,0.0,0.0,-0.0084,-0.0308,-0.1015,-0.1883,-0.2932,-0.3959,-0.4991,-0.5962,-0.6488,-0.6922,-0.7368,-0.7726,-0.7938,-0.7985,-0.7988,-0.7988,-0.7988,-0.7988,-0.7988,-0.7988,-0.7988,-0.7988,-0.7988,-0.7988,-0.7988,-0.7988,-0.7988,-0.7988,-0.7988,-0.7988,-0.7988,-0.7988,-0.7988,-0.7988,-0.7988,-0.7988,-0.7988,-0.7988,-0.7988,-0.7988,-0.7988,-0.7988,-0.7988,-0.7889,-0.6983,-0.6631,-0.6478,-0.5572,-0.527,-0.522,-0.4768,-0.4019,-0.3167,-0.2765,-0.3265,-0.4016,-0.4016,-0.3316,-0.2657,-0.2622,-0.2614,-0.265,-0.2651,-0.2613,-0.2624,-0.2591,-0.1872,-0.1535,-0.2731,-0.295,-0.3575,-0.5581,-0.5938,-0.6204,-0.6962,-0.7095,-0.7095,-0.7095,-0.7095,-0.7095,-0.7095,-0.7095,-0.7095,-0.7095,-0.7095,-0.7095,-0.7095,-0.7095,-0.7095,-0.7095,-0.7095,-0.7095,-0.7095,-0.7095,-0.7095,-0.7095,-0.7095,-0.7095,-0.7095,-0.7095,-0.7095,0.0,0.0,0.0,0.0,0.0,0.0,0.0,0.0,0.0,0.0,0.0,0.0,0.0,-0.0616,-0.1342,-0.2039,-0.3324,-0.4498,-0.5334,-0.6179,-0.6888,-0.7397,-0.775,-0.7928,-0.7985,-0.7988,-0.7988,-0.7988,-0.7988,-0.7988,-0.7988,-0.7988,-0.7988,-0.7988,-0.7988,-0.7988,-0.7988,-0.7988,-0.7988,-0.7988,-0.7988,-0.7988,-0.7988,-0.7988,-0.7988,-0.7988,-0.7988,-0.7736,0.0,-0.7789,-0.7381,-0.6526,-0.7033,-0.693,-0.6376,-0.5575,-0.5222,-0.5122,-0.4268,-0.4016,-0.3915,-0.3416,-0.2314,-0.126,-0.126,-0.1812,-0.2514,-0.2514,-0.1903,-0.1243,-0.1228,-0.1266,-0.1253,-0.123,-0.1259,-0.1245,-0.1236,-0.0589,-0.0359,-0.1567,-0.179,-0.2415,-0.4374,-0.509,-0.5625,-0.634,-0.6827,-0.7095,-0.7095,-0.7095,-0.7095,-0.7095,-0.7048,-0.7018,-0.7018,-0.7065,-0.7071,-0.7021,-0.7018,-0.6991,-0.6933,-0.693,-0.693,-0.693,-0.693,-0.693,-0.693,-0.693,-0.693,-0.693,-0.693,-0.693,0.0,0.0,0.0,0.0,0.0,0.0,0.0,0.0,0.0,0.0,0.0,0.0,0.0,-0.0561,-0.1089,-0.128,-0.2813,-0.4141,-0.4472,-0.5795,-0.6959,-0.7533,-0.7733,-0.7882,-0.7975,-0.7988,-0.7988,-0.7988,-0.7988,-0.7988,-0.7988,-0.7988,-0.7988,-0.7988,-0.7988,-0.7988,-0.7988,-0.7988,-0.7988,-0.7988,-0.7988,-0.7988,-0.7988,-0.7988,-0.7988,-0.7988,-0.7889,-0.7132,-0.6079,-0.7235,-0.6224,-0.4116,-0.5375,-0.5072,-0.3966,-0.3915,-0.3865,-0.3865,-0.3765,-0.3715,-0.3515,-0.2264,-0.1008,0.0,0.0,0.0,0.0,0.0,0.0,0.0,0.0,0.0,0.0,0.0,0.0,0.0,0.0,0.0,-0.0314,-0.1433,-0.1656,-0.2057,-0.326,-0.4419,-0.5181,-0.527,-0.6248,-0.6962,-0.6962,-0.7044,-0.7082,-0.7082,-0.6953,-0.6869,-0.6869,-0.6991,-0.7007,-0.6876,-0.6869,-0.6848,-0.6705,-0.6702,-0.6702,-0.6702,-0.6702,-0.6702,-0.6702,-0.6702,-0.6702,-0.6702,-0.6702,-0.6702,0.0,0.0,0.0,0.0,0.0,0.0,0.0,0.0,0.0,0.0,0.0,0.0,0.0,-0.0143,-0.0501,-0.1193,-0.181,-0.2782,-0.4409,-0.6143,-0.7309,-0.757,-0.7828,-0.7948,-0.7985,-0.7988,-0.7988,-0.7988,-0.7988,-0.7988,-0.7988,-0.7988,-0.7988,-0.7988,-0.7988,-0.7988,-0.7988,-0.7988,-0.7988,-0.7988,-0.7988,-0.7988,-0.7988,-0.7988,-0.7988,-0.7939,-0.6933,-0.6279,-0.5929,-0.522,-0.4568,-0.4016,-0.4368,-0.4268,-0.3865,-0.2865,-0.2464,-0.2314,-0.131,-0.0958,-0.0907,-0.0555,-0.0252,0.0,0.0,0.0,0.0,0.0,0.0,0.0,0.0,0.0,0.0,0.0,0.0,0.0,0.0,0.0,-0.009,-0.0359,-0.0404,-0.0807,-0.2013,-0.2459,-0.2949,-0.3883,-0.5043,-0.5802,-0.5802,-0.6474,-0.6933,-0.6933,-0.6844,-0.6756,-0.6756,-0.6783,-0.679,-0.6756,-0.6756,-0.6736,-0.6702,-0.6702,-0.6702,-0.6702,-0.6702,-0.6702,-0.6702,-0.6702,-0.6702,-0.6702,-0.6702,-0.6702,0.0,0.0,0.0,0.0,0.0,0.0,0.0,0.0,0.0,0.0,0.0,0.0,0.0,0.0,-0.015,-0.0637,-0.1193,-0.2383,-0.4572,-0.6264,-0.735,-0.7573,-0.7797,-0.7914,-0.7982,-0.7988,-0.7988,-0.7988,-0.7988,-0.7988,-0.7988,-0.7988,-0.7988,-0.7988,-0.7988,-0.7988,-0.7988,-0.7988,-0.7988,-0.7988,-0.7385,-0.7083,-0.7083,-0.6426,-0.6174,-0.6124,-0.5422,-0.4722,-0.4171,-0.4067,-0.3265,-0.2213,-0.2865,-0.2715,-0.2063,-0.136,-0.1058,-0.0958,-0.0252,0.0,0.0,0.0,0.0,0.0,0.0,0.0,0.0,0.0,0.0,0.0,0.0,0.0,0.0,0.0,0.0,0.0,0.0,0.0,0.0,0.0,0.0,-0.0225,-0.0852,-0.1433,-0.2013,-0.2681,-0.3796,-0.4758,-0.5197,-0.5751,-0.6248,-0.6746,-0.6685,-0.6597,-0.6597,-0.6536,-0.6525,-0.659,-0.6597,-0.6566,-0.6502,-0.6498,-0.6498,-0.6498,-0.6498,-0.6498,-0.6498,-0.6498,-0.6498,-0.6498,-0.6498,-0.6498,0.0,0.0,0.0,0.0,0.0,0.0,0.0,0.0,0.0,0.0,0.0,0.0,0.0,0.0,0.0,0.0,-0.0924,-0.2382,-0.4563,-0.6022,-0.7076,-0.7523,-0.7746,-0.7896,-0.7978,-0.7988,-0.7988,-0.7988,-0.7988,-0.7889,-0.7686,-0.7686,-0.7587,-0.7385,-0.7385,-0.7385,-0.7385,-0.7587,-0.7686,-0.7686,-0.6329,-0.5677,-0.5677,-0.4518,-0.4016,-0.3966,-0.3765,-0.3065,-0.2063,-0.3015,-0.2063,-0.0101,-0.126,-0.1008,0.0,0.0,0.0,0.0,0.0,0.0,0.0,0.0,0.0,0.0,0.0,0.0,0.0,0.0,0.0,0.0,0.0,0.0,0.0,0.0,0.0,0.0,0.0,0.0,0.0,0.0,0.0,0.0,0.0,-0.0852,-0.1522,-0.1522,-0.254,-0.3619,-0.4506,-0.4727,-0.5186,-0.6093,-0.6078,-0.5992,-0.5992,-0.5891,-0.5872,-0.5986,-0.6278,-0.6426,-0.6306,-0.63,-0.63,-0.63,-0.63,-0.63,-0.63,-0.63,-0.63,-0.63,-0.63,-0.63,0.0,0.0,0.0,0.0,0.0,0.0,0.0,0.0,0.0,0.0,0.0,0.0,0.0,0.0,0.0,0.0,-0.1004,-0.2237,-0.3653,-0.5087,-0.6406,-0.7449,-0.7838,-0.7965,-0.7988,-0.7988,-0.7988,-0.7988,-0.7988,-0.7487,-0.6379,-0.6331,-0.5777,-0.4668,-0.4616,-0.4616,-0.4616,-0.5724,-0.6331,-0.6279,-0.497,-0.4316,-0.4318,-0.4116,-0.4016,-0.3915,-0.2815,-0.2213,-0.1913,-0.1008,-0.0353,0.0,-0.0202,-0.0202,0.0,0.0,0.0,0.0,0.0,0.0,0.0,0.0,0.0,0.0,0.0,0.0,0.0,0.0,0.0,0.0,0.0,0.0,0.0,0.0,0.0,0.0,0.0,0.0,0.0,0.0,0.0,0.0,0.0,-0.0135,-0.0269,-0.0269,-0.1323,-0.2131,-0.2295,-0.3058,-0.3633,-0.3784,-0.3703,-0.361,-0.361,-0.3599,-0.3597,-0.361,-0.5344,-0.6323,-0.6303,-0.63,-0.63,-0.63,-0.63,-0.63,-0.63,-0.63,-0.63,-0.63,-0.63,-0.63,0.0,0.0,0.0,0.0,0.0,0.0,0.0,0.0,0.0,0.0,0.0,0.0,0.0,0.0,0.0,0.0,-0.1001,-0.2007,-0.2541,-0.4444,-0.576,-0.5585,-0.7015,-0.7434,-0.5972,-0.6478,-0.6933,-0.6933,-0.6226,-0.5874,-0.5979,-0.5322,-0.462,-0.4016,-0.4016,-0.4016,-0.4016,-0.3869,-0.4219,-0.492,-0.3566,-0.2914,-0.2914,-0.2163,-0.1862,-0.1812,-0.1209,-0.0907,-0.0857,-0.0252,0.0,0.0,0.0,0.0,0.0,0.0,0.0,0.0,0.0,0.0,0.0,0.0,0.0,0.0,0.0,0.0,0.0,0.0,0.0,0.0,0.0,0.0,0.0,0.0,0.0,0.0,0.0,0.0,0.0,0.0,0.0,0.0,0.0,0.0,0.0,0.0,-0.0481,-0.1033,-0.1637,-0.2095,-0.258,-0.3142,-0.3144,-0.3085,-0.3085,-0.3085,-0.3085,-0.3085,-0.4021,-0.4569,-0.4569,-0.4569,-0.4569,-0.4569,-0.4569,-0.4569,-0.4569,-0.4569,-0.4569,-0.4569,-0.4569,-0.4569,0.0,0.0,0.0,0.0,0.0,0.0,0.0,0.0,0.0,0.0,0.0,0.0,0.0,0.0,0.0,0.0,-0.0765,-0.1497,-0.1744,-0.361,-0.4635,-0.3902,-0.5708,-0.6274,-0.4216,-0.492,-0.5525,-0.5525,-0.4568,-0.4318,-0.5024,-0.4067,-0.3366,-0.3065,-0.3065,-0.3065,-0.3065,-0.2063,-0.2213,-0.3516,-0.2163,-0.1511,-0.1511,-0.0454,0.0,0.0,0.0,0.0,0.0,0.0,0.0,0.0,0.0,0.0,0.0,0.0,0.0,0.0,0.0,0.0,0.0,0.0,0.0,0.0,0.0,0.0,0.0,0.0,0.0,0.0,0.0,0.0,0.0,0.0,0.0,0.0,0.0,0.0,0.0,0.0,0.0,0.0,0.0,0.0,0.0,0.0,0.0,-0.0296,-0.1102,-0.1213,-0.1519,-0.231,-0.2383,-0.2383,-0.2383,-0.2383,-0.2383,-0.2383,-0.2812,-0.3085,-0.3085,-0.3085,-0.3085,-0.3085,-0.3085,-0.3085,-0.3085,-0.3085,-0.3085,-0.3085,-0.3085,-0.3085,0.0,0.0,0.0,0.0,0.0,0.0,0.0,0.0,0.0,0.0,0.0,0.0,0.0,0.0,0.0,0.0,-0.0087,-0.0529,-0.1653,-0.2067,-0.2634,-0.3658,-0.4072,-0.4216,-0.4016,-0.4066,-0.4166,-0.4166,-0.4066,-0.3515,-0.2364,-0.2213,-0.1561,-0.0303,-0.0303,-0.0303,-0.0303,-0.0202,-0.0807,-0.2113,-0.0807,-0.0151,-0.0151,-0.0051,0.0,0.0,0.0,0.0,0.0,0.0,0.0,0.0,0.0,0.0,0.0,0.0,0.0,0.0,0.0,0.0,0.0,0.0,0.0,0.0,0.0,0.0,0.0,0.0,0.0,0.0,0.0,0.0,0.0,0.0,0.0,0.0,0.0,0.0,0.0,0.0,0.0,0.0,0.0,0.0,0.0,0.0,0.0,-0.0041,-0.0122,-0.012,-0.0157,-0.0196,-0.0235,-0.0235,-0.0235,-0.0235,-0.0235,-0.0235,-0.2033,-0.3085,-0.3085,-0.3085,-0.3085,-0.3085,-0.3085,-0.3085,-0.3085,-0.3085,-0.3085,-0.3085,-0.3085,-0.3085,0.0,0.0,0.0,0.0,0.0,0.0,0.0,0.0,0.0,0.0,0.0,0.0,0.0,0.0,0.0,0.0,0.0,-0.018,-0.0609,-0.1421,-0.1878,-0.149,-0.2953,-0.3366,-0.1661,-0.2264,-0.2764,-0.2764,-0.1963,-0.1661,-0.1963,-0.1209,-0.0504,0.0,0.0,0.0,0.0,0.0,-0.0252,-0.0756,-0.0252,0.0,0.0,0.0,0.0,0.0,0.0,0.0,0.0,0.0,0.0,0.0,0.0,0.0,0.0,0.0,0.0,0.0,0.0,0.0,0.0,0.0,0.0,0.0,0.0,0.0,0.0,0.0,0.0,0.0,0.0,0.0,0.0,0.0,0.0,0.0,0.0,0.0,0.0,0.0,0.0,0.0,0.0,0.0,0.0,0.0,0.0,0.0,0.0,0.0,0.0,0.0,0.0,0.0,0.0,0.0,0.0,0.0,-0.0745,-0.1175,-0.1175,-0.1175,-0.1175,-0.1175,-0.1175,-0.1175,-0.1175,-0.1175,-0.1175,-0.1175,-0.1175,-0.1175,0.0,0.0,0.0,0.0,0.0,0.0,0.0,0.0,0.0,0.0,0.0,0.0,0.0,0.0,0.0,0.0,0.0,0.0,0.0,-0.081,-0.1015,-0.0101,-0.1611,-0.2013,-0.0202,-0.0807,-0.136,-0.136,-0.0504,-0.0404,-0.131,-0.0504,0.0,0.0,0.0,0.0,0.0,0.0,0.0,0.0,0.0,0.0,0.0,0.0,0.0,0.0,0.0,0.0,0.0,0.0,0.0,0.0,0.0,0.0,0.0,0.0,0.0,0.0,0.0,0.0,0.0,0.0,0.0,0.0,0.0,0.0,0.0,0.0,0.0,0.0,0.0,0.0,0.0,0.0,0.0,0.0,0.0,0.0,0.0,0.0,0.0,0.0,0.0,0.0,0.0,0.0,0.0,0.0,0.0,0.0,0.0,0.0,0.0,0.0,0.0,0.0,0.0,0.0,0.0,0.0,0.0,0.0,0.0,0.0,0.0,0.0,0.0,0.0,0.0,0.0,0.0,0.0,0.0,0.0,0.0,0.0,0.0,0.0,0.0,0.0,0.0,0.0,0.0,0.0,0.0,0.0,0.0,0.0,0.0,0.0,0.0,0.0,0.0,0.0,0.0,0.0,0.0,0.0,0.0,0.0,0.0,0.0,0.0,0.0,0.0,0.0,0.0,0.0,0.0,0.0,0.0,0.0,0.0,0.0,0.0,0.0,0.0,0.0,0.0,0.0,0.0,0.0,0.0,0.0,0.0,0.0,0.0,0.0,0.0,0.0,0.0,0.0,0.0,0.0,0.0,0.0,0.0,0.0,0.0,0.0,0.0,0.0,0.0,0.0,0.0,0.0,0.0,0.0,0.0,0.0,0.0,0.0,0.0,0.0,0.0,0.0,0.0,0.0,0.0,0.0,0.0,0.0,0.0,0.0,0.0,0.0,0.0,0.0,0.0,0.0,0.0,0.0,0.0,0.0,0.0,0.0,0.0,0.0,0.0,0.0,0.0,0.0,0.0,0.0,0.0,0.0,0.0,0.0,0.0,0.0,0.0,0.0,0.0,0.0,0.0,0.0,0.0,0.0,0.0,0.0,0.0,0.0,0.0,0.0,0.0,0.0,0.0,0.0,0.0,0.0,0.0,0.0,0.0,0.0,0.0,0.0,0.0,0.0,0.0,0.0,0.0,0.0,0.0,0.0,0.0,0.0,0.0,0.0,0.0,0.0,0.0,0.0,0.0,0.0,0.0,0.0,0.0,0.0,0.0,0.0,0.0,0.0,0.0,0.0,0.0,0.0,0.0,0.0,0.0,0.0,0.0,0.0,0.0,0.0,0.0,0.0,0.0,0.0,0.0,0.0,0.0,0.0,0.0,0.0,0.0,0.0,0.0,0.0,0.0,0.0,0.0,0.0,0.0,0.0,0.0,0.0,0.0,0.0,0.0,0.0,0.0,0.0,0.0,0.0,0.0,0.0,0.0,0.0,0.0,0.0,0.0,0.0,0.0,0.0,0.0,0.0,0.0,0.0,0.0,0.0,0.0,0.0,0.0,0.0,0.0,0.0,0.0,0.0,0.0,0.0,0.0,0.0,0.0,0.0,0.0,0.0,0.0,0.0,0.0,0.0,0.0,0.0,0.0,0.0,0.0,0.0,0.0,0.0,0.0,0.0,0.0,0.0,0.0,0.0,0.0,0.0,0.0,0.0,0.0,0.0,0.0,0.0,0.0,0.0,0.0,0.0,0.0,0.0,0.0,0.0,0.0,0.0,0.0,0.0,0.0,0.0,0.0,0.0,0.0,0.0,0.0,0.0,0.0,0.0,0.0,0.0,0.0,0.0,0.0,0.0,0.0,0.0,0.0,0.0,0.0,0.0,0.0,0.0,0.0,0.0,0.0,0.0,0.0,0.0,0.0,0.0,0.0,0.0,0.0,0.0,0.0,0.0,0.0,0.0,0.0,0.0,0.0,0.0,0.0,0.0,0.0,0.0,0.0,0.0,0.0,0.0,0.0,0.0,0.0,0.0,0.0,0.0,0.0,0.0,0.0,0.0,0.0,0.0,0.0,0.0,0.0,0.0,0.0,0.0,0.0,0.0,0.0,0.0,0.0,0.0,0.0,0.0,0.0,0.0,0.0,0.0,0.0,0.0,0.0,0.0,0.0,0.0,0.0,0.0,0.0,0.0,0.0,0.0,0.0,0.0,0.0,0.0,0.0,0.0,0.0,0.0,0.0,0.0,0.0,0.0,0.0,0.0,0.0,0.0,0.0,0.0,0.0,0.0,0.0,0.0,0.0,0.0,0.0,0.0,0.0,0.0,0.0,0.0,0.0,0.0,0.0,0.0,0.0,0.0,0.0,0.0,0.0,0.0,0.0,0.0,0.0,0.0,0.0,0.0,0.0,0.0,0.0,0.0,0.0,0.0,0.0,0.0,0.0,0.0,0.0,0.0,0.0,0.0,0.0,0.0,0.0,0.0,0.0,0.0,0.0,0.0,0.0,0.0,0.0,0.0,0.0,0.0,0.0,0.0,0.0,0.0,0.0,0.0,0.0,0.0,0.0,0.0,0.0,0.0,0.0,0.0,0.0,0.0,0.0,0.0,0.0,0.0,0.0,0.0,0.0,0.0,0.0,0.0,0.0,0.0,0.0,0.0,0.0,0.0,0.0,0.0,0.0,0.0,0.0,0.0,0.0,0.0,0.0,0.0,0.0,0.0,0.0,0.0,0.0,0.0,0.0,0.0,0.0,0.0,0.0,0.0,0.0,0.0,0.0,0.0,0.0,0.0,0.0,0.0,0.0,0.0,0.0,0.0,0.0,0.0,0.0,0.0,0.0,0.0,0.0,0.0,0.0,0.0,0.0,0.0,0.0,0.0,0.0,0.0,0.0,0.0,0.0,0.0,0.0,0.0,0.0,0.0,0.0,0.0,0.0,0.0,0.0,0.0,0.0,0.0,0.0,0.0,0.0,0.0,0.0,0.0,0.0,0.0,0.0,0.0,0.0,0.0,0.0,0.0,0.0,0.0,0.0,0.0,0.0,0.0,0.0,0.0,0.0,0.0,0.0,0.0,0.0,0.0,0.0,0.0,0.0,0.0,0.0,0.0,0.0,0.0,0.0,0.0,0.0,0.0,0.0,0.0,0.0,0.0,0.0,0.0,0.0,0.0,0.0,0.0,0.0,0.0,0.0,0.0,0.0,0.0,0.0,0.0,0.0,0.0,0.0,0.0,0.0,0.0,0.0,0.0,0.0,0.0,0.0,0.0,0.0,0.0,0.0,0.0,0.0,0.0,0.0,0.0,0.0,0.0,0.0,0.0,0.0,0.0385,0.0765,0.0749,0.0379,0.0,0.0,0.0,0.0,0.0,0.0,0.0,0.0,0.0,0.0,0.0,0.0,0.0,0.0,0.0,0.0,0.0,0.0,0.0,0.0,0.0,0.0,0.0,0.0,0.0,0.0,0.0,0.0,0.0,0.0,0.0,0.0,0.0,0.0,0.0,0.0,0.0,0.0,0.0,0.0,0.0,0.0,0.0,0.0,0.0,0.0,0.0,0.0,0.0,0.0,0.0,0.0,0.0,0.0,0.0,0.0,0.0,0.0,0.0,0.0,0.0,0.0,0.0,0.0,0.0,0.0,0.0,0.0,0.0,0.0,0.0,0.0,0.0,0.0,0.0,0.0,0.0,0.0,0.0,0.0,0.0,0.0,0.0,0.0,0.0,0.0,0.0,0.0,0.0,0.0,0.0,0.0,0.0,0.0,0.0,0.0,0.0,0.0,0.0,0.0,0.0,0.0,0.0,0.0,0.0,0.013,0.0258,0.0295,0.1044,0.1864,0.1865,0.1187,0.0496,0.0325,0.0283,0.0241,0.0039,0.0,0.0,0.0,0.0,0.0,0.0,0.0,0.0,0.0,0.0,0.0,0.0,0.0,0.0,0.0,0.0,0.0,0.0,0.0,0.0,0.0,0.0196,0.0196,0.0,0.0,0.0,0.0,0.0,0.0,0.0,0.0196,0.0196,0.0,0.0,0.0,0.0,0.0,0.0,0.0,0.0,0.0,0.0,0.0,0.0,0.0,0.0,0.0,0.0,0.0,0.0,0.0,0.0,0.0,0.0,0.0,0.0,0.0,0.0,0.0,0.0,0.0,0.0,0.0,0.0,0.0,0.0,0.0,0.0,0.0,0.0,0.0,0.0,0.0,0.0,0.0,0.0,0.0,0.0,0.0,0.0,0.0,0.0,0.0,0.0,0.0,0.0,0.0,0.0,0.0,0.0,0.0,0.0,0.0,0.0,0.0,0.0,0.0,0.0,0.0,0.0,0.0675,0.1383,0.1395,0.2158,0.291,0.2882,0.2794,0.2444,0.1576,0.1378,0.1102,0.0196,0.0,0.0,0.0,0.0,0.0,0.0,0.0,0.0,0.0,0.0,0.0,0.0,0.0,0.0,0.0,0.0,0.0,0.0,0.0,0.0,0.0,0.0902,0.0941,0.0,0.0,0.0,0.0,0.0,0.0,0.0039,0.0941,0.0902,0.0,0.0,0.0,0.0,0.0,0.0,0.0,0.0,0.0,0.0,0.0,0.0,0.0,0.0,0.0,0.0,0.0,0.0,0.0,0.0,0.0,0.0,0.0,0.0,0.0,0.0,0.0,0.0,0.0,0.0,0.0,0.0,0.0,0.0,0.0,0.0,0.0,0.0,0.0,0.0,0.0,0.0359,0.1031,0.1031,0.0628,0.0,0.0,0.0,0.0,0.0,0.0,0.0,0.0,0.0,0.0,0.0,0.0,0.0,0.0,0.0,0.0,0.0,0.0,0.0,0.0,0.0,0.0128,0.0748,0.1237,0.172,0.2279,0.3214,0.3996,0.3992,0.4453,0.4608,0.3556,0.2854,0.2151,0.1097,0.0902,0.0706,0.0118,0.0,0.0,0.0,0.0,0.0,0.0,0.0,0.0,0.0,0.0,0.0,0.0,0.0,0.0,0.0,0.0549,0.0902,0.0902,0.1879,0.2228,0.176,0.1176,0.0588,0.0,0.0588,0.0902,0.0902,0.1957,0.2189,0.0,0.0,0.0,0.0,0.0,0.0,0.0,0.0,0.0,0.0,0.0,0.0,0.0,0.0,0.0,0.0,0.0,0.0,0.0,0.0,0.0,0.0,0.0,0.0,0.0,0.0,0.0,0.0,0.0,0.0,0.0,0.0,0.0,0.0,0.0,0.0,0.0,0.0314,0.0449,0.0449,0.0762,0.1389,0.2236,0.2236,0.1745,0.0897,0.0897,0.0897,0.0897,0.0897,0.0718,0.0449,0.0449,0.0269,0.0,0.0,0.0,0.0045,0.0312,0.0401,0.0444,0.0694,0.0775,0.0772,0.0797,0.0792,0.0953,0.1741,0.2171,0.2561,0.3295,0.4295,0.5118,0.5118,0.5709,0.6022,0.4924,0.3865,0.289,0.2113,0.1996,0.1723,0.0941,0.0784,0.0784,0.0784,0.0784,0.0706,0.0432,0.0627,0.0588,0.0039,0.0471,0.0588,0.0039,0.0471,0.0666,0.0432,0.141,0.1996,0.1996,0.2969,0.3396,0.3124,0.262,0.188,0.0784,0.1605,0.1996,0.1996,0.3047,0.3346,0.0,0.0,0.0,0.0,0.0,0.0,0.0,0.0,0.0,0.0,0.0,0.0,0.0,0.0,0.0,0.0,0.0,0.0,0.0,0.0,0.0,0.0,0.0,0.0,0.0,0.0,0.0,0.0,0.0,0.0,0.0,0.0,0.0,0.0,0.0,0.0,0.0,0.1121,0.1701,0.1701,0.2858,0.3436,0.3525,0.3525,0.3481,0.3392,0.3392,0.3392,0.3392,0.3392,0.2726,0.1701,0.1701,0.0986,0.0,0.0,0.0,0.0134,0.1181,0.1519,0.1686,0.262,0.2937,0.2925,0.2939,0.2958,0.2944,0.2994,0.3754,0.4538,0.4611,0.5395,0.6222,0.6222,0.6261,0.6022,0.4924,0.3865,0.3085,0.3046,0.3007,0.3007,0.2929,0.2929,0.2929,0.2929,0.2929,0.2579,0.1645,0.2345,0.2189,0.0196,0.176,0.215,0.0157,0.18,0.254,0.1568,0.2462,0.3007,0.3007,0.4062,0.4139,0.3124,0.4059,0.4023,0.2929,0.3007,0.3007,0.3046,0.41,0.4013,0.0,0.0,0.0,0.0,0.0,0.0,0.0,0.0,0.0,0.0,0.0,0.0,0.0,0.0,0.0,0.0,0.0,0.0,0.0,0.0,0.0,0.0,0.0,0.0,0.0,0.0,0.0,0.0,0.0,0.0359,0.1121,0.0404,0.0718,0.2281,0.1567,0.1522,0.2324,0.2726,0.2948,0.2948,0.3392,0.4016,0.4776,0.4776,0.5176,0.5844,0.5844,0.4994,0.3614,0.3614,0.3347,0.2948,0.2948,0.2681,0.2276,0.2159,0.2106,0.2142,0.2478,0.2543,0.2617,0.2971,0.3113,0.3099,0.3107,0.3086,0.3236,0.3915,0.4414,0.4844,0.555,0.6022,0.63,0.63,0.63,0.6183,0.5825,0.5431,0.496,0.4256,0.4139,0.3904,0.3202,0.3085,0.3085,0.3085,0.3085,0.2968,0.2618,0.289,0.2812,0.2072,0.2656,0.2812,0.2072,0.2656,0.2929,0.2579,0.3554,0.4139,0.4139,0.5157,0.555,0.5157,0.5512,0.4844,0.3085,0.3787,0.4067,0.4042,0.5074,0.5274,0.0,0.0,0.0,0.0,0.0,0.0,0.0,0.0,0.0,0.0,0.0,0.0,0.0,0.0,0.0,0.0,0.0,0.0,0.0,0.0,0.0,0.0,0.0,0.0,0.0,0.0359,0.0449,0.0045,0.0763,0.1389,0.179,0.1433,0.1924,0.357,0.2815,0.2769,0.3614,0.4016,0.4194,0.4196,0.4594,0.5176,0.5983,0.5983,0.6381,0.7095,0.7095,0.6201,0.4772,0.4772,0.455,0.4192,0.4116,0.3842,0.3481,0.328,0.3254,0.3287,0.3546,0.3643,0.371,0.4069,0.4159,0.4185,0.416,0.4178,0.4334,0.504,0.5237,0.5395,0.6103,0.63,0.63,0.63,0.63,0.63,0.63,0.63,0.6103,0.5392,0.5237,0.5002,0.4295,0.4178,0.4178,0.4178,0.4178,0.4059,0.3671,0.3943,0.3904,0.3163,0.3748,0.3865,0.3163,0.3748,0.4021,0.3671,0.4647,0.5237,0.5237,0.5906,0.6276,0.6183,0.6183,0.546,0.4,0.4765,0.5066,0.4944,0.5614,0.5874,0.0,0.0,0.0,0.0044,0.005,0.0056,0.0056,0.006,0.0065,0.0033,0.0035,0.0037,0.0,0.0,0.0,0.0044,0.0045,0.0045,0.0,0.0045,0.009,0.0045,0.009,0.009,0.009,0.1165,0.1389,0.018,0.2281,0.3126,0.1969,0.3037,0.3703,0.3659,0.3703,0.3703,0.3703,0.4865,0.5447,0.5447,0.6561,0.7095,0.7095,0.7095,0.7095,0.7088,0.7088,0.7088,0.7085,0.7088,0.6422,0.5432,0.5226,0.445,0.3364,0.3248,0.322,0.3335,0.4401,0.4731,0.4914,0.595,0.63,0.63,0.63,0.63,0.63,0.63,0.63,0.63,0.63,0.63,0.63,0.63,0.63,0.63,0.63,0.63,0.63,0.63,0.63,0.63,0.63,0.63,0.63,0.63,0.63,0.5906,0.4882,0.567,0.5512,0.3435,0.504,0.547,0.3357,0.5118,0.5867,0.4805,0.5709,0.63,0.63,0.6296,0.6183,0.5996,0.5986,0.5909,0.5796,0.5912,0.5905,0.5793,0.5789,0.5715,0.0793,0.0,0.0,0.0,0.0,0.0,0.1392,0.1454,0.1309,0.0899,0.0792,0.0649,0.011,0.0,0.0192,0.0849,0.1047,0.0898,0.0129,0.1388,0.21,0.1401,0.2083,0.2592,0.2592,0.2903,0.2948,0.2637,0.3215,0.3838,0.4376,0.5489,0.5755,0.491,0.5711,0.611,0.611,0.647,0.665,0.665,0.6962,0.7095,0.7095,0.7095,0.7041,0.6943,0.6943,0.6879,0.6831,0.69,0.6767,0.6449,0.6307,0.6041,0.573,0.5598,0.5552,0.5575,0.5771,0.5846,0.5918,0.6193,0.63,0.63,0.63,0.63,0.63,0.63,0.63,0.63,0.63,0.63,0.63,0.63,0.63,0.63,0.63,0.63,0.63,0.63,0.63,0.63,0.63,0.63,0.63,0.63,0.63,0.6183,0.5906,0.6103,0.6064,0.5473,0.5944,0.6064,0.5473,0.5944,0.618,0.5867,0.6141,0.63,0.63,0.6152,0.6074,0.5993,0.5922,0.5793,0.5647,0.5793,0.5789,0.5647,0.5569,0.5494,0.1187,0.1176,0.1222,0.1435,0.0,0.0,0.1804,0.1883,0.1838,0.1524,0.1489,0.1376,0.0989,0.0935,0.1088,0.161,0.2205,0.2292,0.1358,0.236,0.2989,0.2392,0.2978,0.3391,0.3391,0.3826,0.3913,0.3434,0.4346,0.5213,0.5915,0.6623,0.6702,0.604,0.6709,0.7095,0.7095,0.7095,0.7095,0.7095,0.7038,0.7007,0.7007,0.6943,0.6912,0.6834,0.6834,0.6783,0.6702,0.6729,0.6776,0.6817,0.6664,0.6607,0.6586,0.6477,0.6422,0.6412,0.6327,0.63,0.63,0.63,0.63,0.63,0.63,0.63,0.63,0.63,0.63,0.63,0.63,0.63,0.63,0.63,0.63,0.63,0.63,0.63,0.63,0.63,0.63,0.63,0.63,0.63,0.63,0.63,0.63,0.63,0.63,0.63,0.63,0.63,0.63,0.63,0.63,0.63,0.63,0.63,0.6238,0.6166,0.6166,0.6017,0.5908,0.5847,0.5759,0.564,0.5528,0.564,0.5637,0.5528,0.5436,0.5591,0.1432,0.144,0.1448,0.1465,0.162,0.0,0.1789,0.1876,0.199,0.2054,0.2083,0.2093,0.2178,0.2184,0.2207,0.2347,0.3262,0.3721,0.295,0.3177,0.3397,0.3281,0.3366,0.3456,0.3515,0.4472,0.4636,0.3599,0.5482,0.6702,0.6702,0.6848,0.6879,0.6862,0.6997,0.7065,0.7048,0.7048,0.7048,0.7045,0.692,0.6862,0.6856,0.6763,0.6692,0.6675,0.6675,0.6664,0.6641,0.6545,0.6539,0.6661,0.6549,0.6491,0.6474,0.6347,0.63,0.63,0.63,0.63,0.63,0.63,0.63,0.63,0.63,0.63,0.63,0.63,0.63,0.63,0.63,0.63,0.63,0.63,0.63,0.63,0.63,0.63,0.63,0.63,0.63,0.63,0.63,0.63,0.63,0.63,0.63,0.63,0.63,0.63,0.63,0.63,0.63,0.63,0.63,0.63,0.6293,0.6276,0.6105,0.5986,0.5969,0.5861,0.5718,0.5593,0.5572,0.5532,0.5395,0.5532,0.5562,0.5557,0.5557,0.6013,0.2289,0.2261,0.2321,0.2543,0.2618,0.0,0.2983,0.3028,0.2918,0.2627,0.2571,0.2459,0.2113,0.2039,0.2311,0.3191,0.3617,0.3538,0.2707,0.4226,0.5156,0.4464,0.5151,0.5753,0.5965,0.6094,0.6116,0.6019,0.6446,0.6702,0.6702,0.6848,0.6829,0.6749,0.6849,0.6869,0.6787,0.6787,0.6787,0.6787,0.6759,0.6746,0.6746,0.6715,0.6634,0.6555,0.6555,0.6494,0.6381,0.6354,0.6426,0.6542,0.6399,0.634,0.6337,0.631,0.63,0.63,0.63,0.63,0.63,0.63,0.63,0.63,0.63,0.63,0.63,0.63,0.63,0.63,0.63,0.63,0.63,0.63,0.63,0.63,0.63,0.63,0.63,0.63,0.63,0.63,0.63,0.63,0.63,0.63,0.63,0.63,0.63,0.63,0.63,0.63,0.63,0.63,0.63,0.63,0.6245,0.6084,0.601,0.5939,0.585,0.5708,0.5616,0.5589,0.5501,0.5426,0.5395,0.5426,0.5782,0.6461,0.6461,0.6915,0.2757,0.2696,0.2716,0.2774,0.2852,0.0,0.0,0.3185,0.3174,0.3062,0.3034,0.2969,0.2915,0.2887,0.3096,0.371,0.3903,0.387,0.3551,0.4767,0.5544,0.5108,0.5519,0.5938,0.6125,0.6078,0.6125,0.6349,0.6366,0.64,0.6478,0.662,0.6664,0.659,0.6736,0.6776,0.6702,0.6702,0.6702,0.6698,0.6624,0.6586,0.6583,0.6515,0.6477,0.6405,0.6405,0.6364,0.63,0.63,0.634,0.6399,0.6327,0.63,0.63,0.63,0.63,0.63,0.63,0.63,0.63,0.63,0.63,0.63,0.63,0.63,0.63,0.63,0.63,0.63,0.63,0.63,0.63,0.63,0.63,0.63,0.63,0.63,0.63,0.63,0.63,0.63,0.63,0.63,0.63,0.63,0.63,0.63,0.63,0.63,0.63,0.63,0.63,0.63,0.63,0.619,0.6112,0.5996,0.5855,0.5776,0.5698,0.5555,0.5707,0.6138,0.6084,0.6272,0.6695,0.6695,0.6691,0.6719,0.7144,0.7827,0.3057,0.2953,0.2913,0.2778,0.2795,0.2866,0.0,0.0,0.0,0.3276,0.3266,0.3333,0.3653,0.3707,0.3748,0.387,0.3994,0.4126,0.4262,0.4747,0.5156,0.5327,0.5324,0.5382,0.5528,0.5572,0.5688,0.5892,0.5959,0.6084,0.6248,0.6419,0.6501,0.647,0.6576,0.6644,0.6617,0.6617,0.6617,0.6614,0.6532,0.647,0.6467,0.6354,0.63,0.63,0.63,0.63,0.63,0.63,0.63,0.63,0.63,0.63,0.63,0.63,0.63,0.63,0.63,0.63,0.63,0.63,0.63,0.63,0.63,0.63,0.63,0.63,0.63,0.63,0.63,0.63,0.63,0.63,0.63,0.63,0.63,0.63,0.63,0.63,0.63,0.63,0.63,0.63,0.63,0.63,0.63,0.63,0.63,0.63,0.63,0.63,0.6272,0.6255,0.6255,0.6074,0.5936,0.5909,0.5722,0.5576,0.5549,0.5624,0.5976,0.6687,0.685,0.7307,0.7994,0.8156,0.7897,0.7209,0.7929,0.871,0.3336,0.3159,0.3044,0.292,0.2795,0.2723,0.2723,0.0,0.2791,0.2927,0.0,0.3049,0.3389,0.0,0.0,0.3447,0.3576,0.3634,0.3537,0.3785,0.4267,0.5029,0.5015,0.5081,0.5392,0.5545,0.5603,0.5637,0.5881,0.6,0.6016,0.6318,0.6453,0.6327,0.6463,0.6477,0.6351,0.6351,0.6351,0.6351,0.633,0.6323,0.6323,0.6306,0.63,0.63,0.63,0.63,0.63,0.63,0.63,0.63,0.63,0.63,0.63,0.63,0.63,0.63,0.63,0.63,0.63,0.63,0.63,0.63,0.63,0.63,0.63,0.63,0.63,0.63,0.63,0.63,0.63,0.63,0.63,0.63,0.63,0.63,0.63,0.63,0.63,0.63,0.63,0.63,0.63,0.63,0.63,0.63,0.63,0.63,0.63,0.63,0.6139,0.602,0.602,0.5915,0.5772,0.5647,0.561,0.5562,0.5426,0.6148,0.6588,0.6687,0.747,0.7897,0.7994,0.878,0.9107,0.9011,0.9107,0.962,0.3664,0.3497,0.3351,0.3182,0.2969,0.2812,0.2812,0.2692,0.2599,0.2664,0.0,0.0,0.0,0.0,0.0,0.0,0.3034,0.3085,0.3112,0.3273,0.3639,0.4277,0.4351,0.4514,0.4842,0.506,0.5274,0.5477,0.5572,0.5755,0.5979,0.6149,0.623,0.6296,0.6358,0.6361,0.63,0.63,0.63,0.63,0.63,0.63,0.63,0.63,0.63,0.63,0.63,0.63,0.63,0.63,0.63,0.63,0.63,0.63,0.63,0.63,0.63,0.63,0.63,0.63,0.63,0.63,0.63,0.63,0.63,0.63,0.63,0.63,0.63,0.63,0.63,0.6231,0.6129,0.6129,0.6057,0.5993,0.5993,0.5993,0.5993,0.5993,0.5993,0.5993,0.5993,0.618,0.63,0.63,0.63,0.63,0.63,0.6183,0.6129,0.6129,0.5989,0.5898,0.5898,0.5762,0.5654,0.5593,0.5542,0.5691,0.6141,0.6494,0.7177,0.8188,0.8581,0.9005,0.9518,0.9881,1.0047,1.0047,1.0047,1.0238,0.4046,0.3863,0.3653,0.3438,0.3199,0.3,0.2956,0.2781,0.2609,0.2609,0.255,0.0,0.0,0.0,0.0,0.0,0.0,0.2721,0.2751,0.2993,0.0,0.0,0.3839,0.406,0.4341,0.4616,0.4901,0.519,0.5327,0.5539,0.583,0.5925,0.6081,0.6231,0.6279,0.63,0.63,0.63,0.63,0.63,0.63,0.63,0.63,0.63,0.63,0.63,0.63,0.63,0.63,0.63,0.63,0.63,0.63,0.63,0.63,0.63,0.63,0.63,0.63,0.63,0.63,0.63,0.63,0.63,0.63,0.6269,0.6235,0.6235,0.6204,0.6173,0.6173,0.6051,0.5929,0.5929,0.5881,0.58,0.58,0.58,0.58,0.58,0.58,0.58,0.58,0.5986,0.6173,0.6173,0.6173,0.6173,0.6173,0.6037,0.5929,0.5929,0.5833,0.5742,0.5742,0.561,0.5562,0.5562,0.5684,0.6042,0.6687,0.7177,0.7994,0.9274,0.953,0.9977,1.0593,1.0593,1.0593,1.0593,1.0593,1.0593,0.4511,0.4226,0.391,0.3668,0.3431,0.3256,0.3128,0.2983,0.2896,0.2896,0.3088,0.3261,0.3265,0.0,0.0,0.0,0.0,0.0,0.0,0.0,0.0,0.0,0.0,0.0,0.3994,0.4331,0.4573,0.4701,0.5146,0.5402,0.5416,0.5793,0.5993,0.6,0.6183,0.63,0.63,0.63,0.63,0.63,0.63,0.63,0.63,0.63,0.63,0.63,0.63,0.63,0.63,0.63,0.63,0.63,0.63,0.63,0.63,0.63,0.63,0.63,0.63,0.63,0.63,0.63,0.63,0.63,0.63,0.6156,0.6,0.6,0.5928,0.5817,0.5817,0.5813,0.581,0.581,0.5803,0.58,0.58,0.58,0.58,0.58,0.58,0.58,0.58,0.581,0.5817,0.5817,0.5817,0.5817,0.5817,0.5813,0.581,0.581,0.5681,0.5596,0.5596,0.5491,0.5402,0.5402,0.6207,0.6687,0.6687,0.8323,0.9236,0.9306,1.0142,1.0561,1.0593,1.0593,1.0593,1.0593,1.0593,1.0593,0.5277,0.5171,0.4961,0.4761,0.4553,0.4355,0.429,0.3943,0.3759,0.4257,0.4036,0.3771,0.3771,0.0,0.0,0.0,0.0,0.0,0.0,0.0,0.0,0.0,0.0,0.0,0.0,0.0,0.4767,0.5072,0.5008,0.5078,0.5378,0.5539,0.5725,0.5983,0.6081,0.6159,0.6296,0.63,0.63,0.63,0.63,0.63,0.63,0.63,0.63,0.63,0.63,0.63,0.63,0.63,0.63,0.63,0.63,0.63,0.63,0.63,0.63,0.63,0.63,0.63,0.6282,0.6142,0.6108,0.6088,0.5986,0.5918,0.5878,0.5878,0.584,0.58,0.58,0.5732,0.5661,0.5661,0.5586,0.5545,0.5545,0.5545,0.5545,0.5545,0.5545,0.5545,0.5545,0.5545,0.561,0.5772,0.58,0.58,0.58,0.5722,0.5661,0.5661,0.5562,0.5702,0.6293,0.6828,0.712,0.712,0.7409,0.7827,0.8388,0.8973,0.9562,1.0142,1.0466,1.0593,1.0593,1.0593,1.0593,1.0624,1.1139,1.1108,0.6457,0.6145,0.5656,0.5788,0.564,0.5347,0.5041,0.464,0.4425,0.4769,0.456,0.4361,0.4507,0.0,0.0,0.0,0.0,0.0,0.0,0.2972,0.0,0.0,0.0,0.0,0.0,0.0,0.0,0.4827,0.4879,0.0,0.5136,0.5306,0.5528,0.5783,0.5909,0.6078,0.6176,0.6272,0.63,0.63,0.63,0.63,0.63,0.63,0.63,0.63,0.63,0.63,0.63,0.63,0.63,0.63,0.63,0.6265,0.6186,0.6279,0.6265,0.6179,0.6179,0.618,0.6119,0.5979,0.5912,0.5928,0.583,0.5766,0.5725,0.5725,0.5688,0.5644,0.5644,0.5579,0.5542,0.5542,0.5467,0.5395,0.5395,0.5395,0.5395,0.5395,0.5395,0.5395,0.5395,0.5395,0.546,0.5616,0.5644,0.5644,0.5644,0.5566,0.5641,0.5943,0.5911,0.6207,0.7079,0.7665,0.7994,0.7994,0.8285,0.8716,0.9274,0.9594,1.0059,1.074,1.0646,1.064,1.0747,1.064,1.0744,1.1045,1.1562,1.1686]}]]